Date StartTime U_cm/s V_cm/s W_cm/s Ustd_cm/s Vstd_cm/s Wstd_cm/s Uvar_(cm/s)^2 Vvar_(cm/s)^2 Wvar_(cm/s)^2 KE_(m/s)^2 TurbulentKE_(m/s)^2 HorizWindSpeed_cm/s FrictionSpeec_cm/s DragCoef SpeedOfSound_m/s SonicTemperature_C Pressure_mb 
12/02/2014  00:00:00      -89.681      -42.190       -0.617       24.163       18.894       13.600      583.849      356.983      184.949        0.547        0.056       99.109       13.644        0.019      333.822        3.388      863.020
12/02/2014  00:01:00      -89.318      -34.911       -3.218       17.272       18.487       11.721      298.320      341.770      137.381        0.499        0.039       95.898        8.521        0.008      333.799        3.351      863.014
12/02/2014  00:02:00      -98.391      -22.853       -8.345       17.634       15.804       14.575      310.950      249.756      212.435        0.552        0.039      101.010        9.038        0.008      333.753        3.273      862.996
12/02/2014  00:03:00     -103.897      -46.034       -5.564       20.381       21.189       12.943      415.389      448.989      167.517        0.699        0.052      113.639        9.401        0.007      333.715        3.211      862.977
12/02/2014  00:04:00      -73.829      -30.120       -1.862       27.580       25.276       15.239      760.681      638.875      232.233        0.400        0.082       79.736       10.453        0.017      333.742        3.256      862.970
12/02/2014  00:05:00      -37.761      -32.351        3.572       41.751       22.839       16.799     1743.133      521.635      282.206        0.252        0.127       49.725       16.940        0.116      333.766        3.296      862.975
12/02/2014  00:06:00      -73.961      -53.693       -3.674       28.968       22.974       14.064      839.120      527.797      197.807        0.497        0.078       91.395        8.786        0.009      333.799        3.351      862.982
12/02/2014  00:07:00      -73.025      -63.871        4.606       33.713       25.565       20.767     1136.549      653.580      431.288        0.583        0.111       97.016       16.594        0.029      333.825        3.395      862.992
12/02/2014  00:08:00      -63.510      -45.319        4.511       38.410       24.685       20.230     1475.297      609.364      409.248        0.430        0.125       78.021       17.384        0.050      333.764        3.293      862.983
12/02/2014  00:09:00      -65.023      -50.582        6.103       43.777       23.102       23.177     1916.418      533.689      537.158        0.490        0.149       82.381       20.578        0.062      333.861        3.453      862.974
12/02/2014  00:10:00      -91.994      -50.694        1.166       38.019       28.757       20.532     1445.474      826.977      421.576        0.686        0.135      105.037       23.125        0.048      333.868        3.466      862.959
12/02/2014  00:11:00     -100.320      -55.312       -0.005       33.444       20.999       16.384     1118.501      440.977      268.431        0.748        0.091      114.558       13.646        0.014      333.874        3.474      862.929
12/02/2014  00:12:00     -105.523      -46.752       -2.596       22.336       19.216       14.648      498.898      369.270      214.576        0.720        0.054      115.416       11.282        0.010      333.806        3.362      862.904
12/02/2014  00:13:00     -109.661      -45.833      -11.181       12.676       24.126       11.421      160.671      582.058      130.444        0.756        0.044      118.854        9.486        0.006      333.833        3.407      862.887
12/02/2014  00:14:00      -94.299      -55.914       -2.614       17.890       16.379       14.117      320.062      268.265      199.282        0.641        0.039      109.629        8.789        0.006      333.798        3.350      862.865
12/02/2014  00:15:00      -54.511      -33.924        5.262       39.382       17.234       16.577     1550.931      297.007      274.807        0.314        0.106       64.205       18.294        0.081      333.819        3.384      862.837
12/02/2014  00:16:00      -60.054      -39.297        9.677       43.638       27.255       18.308     1904.275      742.816      335.187        0.411        0.149       71.768       23.233        0.105      333.851        3.437      862.816
12/02/2014  00:17:00      -67.035      -50.143        3.364       39.762       30.212       20.427     1580.992      912.789      417.255        0.496        0.146       83.714       15.685        0.035      333.959        3.616      862.811
12/02/2014  00:18:00      -84.610      -49.386        5.379       38.995       28.966       22.309     1520.636      839.009      497.681        0.624        0.143       97.969       20.294        0.043      334.048        3.763      862.808
12/02/2014  00:19:00      -58.457      -38.292        4.909       38.480       34.716       22.466     1480.736     1205.169      504.734        0.405        0.160       69.882       25.210        0.130      333.956        3.611      862.802
12/02/2014  00:20:00      -66.999      -46.682        5.710       38.041       28.583       21.176     1447.147      816.960      448.441        0.471        0.136       81.659       14.887        0.033      333.974        3.643      862.796
12/02/2014  00:21:00      -69.272      -36.034        6.081       40.183       29.306       19.885     1614.684      858.851      395.424        0.450        0.143       78.084       20.560        0.069      333.909        3.534      862.783
12/02/2014  00:22:00      -99.148      -46.915        4.341       36.831       23.068       20.324     1356.530      532.116      413.046        0.718        0.115      109.688       15.194        0.019      333.910        3.535      862.778
12/02/2014  00:23:00      -66.449      -30.100        5.739       33.691       30.480       19.922     1135.116      929.016      396.872        0.391        0.123       72.948       16.434        0.051      333.935        3.577      862.777
12/02/2014  00:24:00      -72.221      -36.807        3.008       36.232       24.029       18.726     1312.791      577.404      350.653        0.441        0.112       81.059       16.090        0.039      333.962        3.622      862.776
12/02/2014  00:25:00      -70.149      -27.462        5.129       29.657       23.774       13.787      879.532      565.218      190.077        0.367        0.082       75.333       12.135        0.026      333.894        3.508      862.768
12/02/2014  00:26:00      -86.559      -44.890        0.460       23.860       20.679       11.477      569.319      427.627      131.721        0.532        0.056       97.507        9.412        0.009      333.876        3.481      862.764
12/02/2014  00:27:00      -56.028      -15.828        8.721       27.850       18.367       13.574      775.611      337.351      184.253        0.238        0.065       58.221       10.198        0.031      333.798        3.349      862.763
12/02/2014  00:28:00      -52.551      -29.584        6.020       30.798       20.972       14.212      948.546      439.819      201.977        0.263        0.080       60.306       10.453        0.030      333.885        3.493      862.762
12/02/2014  00:29:00      -62.008      -29.444        4.862       34.866       18.916       17.085     1215.634      357.803      291.885        0.330        0.093       68.643       17.645        0.066      333.875        3.477      862.747
12/02/2014  00:30:00      -58.585      -25.952        1.769       27.685       16.441       13.783      766.475      270.307      189.971        0.267        0.061       64.076       11.478        0.032      333.861        3.454      862.730
12/02/2014  00:31:00      -52.498      -15.485       -2.074       14.975       15.975       10.463      224.242      255.188      109.469        0.179        0.029       54.734        8.276        0.023      333.873        3.475      862.719
12/02/2014  00:32:00      -69.119      -18.976       -2.932       21.734       13.277       12.204      472.350      176.283      148.938        0.297        0.040       71.677       12.580        0.031      333.894        3.509      862.700
12/02/2014  00:33:00      -89.694       -3.417      -10.214       16.665       13.819       11.026      277.731      190.962      121.562        0.438        0.030       89.759        9.147        0.010      333.844        3.425      862.688
12/02/2014  00:34:00      -91.152       -4.661       -9.296       12.562       15.640       10.483      157.799      244.616      109.886        0.446        0.026       91.271        5.907        0.004      333.798        3.350      862.678
12/02/2014  00:35:00      -66.560      -14.811       -2.779       19.768       21.045       12.882      390.781      442.896      165.944        0.283        0.050       68.188       13.683        0.040      333.745        3.261      862.671
12/02/2014  00:36:00      -58.185      -28.008       -4.658       17.097       16.168       10.053      292.291      261.412      101.053        0.242        0.033       64.575        9.473        0.022      333.725        3.227      862.674
12/02/2014  00:37:00      -86.396      -30.363       -7.185       14.274       16.310       10.529      203.739      266.021      110.851        0.451        0.029       91.576        9.360        0.010      333.694        3.176      862.680
12/02/2014  00:38:00      -82.138      -49.690      -13.771       17.380       16.031       12.918      302.053      256.991      166.885        0.507        0.036       95.999        9.326        0.009      333.682        3.156      862.687
12/02/2014  00:39:00      -90.148      -45.944      -16.445       17.017       17.322       11.495      289.583      300.062      132.127        0.561        0.036      101.181        8.613        0.007      333.681        3.155      862.687
12/02/2014  00:40:00      -92.527      -26.604      -12.078       20.489       20.751       12.406      419.803      430.611      153.910        0.521        0.050       96.276       10.184        0.011      333.634        3.078      862.676
12/02/2014  00:41:00      -96.682      -10.409      -10.115       23.779       20.914       14.694      565.453      437.406      215.909        0.539        0.061       97.241       13.056        0.018      333.649        3.102      862.653
12/02/2014  00:42:00      -98.424       -5.909       -9.329       30.785       15.783       14.669      947.711      249.110      215.180        0.561        0.071       98.601       15.884        0.026      333.652        3.107      862.627
12/02/2014  00:43:00      -63.524       -9.161       -3.546       36.057       18.315       14.655     1300.098      335.457      214.769        0.299        0.093       64.181       14.257        0.049      333.643        3.092      862.605
12/02/2014  00:44:00      -83.719      -22.021       -9.541       18.333       16.542       12.520      336.112      273.631      156.745        0.418        0.038       86.567       10.926        0.016      333.606        3.032      862.577
12/02/2014  00:45:00      -71.466      -30.927       -8.055       13.019       12.417        8.767      169.499      154.173       76.861        0.326        0.020       77.871        5.606        0.005      333.574        2.977      862.559
12/02/2014  00:46:00      -90.799      -23.713      -10.056       11.614       11.840        9.663      134.875      140.186       93.376        0.464        0.018       93.844        8.323        0.008      333.547        2.933      862.558
12/02/2014  00:47:00      -78.161      -20.372       -6.863       13.293       11.302        9.062      176.706      127.727       82.120        0.348        0.019       80.772        7.114        0.008      333.567        2.965      862.562
12/02/2014  00:48:00      -60.499      -17.168       -6.949       10.805       11.648       10.204      116.739      135.687      104.115        0.218        0.018       62.888        7.581        0.015      333.607        3.031      862.558
12/02/2014  00:49:00      -51.184      -37.501       -8.314       18.202       13.816        9.834      331.315      190.893       96.708        0.236        0.031       63.452        9.694        0.023      333.613        3.044      862.560
12/02/2014  00:50:00      -52.532      -30.227       -4.075       17.699       15.135        9.361      313.261      229.057       87.634        0.216        0.031       60.607        6.977        0.013      333.610        3.038      862.562
12/02/2014  00:51:00      -96.276      -36.235       -5.875       15.841       12.770        8.489      250.933      163.066       72.055        0.555        0.024      102.869        7.996        0.006      333.604        3.028      862.561
12/02/2014  00:52:00      -91.819      -31.628       -3.835       17.733       19.031        9.890      314.468      362.170       97.804        0.511        0.039       97.113        8.458        0.008      333.626        3.064      862.552
12/02/2014  00:53:00      -79.293      -42.216       -0.487       24.478       18.104       13.664      599.170      327.757      186.717        0.459        0.056       89.831       13.828        0.024      333.638        3.084      862.541
12/02/2014  00:54:00      -48.225       -9.329       -0.104       19.238       14.317        9.076      370.108      204.985       82.369        0.153        0.033       49.119        8.821        0.032      333.606        3.031      862.513
12/02/2014  00:55:00       -6.772       12.453        5.459        8.237        9.297       15.103       67.847       86.431      228.115        0.031        0.019       14.175        6.044        0.182      333.551        2.939      862.477
12/02/2014  00:56:00      -50.463        2.582       -9.905       19.781        4.885        7.860      391.302       23.861       61.773        0.156        0.024       50.529        9.037        0.032      333.625        3.062      862.424
12/02/2014  00:57:00      -94.863       -1.170       -9.418        8.353        6.737        8.226       69.779       45.390       67.668        0.464        0.009       94.871        3.587        0.001      333.688        3.168      862.364
12/02/2014  00:58:00      -74.164      -29.360       -4.100       19.882       18.129       10.796      395.309      328.666      116.557        0.361        0.042       79.764       10.743        0.018      333.666        3.130      862.336
12/02/2014  00:59:00      -53.403      -35.501       -1.687       23.978       11.259       11.766      574.957      126.766      138.440        0.248        0.042       64.127        7.637        0.014      333.621        3.056      862.320
12/02/2014  01:00:00      -55.746      -28.702       -0.125       18.611       13.244       15.731      346.384      175.410      247.477        0.235        0.038       62.701       15.894        0.064      333.652        3.107      862.327
12/02/2014  01:01:00      -57.423       -9.454       -0.778       25.857       13.846       10.084      668.602      191.725      101.680        0.217        0.048       58.196       11.215        0.037      333.563        2.961      862.338
12/02/2014  01:02:00      -67.766      -16.279       -0.688       23.508       13.830       10.479      552.612      191.273      109.818        0.286        0.043       69.694       11.200        0.026      333.509        2.871      862.334
12/02/2014  01:03:00      -74.783       -8.017       -1.691       32.005       15.761       14.787     1024.299      248.418      218.667        0.358        0.075       75.212       16.492        0.048      333.441        2.758      862.314
12/02/2014  01:04:00     -112.425        8.396      -13.784       12.127        9.705       10.014      147.052       94.185      100.274        0.662        0.017      112.738        5.426        0.002      333.447        2.766      862.283
12/02/2014  01:05:00      -98.827        7.572      -13.280       19.727       17.590       13.050      389.139      309.419      170.300        0.543        0.043       99.116        9.870        0.010      333.463        2.792      862.248
12/02/2014  01:06:00      -88.207      -11.241      -11.940       31.580       20.175       14.252      997.318      407.025      203.133        0.483        0.080       88.920       17.310        0.038      333.462        2.791      862.213
12/02/2014  01:07:00      -69.185      -34.618      -10.011       19.688       18.134       11.969      387.632      328.831      143.264        0.347        0.043       77.362        3.561        0.002      333.398        2.687      862.185
12/02/2014  01:08:00      -71.542      -21.088       -9.236       18.742       21.192       14.996      351.253      449.094      224.886        0.334        0.051       74.585       11.538        0.024      333.339        2.589      862.170
12/02/2014  01:09:00      -54.941      -23.729      -14.897       10.863       12.908       11.195      118.005      166.624      125.329        0.211        0.020       59.846        6.793        0.013      333.323        2.563      862.163
12/02/2014  01:10:00      -57.950      -28.333      -11.486       14.379       14.699       11.018      206.746      216.065      121.398        0.242        0.027       64.506        3.731        0.003      333.483        2.827      862.160
12/02/2014  01:11:00      -41.285      -30.021       -4.862       22.691       14.013       16.666      514.872      196.378      277.758        0.181        0.049       51.046        4.859        0.009      333.539        2.919      862.158
12/02/2014  01:12:00      -51.293      -28.336       -7.834       12.991       18.716       13.665      168.755      350.301      186.720        0.210        0.035       58.599        5.185        0.008      333.435        2.745      862.153
12/02/2014  01:13:00      -47.239      -34.364       -2.674       21.149       12.966       13.704      447.292      168.125      187.797        0.211        0.040       58.416       11.400        0.038      333.404        2.697      862.149
12/02/2014  01:14:00      -66.925      -25.212      -10.047       17.542       16.021       10.095      307.713      256.671      101.902        0.294        0.033       71.517        6.488        0.008      333.360        2.624      862.135
12/02/2014  01:15:00      -76.815      -18.027       -8.238       18.806       14.086       12.749      353.680      198.403      162.531        0.350        0.036       78.902       10.206        0.017      333.320        2.557      862.136
12/02/2014  01:16:00      -72.428      -27.234      -14.908       10.619       10.078        7.079      112.755      101.568       50.106        0.324        0.013       77.379        3.260        0.002      333.394        2.679      862.153
12/02/2014  01:17:00      -65.979      -31.329      -16.723       11.014       10.162        9.317      121.301      103.272       86.799        0.296        0.016       73.039        5.081        0.005      333.407        2.702      862.188
12/02/2014  01:18:00      -76.314      -30.874      -15.698        6.672        9.057        7.035       44.510       82.038       49.486        0.360        0.009       82.323        5.050        0.004      333.422        2.725      862.245
12/02/2014  01:19:00      -82.500      -18.272      -14.808       10.671       11.169       10.031      113.860      124.757      100.630        0.385        0.017       84.499        7.544        0.008      333.460        2.787      862.299
12/02/2014  01:20:00      -79.554      -20.010       -8.448       17.245       14.753        9.988      297.385      217.663       99.757        0.371        0.031       82.032        9.621        0.014      333.493        2.842      862.325
12/02/2014  01:21:00      -90.009      -38.162       -5.097        8.354       12.388        6.773       69.787      153.469       45.874        0.493        0.013       97.765        2.548        0.001      333.508        2.868      862.327
12/02/2014  01:22:00      -94.001      -37.693       -6.900       10.704       11.873        6.621      114.566      140.958       43.832        0.530        0.015      101.277        5.411        0.003      333.491        2.840      862.304
12/02/2014  01:23:00     -106.155      -38.722       -9.115       13.439       10.653        7.986      180.620      113.488       63.783        0.660        0.018      112.996        5.785        0.003      333.558        2.951      862.284
12/02/2014  01:24:00      -64.443      -28.949        4.245       27.610       13.613       15.683      762.309      185.318      245.956        0.310        0.060       70.647       16.387        0.054      333.585        2.995      862.275
12/02/2014  01:25:00      -76.053      -43.875       -1.301       19.649       16.756       14.048      386.091      280.748      197.336        0.429        0.043       87.801       11.835        0.018      333.626        3.064      862.275
12/02/2014  01:26:00      -57.045      -39.102        3.179       26.470       19.215       17.568      700.640      369.201      308.618        0.309        0.069       69.160       13.428        0.038      333.573        2.975      862.284
12/02/2014  01:27:00      -36.564      -24.370        5.720       22.496       17.428       15.024      506.077      303.726      225.728        0.150        0.052       43.941       12.476        0.081      333.520        2.887      862.292
12/02/2014  01:28:00      -38.456      -23.648        5.901       26.236       20.554       16.712      688.346      422.447      279.281        0.173        0.070       45.146       19.028        0.178      333.421        2.724      862.295
12/02/2014  01:29:00      -23.185      -15.596        3.272       16.575       20.469       12.982      274.745      418.999      168.535        0.083        0.043       27.942       10.521        0.142      333.454        2.779      862.292
12/02/2014  01:30:00      -44.188      -46.351       -0.675       18.815       22.458       14.836      354.008      504.378      220.101        0.259        0.054       64.039       10.251        0.026      333.518        2.885      862.285
12/02/2014  01:31:00      -62.271      -39.536        2.957       30.721       17.178       16.102      943.803      295.086      259.269        0.347        0.075       73.762       18.328        0.062      333.468        2.802      862.280
12/02/2014  01:32:00      -89.041      -41.515       -1.574       18.769       14.250       11.472      352.279      203.067      131.612        0.517        0.034       98.244        9.722        0.010      333.444        2.762      862.292
12/02/2014  01:33:00      -53.016      -39.276        0.538       35.497       16.651       14.519     1260.064      277.240      210.799        0.305        0.087       65.980       17.637        0.071      333.468        2.803      862.307
12/02/2014  01:34:00      -46.600      -30.267        2.863       23.012       16.397       14.780      529.562      268.847      218.441        0.206        0.051       55.567       13.444        0.059      333.434        2.745      862.325
12/02/2014  01:35:00      -37.063      -55.795        5.889       26.000       25.905       16.069      676.024      671.078      258.229        0.306        0.080       66.983       17.519        0.068      333.466        2.799      862.321
12/02/2014  01:36:00      -56.114      -41.168        5.078       18.367       26.191       11.392      337.359      685.949      129.769        0.301        0.058       69.596        7.839        0.013      333.486        2.832      862.320
12/02/2014  01:37:00      -58.689      -50.393       -3.940       12.072       24.193       10.985      145.737      585.283      120.669        0.343        0.043       77.355        3.411        0.002      333.554        2.944      862.310
12/02/2014  01:38:00      -55.992      -42.483       -9.269       24.828       16.785       13.123      616.440      281.729      172.211        0.305        0.054       70.284       10.268        0.021      333.547        2.933      862.300
12/02/2014  01:39:00      -50.876      -33.428       -1.839       31.118       15.324       11.178      968.358      234.813      124.952        0.252        0.066       60.875        8.318        0.019      333.525        2.897      862.294
12/02/2014  01:40:00      -55.910      -46.826        0.996       28.067       19.001       13.245      787.739      361.030      175.438        0.332        0.066       72.929       13.896        0.036      333.515        2.878      862.291
12/02/2014  01:41:00      -21.676      -46.842        9.454       37.846       22.055       18.766     1432.342      486.401      352.151        0.251        0.114       51.614       21.389        0.172      333.484        2.828      862.294
12/02/2014  01:42:00      -39.428      -42.264        2.351       21.779       25.136       16.032      474.314      631.833      257.028        0.235        0.068       57.800       13.571        0.055      333.450        2.772      862.308
12/02/2014  01:43:00      -68.190      -55.035       -1.278       32.477       21.911       17.039     1054.764      480.089      290.341        0.475        0.091       87.629       14.858        0.029      333.348        2.602      862.314
12/02/2014  01:44:00      -90.284      -60.162       -3.822       42.090       26.945       20.261     1771.534      726.009      410.507        0.735        0.145      108.493       14.271        0.017      333.336        2.583      862.313
12/02/2014  01:45:00     -110.678      -77.277       -4.113       33.049       25.197       18.786     1092.207      634.911      352.931        1.016        0.104      134.986       17.668        0.017      333.343        2.596      862.309
12/02/2014  01:46:00      -81.132      -75.432       -0.189       33.892       31.947       20.972     1148.667     1020.599      439.831        0.744        0.130      110.781       14.874        0.018      333.355        2.616      862.311
12/02/2014  01:47:00      -93.059      -74.267       -6.949       37.984       32.807       19.957     1442.766     1076.313      398.297        0.857        0.146      119.061       19.693        0.027      333.394        2.679      862.311
12/02/2014  01:48:00      -89.122      -61.145       -4.753       37.410       25.974       24.354     1399.531      674.665      593.111        0.719        0.133      108.081       22.666        0.044      333.413        2.710      862.315
12/02/2014  01:49:00     -103.174      -79.946      -11.608       36.366       20.834       18.525     1322.469      434.076      343.192        0.963        0.105      130.523       14.603        0.013      333.435        2.747      862.332
12/02/2014  01:50:00     -105.802      -99.355      -10.640       42.345       38.040       25.988     1793.108     1447.027      675.398        1.255        0.196      145.139       17.273        0.014      333.455        2.780      862.334
12/02/2014  01:51:00      -94.904     -100.198      -14.165       29.030       27.167       25.526      842.716      738.035      651.564        1.074        0.112      138.009       10.270        0.006      333.480        2.821      862.339
12/02/2014  01:52:00      -90.077      -78.274       -3.704       39.725       24.483       23.585     1578.113      599.429      556.238        0.849        0.137      119.335       16.273        0.019      333.481        2.823      862.332
12/02/2014  01:53:00      -85.064      -65.298       -1.978       38.949       32.395       21.018     1517.004     1049.421      441.750        0.726        0.150      107.237       14.778        0.019      333.479        2.821      862.293
12/02/2014  01:54:00      -22.178      -19.963        9.237       36.319       17.761       13.754     1319.059      315.468      189.176        0.140        0.091       29.839       15.901        0.284      333.504        2.861      862.245
12/02/2014  01:55:00      -60.524       -0.076       -6.980       21.021       23.378       13.505      441.878      546.549      182.377        0.244        0.059       60.524        9.103        0.023      333.401        2.691      862.186
12/02/2014  01:56:00      -84.201       -1.654       -9.546       20.708       11.687       10.357      428.807      136.576      107.274        0.393        0.034       84.218        9.394        0.012      333.330        2.572      862.145
12/02/2014  01:57:00      -60.727      -17.584       -4.369       16.159       14.792       10.029      261.103      218.809      100.572        0.230        0.029       63.222        6.727        0.011      333.258        2.452      862.141
12/02/2014  01:58:00      -79.859       -9.170       -7.190       21.562       10.651       11.045      464.907      113.445      121.997        0.361        0.035       80.384       10.165        0.016      333.238        2.420      862.150
12/02/2014  01:59:00      -69.427      -23.356       -0.569       26.046       17.999       12.281      678.380      323.955      150.829        0.326        0.058       73.250       11.641        0.025      333.275        2.482      862.162
12/02/2014  02:00:00      -77.648      -45.631       -2.069       18.987       17.471       14.280      360.491      305.239      203.926        0.449        0.043       90.063       11.002        0.015      333.383        2.662      862.175
12/02/2014  02:01:00      -49.270      -46.065       -0.039       32.677       16.384       15.546     1067.762      268.451      241.676        0.306        0.079       67.450       13.358        0.039      333.411        2.708      862.180
12/02/2014  02:02:00      -30.816      -25.671        4.166       28.732       23.221       18.847      825.520      539.204      355.213        0.167        0.086       40.108       16.620        0.172      333.383        2.663      862.180
12/02/2014  02:03:00      -65.562      -56.409        1.599       42.146       31.689       19.057     1776.303     1004.168      363.167        0.531        0.157       86.489       25.979        0.090      333.381        2.657      862.186
12/02/2014  02:04:00      -70.826      -39.320        1.974       42.009       32.779       23.969     1764.776     1074.474      574.508        0.499        0.171       81.008       19.333        0.057      333.379        2.656      862.198
12/02/2014  02:05:00      -87.356      -77.368       -4.187       48.672       46.148       26.268     2368.942     2129.680      690.019        0.941        0.259      116.691       26.533        0.052      333.367        2.637      862.209
12/02/2014  02:06:00     -119.772      -98.315      -11.821       43.728       28.500       19.112     1912.125      812.251      365.281        1.362        0.154      154.955       15.310        0.010      333.291        2.509      862.228
12/02/2014  02:07:00      -76.191      -74.882        3.200       61.551       32.632       29.676     3788.470     1064.828      880.638        0.858        0.287      106.829       29.548        0.077      333.313        2.547      862.236
12/02/2014  02:08:00      -65.197      -51.047       -2.534       41.328       33.693       18.716     1707.971     1135.199      350.284        0.503        0.160       82.804       10.209        0.015      333.325        2.566      862.255
12/02/2014  02:09:00      -85.963      -83.906       -4.569       48.187       41.429       29.642     2322.024     1716.322      878.662        0.968        0.246      120.124       29.492        0.060      333.315        2.549      862.253
12/02/2014  02:10:00      -99.049     -110.210       -9.071       30.095       35.170       20.593      905.687     1236.907      424.060        1.230        0.128      148.179       16.118        0.012      333.323        2.564      862.240
12/02/2014  02:11:00     -123.999      -98.787      -10.539       25.931       47.169       20.818      672.398     2224.913      433.372        1.429        0.167      158.539       12.352        0.006      333.262        2.461      862.212
12/02/2014  02:12:00     -117.275     -110.481      -14.203       35.398       22.374       23.269     1253.003      500.592      541.462        1.423        0.115      161.120       18.675        0.013      333.231        2.409      862.168
12/02/2014  02:13:00     -105.985      -43.786       -4.667       32.185       24.614       17.367     1035.868      605.866      301.606        0.756        0.097      114.673       15.812        0.019      333.241        2.425      862.108
12/02/2014  02:14:00      -88.164       -9.185       -5.158       26.952       20.003       15.297      726.407      400.113      233.991        0.462        0.068       88.641       12.971        0.021      333.205        2.366      862.055
12/02/2014  02:15:00      -88.672      -14.779       -3.698       22.798       15.258       15.645      519.762      232.809      244.762        0.455        0.050       89.895       13.993        0.024      333.151        2.276      862.023
12/02/2014  02:16:00      -76.494      -11.866       -4.631       23.470       16.143       12.077      550.839      260.606      145.849        0.349        0.048       77.409        4.733        0.004      333.117        2.222      862.028
12/02/2014  02:17:00      -49.126      -34.037        3.452       26.706       19.622       14.376      713.193      385.013      206.679        0.244        0.065       59.766       14.607        0.060      333.129        2.241      862.067
12/02/2014  02:18:00      -26.468      -25.121        3.406       23.296       15.635       12.046      542.711      244.457      145.109        0.114        0.047       36.491       13.591        0.139      333.181        2.326      862.118
12/02/2014  02:19:00      -55.829      -23.012       -3.331       17.135       16.973       11.154      293.595      288.066      124.419        0.218        0.035       60.386        8.939        0.022      333.232        2.411      862.151
12/02/2014  02:20:00      -78.108      -32.434       -8.749       22.260       19.163       11.685      495.513      367.239      136.534        0.411        0.050       84.575       10.536        0.016      333.192        2.344      862.154
12/02/2014  02:21:00      -86.698        9.590       -7.168       12.957       11.024       10.171      167.873      121.531      103.447        0.403        0.020       87.226        5.751        0.004      333.161        2.296      862.134
12/02/2014  02:22:00      -90.950       -6.350      -18.054       11.428       12.964       10.523      130.601      168.053      110.730        0.452        0.020       91.171        5.790        0.004      333.115        2.218      862.092
12/02/2014  02:23:00      -67.259      -20.453       -0.139       22.608       13.552       13.493      511.112      183.662      182.072        0.291        0.044       70.300       14.367        0.042      333.128        2.239      862.073
12/02/2014  02:24:00      -66.753      -12.790       -5.625       18.678       15.815       11.832      348.881      250.114      139.997        0.269        0.037       67.968        7.356        0.012      333.141        2.263      862.074
12/02/2014  02:25:00      -63.053       -7.244      -12.498       13.013        9.856       10.349      169.349       97.132      107.092        0.228        0.019       63.468        9.373        0.022      333.116        2.221      862.081
12/02/2014  02:26:00      -27.404       -9.340        4.094       12.356       14.436        8.288      152.677      208.399       68.693        0.064        0.021       28.952        6.512        0.051      333.117        2.222      862.091
12/02/2014  02:27:00      -24.803       -2.730        0.168       10.084        6.451        5.791      101.681       41.622       33.533        0.040        0.009       24.953        2.875        0.013      333.152        2.278      862.078
12/02/2014  02:28:00      -21.524        2.378       -1.580        6.474        8.071        5.635       41.910       65.139       31.757        0.031        0.007       21.655        5.057        0.055      333.185        2.332      862.048
12/02/2014  02:29:00      -47.813        8.426       -4.555       10.971        7.550        8.790      120.360       56.999       77.262        0.132        0.013       48.550        5.140        0.011      333.154        2.283      862.011
12/02/2014  02:30:00      -68.121        2.939       -9.284       13.806       12.014       11.262      190.595      144.326      126.830        0.260        0.023       68.185        9.100        0.018      333.159        2.291      861.967
12/02/2014  02:31:00      -86.733       -2.073       -8.636        8.836        9.143        8.014       78.083       83.589       64.230        0.391        0.011       86.757        3.533        0.002      333.115        2.220      861.946
12/02/2014  02:32:00      -67.172      -24.671       -8.636       13.355       13.612       10.936      178.343      185.290      119.586        0.284        0.024       71.559        7.066        0.010      333.029        2.077      861.935
12/02/2014  02:33:00      -72.179      -21.972      -10.855       10.480       10.835        7.923      109.820      117.387       62.775        0.305        0.014       75.449        4.921        0.004      333.003        2.033      861.936
12/02/2014  02:34:00      -48.202      -35.348       -7.607       19.241       15.084       13.561      370.230      227.517      183.909        0.221        0.039       59.774       10.790        0.033      333.021        2.064      861.958
12/02/2014  02:35:00      -37.928      -22.956       -0.221       20.987       12.338       12.201      440.467      152.217      148.862        0.135        0.037       44.334       11.226        0.064      332.994        2.019      861.983
12/02/2014  02:36:00      -36.069      -25.160        7.477       21.249       12.226       13.085      451.502      149.464      171.218        0.138        0.039       43.977       12.715        0.084      333.020        2.062      861.997
12/02/2014  02:37:00      -64.222      -37.774       -3.627       17.710       10.042       11.086      313.631      100.832      122.904        0.305        0.027       74.507       11.100        0.022      333.013        2.051      861.999
12/02/2014  02:38:00      -80.852      -31.060       -8.728        7.620        6.671        5.972       58.066       44.508       35.664        0.386        0.007       86.613        2.952        0.001      333.059        2.127      861.987
12/02/2014  02:39:00      -72.523      -27.391      -15.096        6.113        7.053        6.097       37.372       49.748       37.179        0.318        0.006       77.523        1.898        0.001      333.069        2.143      861.964
12/02/2014  02:40:00      -52.960      -21.006       -7.479        8.533        9.814        8.407       72.817       96.316       70.684        0.177        0.012       56.974        4.766        0.007      333.092        2.179      861.942
12/02/2014  02:41:00      -46.705      -19.271      -10.892        8.272        6.327        5.002       68.431       40.036       25.015        0.140        0.007       50.525        2.544        0.003      333.131        2.247      861.917
12/02/2014  02:42:00      -36.346      -17.258       -6.906        6.989        8.578        6.535       48.843       73.580       42.704        0.092        0.008       40.235        4.920        0.015      333.166        2.305      861.911
12/02/2014  02:43:00      -41.590      -12.348       -3.472        9.839        6.232        5.148       96.796       38.844       26.501        0.103        0.008       43.384        4.862        0.013      333.237        2.420      861.916
12/02/2014  02:44:00      -33.220       -9.570       -5.050       11.150        8.559        6.752      124.324       73.256       45.585        0.073        0.012       34.571        4.952        0.021      333.237        2.418      861.906
12/02/2014  02:45:00      -38.809       -7.961       -4.439       10.983        8.885        6.127      120.633       78.937       37.542        0.091        0.012       39.617        5.141        0.017      333.253        2.445      861.879
12/02/2014  02:46:00      -37.967       -5.059       -5.350       14.900        9.164        7.429      222.003       83.974       55.190        0.093        0.018       38.302        5.282        0.019      333.269        2.471      861.832
12/02/2014  02:47:00      -51.085        3.867      -13.987        8.384        7.635        6.635       70.298       58.291       44.029        0.150        0.009       51.231        3.914        0.006      333.260        2.455      861.778
12/02/2014  02:48:00      -63.741        3.515      -10.841        9.853        6.363        7.624       97.091       40.492       58.131        0.219        0.010       63.838        2.523        0.002      333.290        2.507      861.727
12/02/2014  02:49:00      -36.252       -6.571       -0.881       11.273        9.949        8.356      127.081       98.977       69.826        0.083        0.015       36.842        6.093        0.027      333.344        2.597      861.687
12/02/2014  02:50:00      -13.901        0.994        0.446        7.405        5.127        5.184       54.833       26.289       26.875        0.015        0.005       13.937        2.734        0.038      333.234        2.415      861.668
12/02/2014  02:51:00      -25.036       -7.921       -6.753        9.018        6.268        3.614       81.326       39.286       13.058        0.043        0.007       26.259        3.424        0.017      333.230        2.409      861.655
12/02/2014  02:52:00      -32.317      -18.238       -8.551        9.345        7.485        8.386       87.338       56.025       70.329        0.083        0.011       37.109        5.307        0.020      333.231        2.409      861.658
12/02/2014  02:53:00      -38.082      -25.917       -4.954       19.086       12.352       10.517      364.279      152.575      110.616        0.139        0.031       46.064        9.647        0.044      333.172        2.314      861.656
12/02/2014  02:54:00      -70.309      -26.263       -8.935       13.637       14.193        9.388      185.970      201.446       88.140        0.309        0.024       75.054        4.656        0.004      333.101        2.196      861.646
12/02/2014  02:55:00      -47.845      -19.357       -2.308       15.276       17.644       11.050      233.360      311.328      122.111        0.167        0.033       51.612        4.300        0.007      333.090        2.177      861.624
12/02/2014  02:56:00      -50.982      -16.300       -5.454       19.361       13.838        8.476      374.850      191.495       71.839        0.177        0.032       53.524        6.967        0.017      333.083        2.165      861.593
12/02/2014  02:57:00      -63.623        1.971       -7.422       14.512       15.725       11.713      210.589      247.284      137.188        0.235        0.030       63.653        7.483        0.014      333.099        2.193      861.574
12/02/2014  02:58:00      -56.770      -18.618       -7.688        9.079        6.151        6.145       82.433       37.832       37.761        0.189        0.008       59.745        3.773        0.004      333.218        2.387      861.569
12/02/2014  02:59:00      -38.953      -13.766       -1.669        9.923       10.370        8.008       98.461      107.540       64.135        0.099        0.014       41.314        5.296        0.016      333.216        2.384      861.585
12/02/2014  03:00:00      -48.113       -6.518       -5.706        7.184        9.599        7.044       51.615       92.143       49.613        0.129        0.010       48.553        4.229        0.008      333.214        2.380      861.583
12/02/2014  03:01:00      -56.954       -2.996       -8.584        5.833        4.525        6.285       34.026       20.475       39.506        0.171        0.005       57.033        1.891        0.001      333.242        2.428      861.571
12/02/2014  03:02:00      -60.519       -1.828       -7.758        6.989        8.498        5.928       48.844       72.218       35.141        0.194        0.008       60.547        2.895        0.002      333.285        2.497      861.542
12/02/2014  03:03:00      -54.373       -9.856       -8.236        8.327        8.670        6.289       69.342       75.173       39.545        0.165        0.009       55.259        3.981        0.005      333.292        2.509      861.529
12/02/2014  03:04:00      -33.479      -24.124       -1.319       21.541        8.992        8.191      464.036       80.856       67.090        0.116        0.031       41.265        8.955        0.047      333.328        2.570      861.531
12/02/2014  03:05:00       -3.168      -27.067       -0.160       18.089       14.805        8.620      327.219      219.175       74.297        0.068        0.031       27.251        9.107        0.112      333.341        2.592      861.545
12/02/2014  03:06:00      -16.873      -17.027        3.911       15.180       11.821       10.821      230.436      139.742      117.103        0.054        0.024       23.971        9.727        0.165      333.257        2.453      861.572
12/02/2014  03:07:00      -45.016      -16.031       -5.971        8.489        8.481        5.607       72.070       71.929       31.433        0.125        0.009       47.786        4.156        0.008      333.306        2.531      861.575
12/02/2014  03:08:00      -26.973      -19.466       -2.838       14.728       10.428        8.388      216.904      108.753       70.355        0.076        0.020       33.264        6.716        0.041      333.316        2.550      861.565
12/02/2014  03:09:00      -39.175      -16.334        0.808       12.401       12.010       10.519      153.787      144.250      110.641        0.111        0.020       42.444        8.139        0.037      333.284        2.497      861.546
12/02/2014  03:10:00      -60.048      -35.277        0.391       19.689       13.082       12.965      387.670      171.129      168.098        0.279        0.036       69.644       11.112        0.025      333.163        2.297      861.554
12/02/2014  03:11:00      -41.711      -23.536        7.996       32.463       23.811       17.378     1053.871      566.985      301.999        0.214        0.096       47.893       17.915        0.140      333.096        2.187      861.574
12/02/2014  03:12:00      -40.544      -34.519       10.668       37.693       32.097       19.314     1420.743     1030.246      373.024        0.289        0.141       53.248       22.696        0.182      333.089        2.175      861.588
12/02/2014  03:13:00      -46.397      -40.816       12.092       36.845       35.425       25.262     1357.546     1254.919      638.164        0.361        0.163       61.795       20.436        0.109      333.143        2.264      861.595
12/02/2014  03:14:00      -88.765      -62.717       -0.693       33.715       28.161       20.383     1136.682      793.069      415.462        0.708        0.117      108.686       17.141        0.025      333.152        2.279      861.589
12/02/2014  03:15:00      -46.916      -32.062        6.835       45.569       23.167       16.755     2076.531      536.716      280.733        0.308        0.145       56.825       15.852        0.078      333.124        2.232      861.586
12/02/2014  03:16:00      -36.104      -17.711       -1.680       27.387       15.547       12.433      750.057      241.725      154.581        0.138        0.057       40.214       12.289        0.093      333.085        2.169      861.580
12/02/2014  03:17:00      -56.621      -18.004       -7.135       11.612       11.007        6.791      134.837      121.153       46.119        0.194        0.015       59.414        4.333        0.005      333.025        2.069      861.584
12/02/2014  03:18:00      -33.258      -20.230       -3.487       17.043       12.448        7.410      290.459      154.962       54.908        0.101        0.025       38.928        6.324        0.026      333.129        2.241      861.600
12/02/2014  03:19:00      -19.025      -17.925       -4.487       11.266        9.654        8.103      126.921       93.190       65.653        0.049        0.014       26.139        0.892        0.001      333.186        2.334      861.624
12/02/2014  03:20:00      -47.577      -35.135       -1.833       18.763       15.562        9.834      352.049      242.175       96.714        0.210        0.035       59.144        6.921        0.014      333.062        2.131      861.641
12/02/2014  03:21:00      -58.750      -74.423        3.411       35.487       42.776       22.898     1259.311     1829.766      524.331        0.631        0.181       94.817       18.078        0.036      333.054        2.118      861.672
12/02/2014  03:22:00      -95.081      -72.171       -6.871       29.372       47.300       17.997      862.710     2237.271      323.887        0.886        0.171      119.369       18.144        0.023      333.026        2.072      861.689
12/02/2014  03:23:00      -39.866      -42.332        6.946       33.333       25.847       20.918     1111.074      668.090      437.552        0.282        0.111       58.149       20.187        0.121      333.066        2.139      861.680
12/02/2014  03:24:00      -60.842      -53.972       -2.526       20.428       31.256       12.271      417.321      976.950      150.580        0.408        0.077       81.330        9.667        0.014      333.091        2.178      861.642
12/02/2014  03:25:00      -62.851      -14.209       -4.322       14.326       16.320       10.889      205.229      266.342      118.568        0.238        0.030       64.437        6.420        0.010      333.070        2.143      861.596
12/02/2014  03:26:00      -56.166      -20.246       -1.513       20.016       16.792       12.983      400.655      281.986      168.551        0.221        0.043       59.703       11.608        0.038      333.072        2.147      861.572
12/02/2014  03:27:00      -35.506      -22.147        6.184       29.525       15.644       14.252      871.730      244.730      203.107        0.155        0.066       41.847       15.982        0.146      333.044        2.102      861.566
12/02/2014  03:28:00      -69.884      -26.955       -4.124       22.471       18.870       16.585      504.964      356.094      275.060        0.338        0.057       74.902       15.467        0.043      333.004        2.036      861.571
12/02/2014  03:29:00      -72.096      -17.644        0.609       35.275       18.054       15.048     1244.315      325.950      226.451        0.365        0.090       74.224       18.226        0.060      333.010        2.046      861.573
12/02/2014  03:30:00      -99.606      -32.811        0.693       29.375       18.801       15.847      862.908      353.466      251.138        0.623        0.073      104.871       17.828        0.029      332.948        1.942      861.571
12/02/2014  03:31:00     -105.390      -22.498       -1.559       18.657       22.168       13.706      348.072      491.413      187.846        0.632        0.051      107.764        7.929        0.005      332.954        1.952      861.575
12/02/2014  03:32:00     -101.455      -23.950       -3.903       18.129       14.067       14.386      328.678      197.892      206.963        0.581        0.037      104.243       10.256        0.010      332.946        1.940      861.574
12/02/2014  03:33:00      -81.981      -18.260        5.044       28.720       20.727       16.379      824.853      429.594      268.257        0.430        0.076       83.990       16.082        0.037      332.969        1.977      861.574
12/02/2014  03:34:00      -69.761      -20.207        4.068       31.320       20.628       16.336      980.947      425.508      266.856        0.348        0.084       72.628       15.913        0.048      332.952        1.949      861.567
12/02/2014  03:35:00      -98.067      -18.895       -6.544       24.741       17.487       14.586      612.140      305.796      212.749        0.557        0.057       99.871       12.809        0.016      332.944        1.936      861.551
12/02/2014  03:36:00      -89.426      -10.301       -3.991       19.089       16.867       13.992      364.397      284.510      195.781        0.448        0.042       90.017        9.895        0.012      332.956        1.957      861.532
12/02/2014  03:37:00      -81.922      -13.716       -3.792       28.872       20.205       18.220      833.604      408.255      331.979        0.424        0.079       83.063       16.268        0.038      332.944        1.936      861.525
12/02/2014  03:38:00     -101.844      -39.719       -3.359       22.250       19.081       14.775      495.060      364.070      218.288        0.652        0.054      109.315       13.234        0.015      332.951        1.948      861.516
12/02/2014  03:39:00      -98.748      -44.228       -0.493       37.320       28.448       14.022     1392.757      809.271      196.626        0.705        0.120      108.200       13.802        0.016      333.041        2.096      861.504
12/02/2014  03:40:00     -101.093      -42.775        5.425       33.318       24.520       19.931     1110.092      601.217      397.232        0.709        0.105      109.770       15.156        0.019      333.065        2.138      861.497
12/02/2014  03:41:00      -94.436      -35.532        2.283       30.907       19.116       15.061      955.273      365.410      226.826        0.587        0.077      100.899       16.981        0.028      333.115        2.219      861.501
12/02/2014  03:42:00      -80.603      -40.082        1.118       26.888       18.986       16.315      722.990      360.477      266.174        0.473        0.067       90.019       16.792        0.035      333.127        2.240      861.513
12/02/2014  03:43:00      -62.276      -39.354       -7.549       22.612       13.043       11.533      511.280      170.107      133.005        0.315        0.041       73.669       11.888        0.026      333.150        2.275      861.506
12/02/2014  03:44:00        8.690       -2.213       11.621       12.487       12.901        9.352      155.917      166.444       87.461        0.031        0.020        8.967        6.044        0.454      333.272        2.478      861.483
12/02/2014  03:45:00       -1.464        1.707        5.710        7.393        8.314        8.598       54.654       69.120       73.921        0.012        0.010        2.249        6.118        7.402      333.232        2.411      861.455
12/02/2014  03:46:00      -17.249       -7.239        2.633       11.344        7.093        7.480      128.694       50.309       55.950        0.030        0.012       18.706        5.298        0.080      333.212        2.378      861.428
12/02/2014  03:47:00      -14.262       -6.679       -1.560       12.897        6.260        4.965      166.342       39.184       24.654        0.024        0.012       15.749        5.450        0.120      333.211        2.377      861.401
12/02/2014  03:48:00      -30.301       -0.723      -14.004        4.172        3.506        4.654       17.402       12.294       21.658        0.058        0.003       30.309        1.525        0.003      333.223        2.394      861.371
12/02/2014  03:49:00      -33.306       11.402       -4.058       14.348        7.571        8.140      205.878       57.328       66.255        0.079        0.016       35.204        8.449        0.058      333.250        2.440      861.327
12/02/2014  03:50:00      -20.579       17.126        1.351       13.149       13.301       11.504      172.905      176.906      132.350        0.060        0.024       26.773        9.041        0.114      333.194        2.348      861.276
12/02/2014  03:51:00        2.479       15.130        6.571        7.333       19.008        9.952       53.769      361.296       99.049        0.040        0.026       15.332       10.228        0.445      333.153        2.281      861.250
12/02/2014  03:52:00        4.489       43.968       -8.960        6.476        7.243        3.699       41.940       52.457       13.684        0.107        0.005       44.197        2.034        0.002      333.180        2.325      861.239
12/02/2014  03:53:00        2.820       40.632        0.452        6.930        9.332        8.116       48.029       87.089       65.871        0.093        0.010       40.730        5.574        0.019      333.313        2.545      861.239
12/02/2014  03:54:00      -16.957        3.971       -2.569        8.041       19.958        5.353       64.651      398.341       28.655        0.040        0.025       17.416        3.068        0.031      333.238        2.421      861.235
12/02/2014  03:55:00      -36.776      -11.529       -3.725        9.290        8.141        7.003       86.304       66.276       49.040        0.085        0.010       38.540        5.404        0.020      333.169        2.306      861.223
12/02/2014  03:56:00      -27.496       -7.823        4.806       11.720        8.938        7.280      137.351       79.896       53.002        0.056        0.014       28.588        6.281        0.048      333.157        2.288      861.207
12/02/2014  03:57:00      -38.114      -21.884       -2.860       10.208        7.978        8.101      104.195       63.652       65.634        0.109        0.012       43.950        6.679        0.023      333.148        2.272      861.197
12/02/2014  03:58:00      -46.117       -6.542       -1.277       14.302       15.223       10.777      204.543      231.744      116.149        0.136        0.028       46.578        8.219        0.031      333.108        2.206      861.182
12/02/2014  03:59:00      -81.921       -2.467       -8.846       10.257        5.882        5.779      105.211       34.599       33.397        0.348        0.009       81.958        3.874        0.002      333.117        2.220      861.147
12/02/2014  04:00:00      -80.028       -7.437       -8.585       16.932        9.524        9.410      286.679       90.712       88.553        0.350        0.023       80.373        7.119        0.008      333.090        2.177      861.112
12/02/2014  04:01:00      -74.808      -12.185       -3.396       14.556       10.749       10.878      211.886      115.549      118.329        0.310        0.022       75.794        9.437        0.016      333.071        2.146      861.099
12/02/2014  04:02:00      -68.515      -22.882       -8.434       13.133       11.174        9.904      172.468      124.855       98.098        0.284        0.020       72.235        7.885        0.012      333.106        2.203      861.095
12/02/2014  04:03:00      -57.128      -24.763       -8.125       11.681       12.611        7.916      136.443      159.038       62.667        0.215        0.018       62.264        6.100        0.010      333.097        2.189      861.100
12/02/2014  04:04:00      -35.037       -9.295       -2.652       16.282       13.432        9.795      265.097      180.420       95.949        0.093        0.027       36.249       10.605        0.086      333.168        2.306      861.104
12/02/2014  04:05:00       -2.461       -0.264        6.201        8.698        6.066        4.294       75.660       36.796       18.438        0.009        0.007        2.476        3.046        1.514      333.190        2.343      861.104
12/02/2014  04:06:00       -3.187       10.342        8.349        5.044       10.628        8.197       25.446      112.951       67.198        0.020        0.010       10.822        6.912        0.408      333.223        2.395      861.114
12/02/2014  04:07:00       -5.533       22.918       33.018        9.071       14.136        8.365       82.292      199.817       69.971        0.100        0.018       23.576        6.913        0.086      333.262        2.459      861.126
12/02/2014  04:08:00        2.120       31.434       35.532       23.047       14.620       13.561      531.178      213.743      183.909        0.159        0.046       31.505       12.366        0.154      333.224        2.397      861.119
12/02/2014  04:09:00       12.341       14.897        3.374       12.613        9.926        8.749      159.095       98.522       76.545        0.036        0.017       19.344        5.661        0.086      333.157        2.286      861.076
12/02/2014  04:10:00       -4.766       26.747       -3.078        8.511       10.550        3.803       72.439      111.303       14.461        0.047        0.010       27.168        5.182        0.036      333.149        2.274      861.013
12/02/2014  04:11:00      -23.091       15.195       -0.670       14.675        8.659        8.919      215.367       74.981       79.554        0.057        0.018       27.642        8.088        0.086      333.202        2.363      860.957
12/02/2014  04:12:00      -28.831       27.055       -4.338       12.839        7.790        7.349      164.828       60.687       54.006        0.093        0.014       39.537        6.423        0.026      333.200        2.356      860.918
12/02/2014  04:13:00      -40.104       37.437       -6.171       12.715       15.317        9.204      161.682      234.620       84.723        0.176        0.024       54.863        5.813        0.011      333.076        2.155      860.887
12/02/2014  04:14:00      -46.880       47.586      -13.152       14.616       15.381        8.634      213.631      236.573       74.553        0.258        0.026       66.800        2.137        0.001      333.173        2.315      860.859
12/02/2014  04:15:00       -1.528       45.969        1.125       23.742       21.960       12.995      563.694      482.224      168.870        0.167        0.061       45.994       14.887        0.105      333.175        2.317      860.837
12/02/2014  04:16:00       20.973       51.005       -3.561       12.492       23.017       11.614      156.038      529.790      134.891        0.194        0.041       55.149        9.058        0.027      333.160        2.292      860.849
12/02/2014  04:17:00       70.969       27.321        2.475       16.608       18.193       15.030      275.818      330.992      225.910        0.331        0.042       76.046        9.905        0.017      333.154        2.284      860.873
12/02/2014  04:18:00       35.319       45.380       37.300       31.164       26.382       29.279      971.167      696.009      857.251        0.361        0.126       57.504       27.811        0.234      333.128        2.241      860.899
12/02/2014  04:19:00       60.028       45.471       19.780       14.155       13.416       18.966      200.365      179.997      359.706        0.340        0.037       75.306       11.794        0.025      333.145        2.267      860.896
12/02/2014  04:20:00       19.412       10.814       15.301       23.338       15.152        7.756      544.645      229.595       60.151        0.078        0.042       22.221        5.367        0.058      333.203        2.364      860.874
12/02/2014  04:21:00       17.351       12.386       14.503       14.245       13.819       10.317      202.922      190.951      106.433        0.058        0.025       21.318        6.313        0.088      333.229        2.404      860.839
12/02/2014  04:22:00       16.233       31.733       17.436       14.157       14.506        9.115      200.408      210.418       83.088        0.103        0.025       35.644        5.663        0.025      333.171        2.312      860.813
12/02/2014  04:23:00       27.764       32.804       19.255       14.067        9.922        9.728      197.868       98.454       94.636        0.130        0.020       42.976        5.611        0.017      333.133        2.247      860.793
12/02/2014  04:24:00       29.790       26.817        4.400        7.437        9.865        7.053       55.314       97.323       49.748        0.091        0.010       40.082        4.097        0.010      333.117        2.223      860.782
12/02/2014  04:25:00       20.542       11.233       -1.870        8.498        5.523        4.750       72.224       30.506       22.567        0.034        0.006       23.412        3.029        0.017      333.111        2.214      860.787
12/02/2014  04:26:00       10.935       12.618       -5.053        5.604        5.036        4.089       31.400       25.361       16.721        0.019        0.004       16.697        3.374        0.041      333.141        2.263      860.794
12/02/2014  04:27:00       14.742       15.507       -3.210        5.259        3.966        3.614       27.656       15.726       13.061        0.026        0.003       21.396        2.389        0.012      333.165        2.298      860.794
12/02/2014  04:28:00       22.092       23.141        1.020        4.992        6.604        4.694       24.924       43.611       22.032        0.056        0.005       31.993        4.075        0.016      333.173        2.313      860.782
12/02/2014  04:29:00       39.781       30.109        9.029        8.012        5.947        8.092       64.199       35.369       65.485        0.137        0.008       49.890        4.697        0.009      333.181        2.327      860.762
12/02/2014  04:30:00       43.037       33.870        6.728        8.122        6.971        7.578       65.968       48.595       57.423        0.161        0.009       54.767        3.978        0.005      333.178        2.321      860.747
12/02/2014  04:31:00       44.881       29.864        7.386        9.144        7.693        7.726       83.610       59.181       59.690        0.158        0.010       53.909        4.275        0.006      333.131        2.247      860.741
12/02/2014  04:32:00       46.347       34.289        4.481        7.851        7.687       11.074       61.632       59.097      122.638        0.179        0.012       57.652        6.723        0.014      333.149        2.272      860.727
12/02/2014  04:33:00       42.297       32.875       24.514       11.985        8.360       13.608      143.642       69.895      185.183        0.193        0.020       53.570        4.240        0.006      333.175        2.318      860.719
12/02/2014  04:34:00       47.002       37.153       19.588       12.756       10.383       13.881      162.722      107.805      192.683        0.222        0.023       59.913        8.254        0.019      333.157        2.290      860.711
12/02/2014  04:35:00       63.201       30.738       18.860       20.289       15.059       16.565      411.629      226.762      274.385        0.310        0.046       70.279       12.567        0.032      333.137        2.253      860.719
12/02/2014  04:36:00       65.050       20.743       23.539       30.050       23.289       23.720      902.998      542.372      562.644        0.361        0.100       68.277       20.259        0.088      333.115        2.218      860.741
12/02/2014  04:37:00       61.987       25.456       23.597       24.072       21.342       20.532      579.452      455.496      421.559        0.325        0.073       67.011       13.093        0.038      333.065        2.137      860.761
12/02/2014  04:38:00       45.844        9.118       22.519       20.467       17.585       19.404      418.908      309.245      376.523        0.190        0.055       46.742       15.769        0.114      333.117        2.222      860.784
12/02/2014  04:39:00       57.311       17.712       16.710       30.462       23.621       21.126      927.911      557.934      446.299        0.290        0.097       59.986       17.645        0.087      333.113        2.215      860.786
12/02/2014  04:40:00       67.374       38.625        6.295       15.590       15.872       16.136      243.037      251.932      260.363        0.341        0.038       77.660        8.734        0.013      333.036        2.088      860.791
12/02/2014  04:41:00       58.835       24.607       13.814       21.008       20.465       19.343      441.347      418.798      374.132        0.275        0.062       63.774        9.333        0.021      333.044        2.102      860.775
12/02/2014  04:42:00       47.025       35.657       34.410       32.554       29.203       19.316     1059.755      852.817      373.126        0.348        0.114       59.015       11.225        0.036      333.152        2.280      860.773
12/02/2014  04:43:00       -5.804       11.955       38.634       12.716       22.219       10.649      161.707      493.673      113.392        0.122        0.038       13.290       11.663        0.770      333.229        2.407      860.763
12/02/2014  04:44:00        6.379       15.169       37.630       17.014       14.745       11.796      289.470      217.409      139.150        0.117        0.032       16.455        7.164        0.190      333.238        2.421      860.764
12/02/2014  04:45:00       21.214       16.233       27.378       17.443       17.801       11.927      304.270      316.880      142.248        0.111        0.038       26.712        8.586        0.103      333.187        2.337      860.771
12/02/2014  04:46:00        5.497       11.439       32.438       15.839       23.105       17.275      250.860      533.860      298.416        0.115        0.054       12.692       14.248        1.260      333.208        2.372      860.779
12/02/2014  04:47:00       13.121       14.857       28.935       15.093       19.510       17.975      227.793      380.625      323.102        0.108        0.047       19.821       15.452        0.608      333.176        2.318      860.780
12/02/2014  04:48:00       -2.718       24.537       42.132       10.430       17.874        8.553      108.787      319.493       73.158        0.144        0.025       24.687        8.436        0.117      333.181        2.327      860.768
12/02/2014  04:49:00       12.664       30.884       36.178       16.664       16.775        9.137      277.699      281.405       83.486        0.153        0.032       33.379        3.829        0.013      333.145        2.268      860.743
12/02/2014  04:50:00       10.341       16.255       26.849       23.608       24.521       24.195      557.315      601.260      585.377        0.142        0.087       19.266       21.228        1.214      333.166        2.302      860.726
12/02/2014  04:51:00       22.230       16.814       28.297       17.879       21.051       15.099      319.663      443.130      227.990        0.128        0.050       27.873       12.357        0.197      333.169        2.307      860.713
12/02/2014  04:52:00       24.707      -32.139       -1.811       19.926       13.617       12.438      397.062      185.415      154.714        0.119        0.037       40.539        7.673        0.036      333.265        2.465      860.707
12/02/2014  04:53:00        8.405      -32.766      -16.134       22.642       25.062       15.981      512.682      628.086      255.402        0.140        0.070       33.826       14.001        0.171      333.292        2.511      860.705
12/02/2014  04:54:00       -3.120       -3.993       10.797       11.084        9.504        9.092      122.847       90.322       82.672        0.022        0.015        5.067        7.266        2.056      333.282        2.493      860.693
12/02/2014  04:55:00      -17.782       17.531       -0.781       18.127       19.737       13.375      328.587      389.550      178.900        0.076        0.045       24.971       14.355        0.330      333.229        2.406      860.672
12/02/2014  04:56:00        1.672       24.283        2.517       15.166       14.729       13.881      230.017      216.943      192.686        0.062        0.032       24.340       11.213        0.212      333.237        2.418      860.648
12/02/2014  04:57:00        6.040        2.639        8.704       11.059       10.319        9.522      122.307      106.489       90.671        0.022        0.016        6.591        5.923        0.808      333.237        2.419      860.632
12/02/2014  04:58:00       10.452        3.604        0.676       13.591       11.143        9.078      184.706      124.160       82.411        0.026        0.020       11.055        5.978        0.292      333.222        2.394      860.624
12/02/2014  04:59:00        2.377       -3.715        0.536       14.196       13.592        7.939      201.517      184.735       63.030        0.023        0.022        4.411        5.403        1.501      333.239        2.423      860.630
12/02/2014  05:00:00      -17.790       10.030        4.888       15.422       10.661       15.106      237.824      113.656      228.186        0.051        0.029       20.423       13.157        0.415      333.228        2.404      860.621
12/02/2014  05:01:00      -32.726       -2.519        4.790       18.145       15.398       11.232      329.252      237.106      126.149        0.090        0.035       32.822       10.635        0.105      333.210        2.374      860.622
12/02/2014  05:02:00      -39.990      -44.560       -4.596       38.397       17.153       14.158     1474.322      294.242      200.452        0.279        0.098       59.873       10.187        0.029      333.240        2.426      860.603
12/02/2014  05:03:00      -43.377       -1.292       -1.953       17.938       26.906       13.613      321.760      723.948      185.316        0.156        0.062       43.396        8.490        0.038      333.193        2.348      860.573
12/02/2014  05:04:00      -60.175       29.107       -7.285       25.934       14.596       12.240      672.590      213.042      149.826        0.278        0.052       66.845       11.842        0.031      333.062        2.131      860.541
12/02/2014  05:05:00      -81.793       41.871      -16.705       15.009       21.363       13.326      225.277      456.381      177.572        0.479        0.043       91.887       11.088        0.015      333.042        2.099      860.508
12/02/2014  05:06:00      -85.880       36.769      -12.252       20.383       16.768       13.904      415.486      281.149      193.335        0.488        0.044       93.420       10.520        0.013      333.030        2.077      860.478
12/02/2014  05:07:00      -97.288       22.508      -11.957       16.837       13.268       11.783      283.475      176.033      138.838        0.536        0.030       99.858        8.594        0.007      333.048        2.109      860.441
12/02/2014  05:08:00      -44.964       25.956      -12.728       16.279       19.480       13.890      264.993      379.487      192.920        0.185        0.042       51.918       11.415        0.048      333.068        2.141      860.417
12/02/2014  05:09:00      -55.026       33.228      -10.585       13.935       24.282       12.235      194.173      589.592      149.693        0.259        0.047       64.280        7.529        0.014      333.120        2.227      860.405
12/02/2014  05:10:00      -64.656       46.034      -18.882       11.262       20.156       10.402      126.841      406.273      108.198        0.365        0.032       79.369        9.050        0.013      333.053        2.115      860.408
12/02/2014  05:11:00      -72.651       39.195      -13.809       16.595       16.056       13.257      275.409      257.795      175.737        0.386        0.035       82.549       12.510        0.023      333.111        2.214      860.397
12/02/2014  05:12:00      -65.090       65.802      -22.078       10.868       26.025       13.173      118.119      677.324      173.529        0.501        0.048       92.556        9.772        0.011      333.063        2.133      860.365
12/02/2014  05:13:00      -66.846       54.629      -11.221       18.022       52.557       17.254      324.776     2762.266      297.692        0.548        0.169       86.329        9.837        0.013      333.125        2.236      860.318
12/02/2014  05:14:00      -88.772      -15.222      -10.886       25.040       20.292       14.218      627.008      411.757      202.161        0.474        0.062       90.068       12.080        0.018      333.017        2.054      860.271
12/02/2014  05:15:00     -100.576      -13.293       -5.076       42.419       22.919       21.416     1799.367      525.278      458.640        0.655        0.139      101.450       26.774        0.070      332.975        1.986      860.221
12/02/2014  05:16:00     -137.324      -22.180      -20.591       21.304       21.470       15.213      453.861      460.979      231.437        1.046        0.057      139.104        7.758        0.003      332.931        1.913      860.185
12/02/2014  05:17:00     -102.643      -19.369      -14.105       42.113       30.270       14.633     1773.542      916.264      214.123        0.701        0.145      104.454       15.574        0.022      332.929        1.911      860.158
12/02/2014  05:18:00     -133.725      -12.184      -16.520       17.593       18.004       16.427      309.509      324.135      269.857        0.960        0.045      134.279        6.822        0.003      332.929        1.912      860.141
12/02/2014  05:19:00     -127.175       -3.590      -13.482       23.676       16.809       17.375      560.543      282.559      301.908        0.876        0.057      127.225       12.778        0.010      332.936        1.922      860.132
12/02/2014  05:20:00     -126.771      -25.177      -16.156       24.928       20.356       10.690      621.417      414.358      114.272        0.906        0.058      129.247        8.193        0.004      332.938        1.924      860.131
12/02/2014  05:21:00      -33.341      -23.911        2.293       38.821       28.478       21.861     1507.102      810.969      477.890        0.224        0.140       41.028       25.482        0.386      333.046        2.105      860.138
12/02/2014  05:22:00      -46.149        3.695      -13.948       14.236       16.733        9.533      202.677      280.004       90.873        0.146        0.029       46.297        5.047        0.012      333.026        2.071      860.156
12/02/2014  05:23:00      -40.738      -16.584       -2.699       16.328       15.340       12.667      266.600      235.309      160.452        0.130        0.033       43.984       10.699        0.059      333.074        2.150      860.163
12/02/2014  05:24:00      -10.787      -27.292       -1.542       18.794       18.103       14.473      353.205      327.717      209.478        0.088        0.045       29.347       10.469        0.127      333.168        2.306      860.163
12/02/2014  05:25:00      -55.407      -34.956       -2.926       36.462       16.741       12.132     1329.479      280.263      147.185        0.303        0.088       65.513       14.788        0.051      333.200        2.358      860.152
12/02/2014  05:26:00      -42.921      -19.234        2.680       33.746       16.366       13.254     1138.769      267.851      175.673        0.190        0.079       47.033       11.075        0.055      333.234        2.414      860.148
12/02/2014  05:27:00      -15.075      -21.945       12.736       25.491       25.854       21.399      649.767      668.450      457.934        0.132        0.089       26.624       17.602        0.437      333.300        2.524      860.151
12/02/2014  05:28:00      -32.195      -20.156       -2.466       23.428       16.933       14.047      548.880      286.734      197.304        0.124        0.052       37.983       10.395        0.075      333.253        2.446      860.167
12/02/2014  05:29:00      -44.774      -19.143        0.042       16.389        9.777       11.515      268.609       95.589      132.592        0.143        0.025       48.695        4.217        0.007      333.249        2.439      860.178
12/02/2014  05:30:00      -28.389      -30.663       -2.118       19.358       14.318       13.164      374.716      205.011      173.292        0.125        0.038       41.787        8.982        0.046      333.266        2.467      860.165
12/02/2014  05:31:00      -19.019      -11.340        4.565       25.506       17.053       17.840      650.536      290.801      318.259        0.089        0.063       22.143       17.144        0.599      333.310        2.541      860.151
12/02/2014  05:32:00       -0.769      -26.727       -4.711       14.474       15.637       12.200      209.504      244.526      148.831        0.067        0.030       26.738        8.822        0.109      333.399        2.688      860.148
12/02/2014  05:33:00      -31.071      -22.410        0.515       28.731       12.422       12.271      825.462      154.300      150.565        0.130        0.057       38.310        9.077        0.056      333.365        2.632      860.137
12/02/2014  05:34:00      -27.787      -18.157        3.918       22.232       16.674       10.752      494.249      278.023      115.614        0.100        0.044       33.193        8.667        0.068      333.370        2.641      860.127
12/02/2014  05:35:00        5.313      -10.056        7.856       11.343       13.168       10.761      128.666      173.409      115.800        0.030        0.021       11.373        5.220        0.211      333.445        2.763      860.119
12/02/2014  05:36:00      -12.137      -21.373        5.861       13.851       13.290       10.543      191.848      176.613      111.159        0.056        0.024       24.579        5.151        0.044      333.443        2.761      860.113
12/02/2014  05:37:00      -12.672      -20.324       -6.739       18.180       17.982       11.566      330.529      323.336      133.784        0.070        0.039       23.951        7.604        0.101      333.417        2.718      860.114
12/02/2014  05:38:00      -21.490       -4.922       10.212       24.607       16.359       15.306      605.515      267.617      234.274        0.085        0.055       22.047        9.543        0.187      333.370        2.640      860.091
12/02/2014  05:39:00      -15.548        1.245        7.392       19.515       21.760       16.230      380.832      473.493      263.424        0.071        0.056       15.597       14.340        0.845      333.362        2.628      860.075
12/02/2014  05:40:00       -6.910      -16.043        0.841       24.884       21.878       15.087      619.238      478.630      227.617        0.082        0.066       17.468       15.060        0.743      333.400        2.688      860.055
12/02/2014  05:41:00      -11.870       -6.230        4.790       12.706        9.318       10.166      161.437       86.819      103.344        0.028        0.018       13.406        9.889        0.544      333.400        2.690      860.026
12/02/2014  05:42:00      -38.476      -10.400       -2.570       16.363       10.225        7.074      267.760      104.555       50.044        0.101        0.021       39.857        4.942        0.015      333.406        2.698      859.979
12/02/2014  05:43:00      -23.878        3.180        4.030       21.111       16.356        9.968      445.684      267.510       99.355        0.070        0.041       24.089       10.744        0.199      333.399        2.691      859.918
12/02/2014  05:44:00       -5.726       15.607       10.283       18.729       19.255       10.517      350.765      370.765      110.598        0.061        0.042       16.624       11.531        0.481      333.386        2.668      859.842
12/02/2014  05:45:00       -1.270       70.527       -7.371        6.570        9.848        6.745       43.166       96.982       45.493        0.261        0.009       70.539        2.835        0.002      333.349        2.607      859.772
12/02/2014  05:46:00      -12.386       37.662        1.646       17.415       24.884       12.071      303.266      619.234      145.718        0.132        0.053       39.647       12.404        0.098      333.384        2.664      859.700
12/02/2014  05:47:00      -55.456       33.676      -10.236       34.346       23.976       14.908     1179.647      574.858      222.249        0.315        0.099       64.880       13.514        0.043      333.347        2.603      859.632
12/02/2014  05:48:00      -78.619       33.064      -13.110       20.719       16.589       13.118      429.261      275.185      172.093        0.416        0.044       85.289        8.947        0.011      333.306        2.536      859.573
12/02/2014  05:49:00      -90.096       19.669       -8.637       19.310       20.623       12.763      372.868      425.302      162.898        0.477        0.048       92.218        6.150        0.004      333.309        2.541      859.522
12/02/2014  05:50:00     -105.835       11.310      -17.816       24.055       19.661       13.718      578.651      386.546      188.187        0.640        0.058      106.438       11.092        0.011      333.258        2.455      859.491
12/02/2014  05:51:00      -45.450        8.744       -3.701       17.590       25.787       17.413      309.421      664.991      303.227        0.172        0.064       46.284       11.197        0.059      333.251        2.442      859.473
12/02/2014  05:52:00      -40.400       -3.581       -3.970       10.078       14.642        7.417      101.569      214.376       55.007        0.102        0.019       40.559        3.741        0.009      333.326        2.569      859.460
12/02/2014  05:53:00      -33.981       33.950       -3.711       12.883       16.373       10.643      165.965      268.071      113.270        0.143        0.027       48.034        3.790        0.006      333.348        2.603      859.434
12/02/2014  05:54:00      -65.769       -7.392       -6.679       21.388       27.344       11.357      457.445      747.707      128.971        0.288        0.067       66.183        8.862        0.018      333.287        2.501      859.412
12/02/2014  05:55:00      -41.010      -11.479       -1.912       17.064       24.984       15.123      291.182      624.210      228.708        0.148        0.057       42.587       10.255        0.058      333.285        2.497      859.396
12/02/2014  05:56:00      -13.729      -13.448        1.561       11.067        6.603        8.238      122.474       43.604       67.864        0.030        0.012       19.218        6.117        0.101      333.258        2.453      859.392
12/02/2014  05:57:00      -12.431        0.183        4.766       14.563        6.536        7.431      212.091       42.718       55.221        0.024        0.016       12.433        8.878        0.510      333.241        2.424      859.391
12/02/2014  05:58:00       11.630       18.744       -4.012       16.287       14.627        8.261      265.280      213.959       68.246        0.052        0.027       22.059        5.826        0.070      333.194        2.350      859.392
12/02/2014  05:59:00       21.405       17.525      -10.245        7.320        9.022        7.672       53.587       81.390       58.858        0.053        0.010       27.664        4.626        0.028      333.165        2.301      859.393
12/02/2014  06:00:00       24.335       18.409       -1.034        9.736        8.382        7.204       94.796       70.258       51.899        0.057        0.011       30.513        4.159        0.019      333.129        2.242      859.394
12/02/2014  06:01:00        9.314        7.944        0.661        9.871       12.461        8.438       97.428      155.275       71.208        0.024        0.016       12.241        8.322        0.462      333.153        2.283      859.420
12/02/2014  06:02:00        1.470       -7.330        6.941       11.524       10.884        9.320      132.798      118.470       86.855        0.022        0.017        7.476        8.204        1.204      333.172        2.312      859.458
12/02/2014  06:03:00        3.329      -30.110       -4.759       13.491       12.269       13.325      182.007      150.535      177.551        0.073        0.026       30.293        8.944        0.087      333.230        2.407      859.517
12/02/2014  06:04:00      -12.288      -30.604       -8.306       34.413       18.964       14.204     1184.276      359.617      201.749        0.145        0.087       32.979        4.966        0.023      333.275        2.483      859.578
12/02/2014  06:05:00       -0.830      -16.761       14.917       23.778       20.483       17.745      565.388      419.540      314.891        0.090        0.065       16.782       12.983        0.599      333.302        2.528      859.630
12/02/2014  06:06:00      -42.416      -39.555       13.164       49.705       31.188       24.825     2470.542      972.722      616.280        0.380        0.203       57.997       16.616        0.082      333.299        2.524      859.691
12/02/2014  06:07:00      -41.480      -36.989       11.652       39.010       50.054       23.635     1521.783     2505.413      558.621        0.390        0.229       55.577       22.104        0.158      333.250        2.440      859.763
12/02/2014  06:08:00      -83.267      -44.038        9.831       45.521       36.955       33.404     2072.181     1365.686     1115.838        0.676        0.228       94.195       26.382        0.078      333.227        2.403      859.847
12/02/2014  06:09:00      -31.150      -28.974        6.395       39.635       41.231       23.232     1570.963     1700.016      539.707        0.283        0.191       42.542       19.645        0.213      333.273        2.480      859.936
12/02/2014  06:10:00      -62.179      -59.302        7.755       46.014       43.357       29.940     2117.296     1879.848      896.380        0.617        0.245       85.924       29.317        0.116      333.291        2.509      860.032
12/02/2014  06:11:00     -105.064      -64.389       -3.661       59.017       50.159       31.211     3483.017     2515.953      974.140        1.108        0.349      123.225       25.680        0.043      333.282        2.494      860.101
12/02/2014  06:12:00      -71.136      -69.030       15.325       77.655       53.904       33.959     6030.255     2905.591     1153.237        1.007        0.504       99.123       40.868        0.170      333.224        2.397      860.140
12/02/2014  06:13:00      -72.456      -44.063       -1.726       51.955       38.837       24.165     2699.310     1508.345      583.968        0.599        0.240       84.802       14.167        0.028      333.218        2.388      860.170
12/02/2014  06:14:00      -74.015      -53.034        4.146       49.985       39.213       22.774     2498.548     1537.659      518.648        0.643        0.228       91.054       22.013        0.058      333.142        2.263      860.220
12/02/2014  06:15:00      -86.019      -74.577       -0.595       42.415       45.460       24.877     1799.028     2066.605      618.876        0.872        0.224      113.847       24.760        0.047      333.206        2.369      860.275
12/02/2014  06:16:00      -88.406     -109.152       -6.861       46.520       31.141       22.271     2164.106      969.753      496.015        1.170        0.181      140.462       16.496        0.014      333.181        2.326      860.333
12/02/2014  06:17:00     -110.949      -87.530        2.069       50.965       67.294       36.757     2597.461     4528.544     1351.084        1.422        0.424      141.320       42.804        0.092      333.106        2.204      860.357
12/02/2014  06:18:00     -103.858      -69.801        1.387       38.641       38.256       28.370     1493.098     1463.536      804.836        0.971        0.188      125.135       22.096        0.031      333.135        2.253      860.345
12/02/2014  06:19:00      -81.695      -50.742       -8.138       36.302       38.398       20.008     1317.837     1474.439      400.327        0.625        0.160       96.170       14.192        0.022      333.163        2.298      860.331
12/02/2014  06:20:00      -86.319      -67.422       -2.542       34.626       28.071       21.181     1198.928      787.975      448.640        0.722        0.122      109.530       21.351        0.038      333.191        2.345      860.346
12/02/2014  06:21:00      -93.472      -56.182       -4.340       40.480       30.565       21.005     1638.650      934.190      441.191        0.746        0.151      109.057       19.884        0.033      333.216        2.386      860.386
12/02/2014  06:22:00      -76.967      -86.696       -2.548       44.420       36.075       24.216     1973.140     1301.420      586.422        0.865        0.193      115.931       24.189        0.044      333.254        2.446      860.446
12/02/2014  06:23:00      -95.787      -81.422       -0.913       46.648       33.006       27.514     2176.065     1089.366      757.001        0.991        0.201      125.716       25.232        0.040      333.236        2.417      860.473
12/02/2014  06:24:00      -76.081      -45.015        0.152       36.929       29.303       18.960     1363.771      858.690      359.479        0.520        0.129       88.401       19.465        0.048      333.230        2.408      860.467
12/02/2014  06:25:00      -64.973      -28.159       -0.565       24.384       22.860       18.871      594.557      522.574      356.126        0.324        0.074       70.812       12.955        0.033      333.247        2.436      860.414
12/02/2014  06:26:00      -42.613      -22.526       -7.894       17.412       17.103       11.182      303.188      292.506      125.043        0.155        0.036       48.201       13.440        0.078      333.227        2.402      860.353
12/02/2014  06:27:00      -24.108        2.340        5.756       30.595       18.512       18.986      936.036      342.689      360.485        0.113        0.082       24.221       19.146        0.625      333.267        2.469      860.291
12/02/2014  06:28:00       24.464       66.605       -3.663       23.198       36.219       19.832      538.162     1311.833      393.289        0.365        0.112       70.956       22.585        0.101      333.215        2.382      860.234
12/02/2014  06:29:00       42.141       48.477       -4.316       26.654       36.778       19.406      710.411     1352.632      376.611        0.329        0.122       64.233       20.750        0.104      333.200        2.357      860.182
12/02/2014  06:30:00       36.926       43.711       -2.423       27.627       32.007       16.121      763.265     1024.451      259.891        0.266        0.102       57.220       16.809        0.086      333.170        2.309      860.119
12/02/2014  06:31:00       34.315       64.067       -7.745       32.403       33.635       22.463     1049.976     1131.286      504.600        0.401        0.134       72.678       18.188        0.063      333.097        2.188      860.075
12/02/2014  06:32:00       36.208       64.156       -4.983       21.373       38.861       22.317      456.822     1510.178      498.050        0.396        0.123       73.668       22.644        0.094      333.085        2.167      860.050
12/02/2014  06:33:00       42.538       62.084       -1.703       33.023       33.718       23.715     1090.497     1136.907      562.415        0.423        0.139       75.259        9.294        0.015      333.073        2.149      860.052
12/02/2014  06:34:00       43.858       59.667       -5.672       32.665       36.173       21.163     1067.027     1308.522      447.867        0.417        0.141       74.052       18.052        0.059      333.069        2.144      860.082
12/02/2014  06:35:00       42.967       61.069       -6.458       33.697       26.217       21.651     1135.502      687.312      468.766        0.395        0.115       74.670       17.518        0.055      333.081        2.164      860.136
12/02/2014  06:36:00       46.820       34.617       -3.992       26.339       17.063       20.496      693.754      291.136      420.100        0.241        0.070       58.228       15.526        0.071      333.100        2.195      860.180
12/02/2014  06:37:00       67.716       39.274        8.653       20.271       17.400       17.233      410.902      302.745      296.960        0.361        0.051       78.281        9.303        0.014      333.111        2.212      860.211
12/02/2014  06:38:00       31.809       40.419        1.660       24.943       30.651       24.106      622.134      939.506      581.080        0.240        0.107       51.435       20.640        0.161      333.114        2.217      860.216
12/02/2014  06:39:00       74.954       46.132        8.590       17.474       17.325       14.904      305.354      300.144      222.141        0.432        0.041       88.012       10.963        0.016      333.110        2.213      860.219
12/02/2014  06:40:00       21.368       36.534        1.699       21.705       14.902        9.206      471.102      222.065       84.745        0.129        0.039       42.324        6.787        0.026      333.101        2.196      860.218
12/02/2014  06:41:00       26.675       35.309        1.399       18.613       12.991       10.479      346.452      168.754      109.803        0.129        0.031       44.252        8.505        0.037      333.120        2.227      860.222
12/02/2014  06:42:00       63.917       39.426        4.342       21.167       12.993       15.712      448.029      168.821      246.860        0.326        0.043       75.098       10.074        0.018      333.125        2.235      860.233
12/02/2014  06:43:00       58.041       51.873       20.978       21.509       13.450       22.038      462.651      180.896      485.691        0.381        0.056       77.843       11.978        0.024      333.089        2.176      860.257
12/02/2014  06:44:00       27.838       51.573       50.350       19.522       20.435       14.144      381.119      417.590      200.042        0.348        0.050       58.606        5.242        0.008      333.130        2.244      860.267
12/02/2014  06:45:00       73.947       38.180       15.107       15.417       14.923       17.152      237.683      222.704      294.199        0.395        0.038       83.221       10.404        0.016      333.081        2.162      860.255
12/02/2014  06:46:00       67.243       48.921       24.929       25.277       11.714       19.265      638.918      137.221      371.123        0.434        0.057       83.156       15.919        0.037      333.080        2.160      860.225
12/02/2014  06:47:00       76.331       41.482        3.810       22.538       13.834       17.131      507.954      191.373      293.471        0.428        0.050       86.875        9.119        0.011      333.079        2.157      860.203
12/02/2014  06:48:00       66.665       38.740        1.735       14.858       11.351        9.791      220.755      128.855       95.869        0.320        0.022       77.104        6.491        0.007      333.082        2.164      860.214
12/02/2014  06:49:00       78.183       31.784        2.311       18.110       16.272       15.204      327.969      264.770      231.172        0.398        0.041       84.397        8.518        0.010      333.119        2.226      860.265
12/02/2014  06:50:00       74.882       45.183        9.388       18.392       12.629       18.780      338.272      159.485      352.684        0.429        0.043       87.457        9.960        0.013      333.140        2.261      860.328
12/02/2014  06:51:00       70.190       37.690        9.852       17.149       12.972       16.737      294.089      168.285      280.112        0.359        0.037       79.669       11.306        0.020      333.142        2.262      860.372
12/02/2014  06:52:00       39.889       50.040       34.127       21.596       17.631       19.759      466.402      310.866      390.416        0.321        0.058       63.994       14.699        0.053      333.126        2.234      860.370
12/02/2014  06:53:00       42.812       29.663        6.994       13.412       12.507       10.586      179.892      156.415      112.055        0.160        0.022       52.084        8.755        0.028      333.099        2.191      860.345
12/02/2014  06:54:00       31.030       32.740        8.842       16.374       10.037        7.997      268.120      100.734       63.951        0.127        0.022       45.108        7.321        0.026      333.102        2.199      860.321
12/02/2014  06:55:00       29.557       23.454        0.867        6.978       10.038        9.689       48.694      100.755       93.875        0.083        0.012       37.732        8.316        0.049      333.058        2.125      860.338
12/02/2014  06:56:00       27.237        4.831        0.721        8.037        5.558        8.167       64.588       30.893       66.706        0.046        0.008       27.662        4.323        0.024      333.104        2.201      860.387
12/02/2014  06:57:00       17.146       45.102       -8.254       11.489       14.241        8.276      132.005      202.807       68.499        0.140        0.020       48.251        6.686        0.019      333.102        2.198      860.435
12/02/2014  06:58:00       36.076       31.949       -1.287       13.892       16.413       13.361      192.984      269.373      178.507        0.148        0.032       48.189       11.426        0.056      333.104        2.200      860.468
12/02/2014  06:59:00       18.088       40.768        1.713       19.435       13.468       12.036      377.705      181.394      144.868        0.135        0.035       44.601       13.380        0.090      333.122        2.232      860.482
12/02/2014  07:00:00       -1.467       54.607      -10.204        7.071       11.103        8.727       50.000      123.282       76.168        0.167        0.012       54.627        5.120        0.009      333.132        2.249      860.492
12/02/2014  07:01:00        0.653       59.089      -10.349        4.369        5.789        4.445       19.090       33.510       19.759        0.184        0.004       59.092        2.091        0.001      333.137        2.256      860.501
12/02/2014  07:02:00       10.689       44.304       -6.492        5.912       14.101        4.967       34.955      198.834       24.670        0.119        0.013       45.575        6.677        0.021      333.161        2.295      860.515
12/02/2014  07:03:00       -4.782       13.322        7.562       21.316       14.738       10.565      454.360      217.210      111.617        0.052        0.039       14.155        9.443        0.445      333.231        2.409      860.547
12/02/2014  07:04:00      -19.629       15.919        1.707       17.221       11.342        9.309      296.577      128.645       86.653        0.058        0.026       25.273        7.238        0.082      333.202        2.361      860.599
12/02/2014  07:05:00      -30.078        3.974        2.799       14.656       14.052        8.837      214.802      197.451       78.097        0.071        0.025       30.339        8.128        0.072      333.259        2.455      860.650
12/02/2014  07:06:00      -63.810       19.266       -5.225        9.960        6.767        7.711       99.208       45.791       59.459        0.234        0.010       66.655        3.411        0.003      333.254        2.448      860.686
12/02/2014  07:07:00      -51.423       15.271       -3.234       20.151       11.880       10.083      406.053      141.134      101.661        0.177        0.032       53.643        9.513        0.031      333.252        2.444      860.685
12/02/2014  07:08:00      -65.422        8.012       -4.323       14.864       10.587        7.316      220.934      112.084       53.528        0.237        0.019       65.911        6.008        0.008      333.281        2.493      860.658
12/02/2014  07:09:00      -75.839       -3.591       -7.662       11.751       15.932       11.855      138.077      253.819      140.546        0.318        0.027       75.924        6.774        0.008      333.315        2.550      860.617
12/02/2014  07:10:00      -59.609        8.810       -0.883       14.088       16.427        8.878      198.479      269.862       78.823        0.209        0.027       60.256        4.574        0.006      333.349        2.606      860.557
12/02/2014  07:11:00      -40.828        7.437       -0.834       19.212       18.405       11.259      369.111      338.733      126.775        0.128        0.042       41.499        8.461        0.042      333.380        2.657      860.497
12/02/2014  07:12:00      -64.272       -1.478      -11.026       18.567       17.210        8.417      344.740      296.189       70.847        0.248        0.036       64.289        7.740        0.014      333.392        2.676      860.462
12/02/2014  07:13:00      -57.938       -6.780       -8.086       17.796       17.521       14.103      316.700      306.992      198.906        0.215        0.041       58.334       10.437        0.032      333.325        2.566      860.458
12/02/2014  07:14:00      -27.947      -12.335       -8.035        7.332        8.582        7.062       53.754       73.642       49.872        0.059        0.009       30.548        5.291        0.030      333.368        2.638      860.460
12/02/2014  07:15:00      -65.259      -13.894       -7.904       15.295       11.199       10.662      233.936      125.415      113.668        0.249        0.024       66.722        9.328        0.020      333.379        2.656      860.465
12/02/2014  07:16:00      -40.715      -18.226       -0.531        9.925       10.229        6.696       98.496      104.638       44.830        0.112        0.012       44.609        5.852        0.017      333.351        2.608      860.455
12/02/2014  07:17:00       -4.567        8.675        2.328       24.525       20.279        9.039      601.463      411.234       81.699        0.060        0.055        9.804        9.680        0.975      333.378        2.656      860.442
12/02/2014  07:18:00       38.738       30.162       -6.286       23.933       20.543       15.467      572.811      422.032      239.231        0.184        0.062       49.096       11.305        0.053      333.357        2.619      860.428
12/02/2014  07:19:00       44.075       32.071        4.290       28.310       17.728       18.465      801.440      314.272      340.964        0.222        0.073       54.508        3.034        0.003      333.325        2.566      860.417
12/02/2014  07:20:00       88.893       43.951       -0.062       33.188       19.744       27.869     1101.460      389.842      776.701        0.605        0.113       99.165       14.882        0.023      333.223        2.395      860.420
12/02/2014  07:21:00       67.982       43.360       -3.346       16.774       18.720       13.847      281.351      350.447      191.752        0.367        0.041       80.633        9.574        0.014      333.213        2.377      860.428
12/02/2014  07:22:00       40.228       34.606        6.309       10.785       12.727       12.988      116.318      161.974      168.700        0.165        0.022       53.065        4.347        0.007      333.250        2.438      860.436
12/02/2014  07:23:00       62.502       29.377        3.029       13.111       10.530       11.131      171.900      110.884      123.891        0.259        0.020       69.062        7.639        0.012      333.234        2.413      860.448
12/02/2014  07:24:00       89.435       43.851       10.353       16.651       14.604       15.919      277.257      213.276      253.415        0.539        0.037       99.607        9.637        0.009      333.185        2.334      860.474
12/02/2014  07:25:00       87.085       54.089       18.402       21.040       15.533       20.234      442.682      241.281      409.406        0.597        0.055      102.515       10.798        0.011      333.159        2.290      860.507
12/02/2014  07:26:00       67.569       62.892       35.675       22.150       17.344       24.625      490.610      300.817      606.382        0.560        0.070       92.309        7.736        0.007      333.169        2.307      860.533
12/02/2014  07:27:00       34.235       65.607       52.822       23.380       21.874       17.172      546.615      478.483      294.872        0.479        0.066       74.002       10.185        0.019      333.267        2.470      860.536
12/02/2014  07:28:00       11.124       33.720       46.453       24.451       24.087       14.630      597.866      580.168      214.042        0.241        0.070       35.507       10.886        0.094      333.333        2.579      860.522
12/02/2014  07:29:00        5.364       21.293       40.386       12.865       23.942       10.074      165.499      573.207      101.488        0.148        0.042       21.958       12.068        0.302      333.333        2.580      860.505
12/02/2014  07:30:00       44.115       40.477       32.112       12.888       12.172       15.075      166.109      148.166      227.244        0.258        0.027       59.871       11.937        0.040      333.291        2.509      860.496
12/02/2014  07:31:00       34.446       31.303       13.994       16.678       18.182       14.820      278.142      330.583      219.631        0.160        0.041       46.545       12.320        0.070      333.339        2.589      860.504
12/02/2014  07:32:00       15.605        2.646        6.504       13.011       11.449        9.466      169.299      131.084       89.602        0.034        0.019       15.827        7.794        0.242      333.357        2.620      860.535
12/02/2014  07:33:00       -7.009        3.816        0.304       15.761        4.892        5.667      248.398       23.933       32.113        0.018        0.015        7.980        3.756        0.222      333.363        2.630      860.572
12/02/2014  07:34:00      -48.559       -8.142       -6.375       14.566       14.575        8.300      212.159      212.430       68.895        0.148        0.025       49.237        3.715        0.006      333.467        2.799      860.585
12/02/2014  07:35:00      -66.085      -21.747       -3.881       22.641       22.230       13.130      512.596      494.161      172.386        0.302        0.059       69.571       11.285        0.026      333.504        2.860      860.546
12/02/2014  07:36:00      -97.771       -5.823       -8.965       43.997       13.377       12.290     1935.773      178.952      151.033        0.597        0.113       97.944       18.747        0.037      333.475        2.812      860.481
12/02/2014  07:37:00     -111.539       -0.059      -11.120       17.221       21.047       12.252      296.575      442.960      150.114        0.673        0.044      111.539        9.185        0.007      333.511        2.873      860.411
12/02/2014  07:38:00     -105.129       -4.991      -13.461       33.936       33.732       15.777     1151.673     1137.835      248.923        0.690        0.127      105.248       14.587        0.019      333.517        2.883      860.349
12/02/2014  07:39:00     -117.204      -22.075      -16.859       33.110       42.245       21.489     1096.271     1784.618      461.785        0.892        0.167      119.265       19.778        0.028      333.489        2.837      860.320
12/02/2014  07:40:00       -4.026      -26.706       12.136       45.485       25.060       22.718     2068.873      627.980      516.109        0.204        0.161       27.008       13.523        0.251      333.540        2.921      860.324
12/02/2014  07:41:00      -77.701      -38.549       -3.434       34.013       27.049       21.167     1156.905      731.647      448.023        0.494        0.117       86.738       16.258        0.035      333.457        2.783      860.320
12/02/2014  07:42:00      -59.498      -22.767       -4.024       31.200       25.154       13.457      973.426      632.746      181.093        0.293        0.089       63.705       15.984        0.063      333.519        2.885      860.277
12/02/2014  07:43:00     -118.718       10.181      -14.980       16.710       25.243       13.631      279.233      637.189      185.792        0.776        0.055      119.154       10.871        0.008      333.446        2.762      860.224
12/02/2014  07:44:00     -105.252       24.105      -12.658       30.182       21.288       14.674      910.946      453.162      215.315        0.670        0.079      107.977        8.662        0.006      333.409        2.704      860.175
12/02/2014  07:45:00      -83.979       10.348      -12.000       21.139       15.777        9.895      446.839      248.906       97.911        0.405        0.040       84.614        7.161        0.007      333.380        2.657      860.138
12/02/2014  07:46:00      -45.655       -0.052        1.399       18.726       14.105       12.605      350.668      198.955      158.892        0.140        0.035       45.655        7.142        0.024      333.430        2.738      860.125
12/02/2014  07:47:00      -74.730        5.990       -9.571        9.502       14.758       10.588       90.279      217.797      112.108        0.307        0.021       74.970        3.801        0.003      333.402        2.693      860.126
12/02/2014  07:48:00      -82.517      -28.792       -9.732       17.700       16.848       14.592      313.286      283.847      212.930        0.427        0.041       87.396       10.068        0.013      333.528        2.900      860.146
12/02/2014  07:49:00     -125.734      -66.336       -4.195       29.317       26.377       20.185      859.463      695.765      407.453        1.109        0.098      142.160        4.717        0.001      333.496        2.848      860.179
12/02/2014  07:50:00      -64.324      -48.027       13.225       55.052       33.258       27.849     3030.716     1106.103      775.568        0.576        0.246       80.275       30.518        0.145      333.538        2.918      860.212
12/02/2014  07:51:00      -88.481      -79.571        1.828       54.448       45.977       29.786     2964.550     2113.930      887.216        1.006        0.298      118.998       29.038        0.060      333.579        2.987      860.253
12/02/2014  07:52:00     -103.782     -109.567       -2.107       43.514       47.119       27.116     1893.477     2220.176      735.275        1.381        0.242      150.916       16.045        0.011      333.620        3.054      860.305
12/02/2014  07:53:00      -66.142      -59.833       18.352       74.073       37.133       32.807     5486.736     1378.896     1076.307        0.812        0.397       89.189       38.408        0.185      333.675        3.147      860.353
12/02/2014  07:54:00      -98.101      -78.873      -11.587       63.873       56.338       31.162     4079.711     3173.986      971.075        1.210        0.411      125.876       30.733        0.060      333.630        3.069      860.379
12/02/2014  07:55:00     -136.934     -112.931      -11.133       38.248       47.264       23.523     1462.919     2233.904      553.346        1.794        0.213      177.495       13.322        0.006      333.560        2.953      860.391
12/02/2014  07:56:00     -146.823      -61.450       -9.463       36.264       34.186       25.800     1315.089     1168.670      665.642        1.429        0.157      159.164       22.539        0.020      333.585        2.995      860.387
12/02/2014  07:57:00      -92.644      -62.537        0.809       46.798       35.421       25.252     2190.016     1254.613      637.646        0.829        0.204      111.775       24.865        0.049      333.629        3.068      860.375
12/02/2014  07:58:00      -71.796      -35.871       -4.150       40.477       24.078       19.991     1638.361      579.740      399.631        0.454        0.131       80.259       12.704        0.025      333.595        3.013      860.370
12/02/2014  07:59:00      -12.870      -45.008       -5.666       23.902       34.416       23.389      571.312     1184.471      547.065        0.226        0.115       46.812       21.274        0.207      333.720        3.220      860.359
12/02/2014  08:00:00      -22.831      -12.860       12.643       24.329       19.274       12.947      591.922      371.505      167.630        0.099        0.057       26.204       15.061        0.330      333.690        3.170      860.341
12/02/2014  08:01:00      -81.484      -47.698       -8.122       26.552       33.748       11.992      704.982     1138.928      143.820        0.548        0.099       94.418       10.612        0.013      333.571        2.971      860.324
12/02/2014  08:02:00      -59.936      -95.859        0.526       41.770       32.301       21.022     1744.760     1043.331      441.933        0.801        0.162      113.054       18.338        0.026      333.617        3.049      860.334
12/02/2014  08:03:00      -65.849      -95.346       -6.554       24.128       21.702       20.011      582.159      470.993      400.452        0.746        0.073      115.875       11.344        0.010      333.631        3.072      860.357
12/02/2014  08:04:00      -31.824      -47.443        0.631       32.464       27.247       15.426     1053.892      742.421      237.974        0.265        0.102       57.128        6.854        0.014      333.652        3.107      860.376
12/02/2014  08:05:00      -79.476      -42.349       -5.287       24.959       24.253       15.189      622.952      588.226      230.710        0.479        0.072       90.055        9.809        0.012      333.657        3.115      860.384
12/02/2014  08:06:00      -85.565      -51.987       -5.404       29.610       33.887       22.124      876.732     1148.314      489.493        0.628        0.126      100.120       14.610        0.021      333.604        3.028      860.375
12/02/2014  08:07:00      -67.859      -58.029       -3.498       22.286       22.721       12.372      496.659      516.226      153.076        0.457        0.058       89.287       10.796        0.015      333.553        2.943      860.364
12/02/2014  08:08:00      -49.996      -39.193        2.665       43.817       29.410       20.060     1919.924      864.970      402.413        0.361        0.159       63.527       23.228        0.134      333.685        3.162      860.354
12/02/2014  08:09:00      -47.350      -73.563        7.412       49.603       44.837       27.363     2460.477     2010.323      748.726        0.646        0.261       87.484       26.981        0.095      333.653        3.108      860.362
12/02/2014  08:10:00      -72.949      -91.136       -6.866       34.671       34.317       21.777     1202.073     1177.656      474.256        0.826        0.143      116.736       18.668        0.026      333.585        2.996      860.376
12/02/2014  08:11:00     -101.808      -53.784        2.399       54.471       32.135       23.775     2967.069     1032.629      565.254        0.891        0.228      115.142       29.035        0.064      333.607        3.033      860.391
12/02/2014  08:12:00     -101.941      -40.060       -0.623       28.898       30.907       22.020      835.080      955.243      484.896        0.714        0.114      109.530       19.976        0.033      333.560        2.955      860.397
12/02/2014  08:13:00      -59.743      -47.662        6.797       44.895       35.700       27.502     2015.538     1274.481      756.351        0.497        0.202       76.426       27.087        0.126      333.654        3.111      860.407
12/02/2014  08:14:00      -69.442      -67.926       -5.647       23.982       28.283       19.363      575.130      799.950      374.933        0.561        0.088       97.140       14.247        0.022      333.620        3.054      860.397
12/02/2014  08:15:00      -88.924      -29.777        1.785       36.964       39.571       22.225     1366.351     1565.896      493.963        0.611        0.171       93.777       16.202        0.030      333.624        3.061      860.365
12/02/2014  08:16:00     -100.619        7.187       -4.454       41.776       39.997       25.268     1745.198     1599.751      638.456        0.709        0.199      100.875       22.527        0.050      333.558        2.951      860.325
12/02/2014  08:17:00     -132.757      -13.384       -9.372       32.456       27.932       21.000     1053.372      780.183      441.011        1.008        0.114      133.430       19.987        0.022      333.547        2.931      860.279
12/02/2014  08:18:00     -112.956      -17.248       -8.637       32.798       19.198       15.916     1075.728      368.572      253.325        0.741        0.085      114.265       17.817        0.024      333.566        2.964      860.265
12/02/2014  08:19:00     -113.265       -4.688       -9.051       31.161       30.712       19.736      971.002      943.220      389.517        0.762        0.115      113.362       18.427        0.026      333.582        2.990      860.263
12/02/2014  08:20:00     -119.527      -27.715       -4.407       25.814       35.301       16.947      666.338     1246.142      287.210        0.864        0.110      122.698        6.726        0.003      333.610        3.038      860.254
12/02/2014  08:21:00     -145.890       24.991      -13.024       49.959       27.359       13.899     2495.934      748.506      193.188        1.276        0.172      148.015       15.801        0.011      333.580        2.986      860.247
12/02/2014  08:22:00     -172.768      -25.657      -19.575       38.304       32.938       17.259     1467.221     1084.906      297.879        1.687        0.143      174.662       17.307        0.010      333.569        2.969      860.247
12/02/2014  08:23:00     -136.007      -30.996       -9.043       27.032       20.328       21.135      730.740      413.234      446.683        1.057        0.080      139.494       15.478        0.012      333.627        3.065      860.253
12/02/2014  08:24:00     -132.840      -11.166      -15.105       34.513       27.386       20.761     1191.134      749.978      431.036        1.019        0.119      133.308       11.546        0.008      333.599        3.018      860.253
12/02/2014  08:25:00     -129.271      -13.376       -9.882       26.178       29.490       21.775      685.286      869.644      474.136        0.951        0.101      129.961       15.649        0.014      333.684        3.159      860.246
12/02/2014  08:26:00     -128.907      -23.882      -12.840       40.131       30.720       23.810     1610.461      943.728      566.908        1.024        0.156      131.100       19.089        0.021      333.666        3.129      860.243
12/02/2014  08:27:00      -82.023      -30.180      -14.880       66.097       23.095       18.126     4368.858      533.366      328.563        0.654        0.262       87.399       19.985        0.052      333.695        3.178      860.232
12/02/2014  08:28:00        8.953       -8.245      -12.994       12.067       16.078       21.449      145.603      258.509      460.078        0.059        0.043       12.171       12.428        1.043      333.759        3.284      860.236
12/02/2014  08:29:00       17.078      -16.529       -7.480       19.767       30.385       17.799      390.741      923.218      316.820        0.113        0.082       23.767       13.797        0.337      333.880        3.485      860.240
12/02/2014  08:30:00        3.634        3.624        8.046       15.774       19.355       14.040      248.818      374.623      197.108        0.046        0.041        5.133       10.879        4.492      333.910        3.535      860.213
12/02/2014  08:31:00       17.311       39.489       -2.810       14.317       25.614       13.094      204.972      656.098      171.446        0.145        0.052       43.117       12.283        0.081      333.759        3.286      860.170
12/02/2014  08:32:00        2.264       88.649      -16.398       15.154       18.465       10.419      229.642      340.942      108.562        0.441        0.034       88.678        2.900        0.001      333.763        3.292      860.134
12/02/2014  08:33:00        1.100       61.124      -13.176       14.574       19.506        8.542      212.408      380.477       72.974        0.229        0.033       61.133        8.932        0.021      333.744        3.260      860.108
12/02/2014  08:34:00      -45.517       27.252       -4.429       32.054       30.811       14.821     1027.434      949.315      219.676        0.251        0.110       53.052       11.868        0.050      333.851        3.438      860.081
12/02/2014  08:35:00       -3.476        2.943        7.711       21.220       13.420       11.140      450.272      180.102      124.104        0.042        0.038        4.555       10.020        4.840      333.899        3.518      860.056
12/02/2014  08:36:00       -8.131       24.863        6.077        9.640       18.626       11.855       92.938      346.931      140.550        0.065        0.029       26.159       10.943        0.175      333.825        3.394      860.036
12/02/2014  08:37:00      -41.360       19.622       -2.869       16.347       13.329       13.827      267.231      177.675      191.186        0.137        0.032       45.779        6.153        0.018      333.736        3.246      860.006
12/02/2014  08:38:00      -48.355       15.424       -7.126        8.874        8.970        7.760       78.749       80.455       60.211        0.142        0.011       50.755        4.460        0.008      333.758        3.281      859.975
12/02/2014  08:39:00      -50.750       12.870       -1.110        7.407        8.573        7.006       54.871       73.499       49.081        0.146        0.009       52.356        3.165        0.004      333.781        3.317      859.973
12/02/2014  08:40:00      -41.495       -6.005       -4.573       14.079       10.208       10.489      198.226      104.197      110.022        0.110        0.021       41.928        7.244        0.030      333.860        3.453      859.973
12/02/2014  08:41:00      -86.774       -2.830      -10.943       12.711       13.432        8.194      161.567      180.424       67.140        0.403        0.020       86.820        5.779        0.004      333.827        3.399      859.964
12/02/2014  08:42:00      -81.288       -4.128       -8.496       24.980       15.261       15.891      624.007      232.884      252.519        0.390        0.055       81.393       15.782        0.038      333.835        3.412      859.948
12/02/2014  08:43:00      -76.318       -2.314       -9.734       25.137       21.543       15.103      631.848      464.117      228.087        0.362        0.066       76.353       14.532        0.036      333.892        3.505      859.955
12/02/2014  08:44:00      -44.028       -8.411       -4.795       16.465       21.582       13.935      271.092      465.787      194.195        0.148        0.047       44.824        9.213        0.042      333.914        3.542      859.983
12/02/2014  08:45:00      -41.789       18.107       -2.678       14.289        9.095        8.736      204.175       82.717       76.316        0.122        0.018       45.543        6.830        0.022      333.899        3.518      860.002
12/02/2014  08:46:00      -39.950        9.773       -6.811        8.591        9.683        7.573       73.804       93.758       57.351        0.098        0.011       41.128        2.536        0.004      333.929        3.568      859.979
12/02/2014  08:47:00      -14.814      -22.306       -6.475       19.407        8.441        7.067      376.635       71.254       49.936        0.063        0.025       26.777        6.818        0.065      333.990        3.669      859.965
12/02/2014  08:48:00       -3.039      -14.383       -0.306       13.393       13.546       12.814      179.367      183.496      164.189        0.037        0.026       14.701        6.735        0.210      334.104        3.855      859.991
12/02/2014  08:49:00      -23.580      -19.923        0.916       18.225       11.041        7.393      332.164      121.914       54.660        0.073        0.025       30.869        4.610        0.022      334.081        3.817      860.010
12/02/2014  08:50:00      -43.286      -23.619        2.149       29.022       18.538       14.233      842.251      343.666      202.587        0.191        0.069       49.311       14.124        0.082      334.103        3.855      860.002
12/02/2014  08:51:00      -69.370      -54.689       -1.933       32.591       22.066       15.198     1062.197      486.898      230.966        0.479        0.089       88.335       19.771        0.050      334.091        3.834      859.999
12/02/2014  08:52:00      -61.595      -25.322        7.031       42.098       22.656       16.813     1772.228      513.284      282.673        0.353        0.128       66.597       21.939        0.109      334.141        3.918      860.004
12/02/2014  08:53:00      -67.919      -36.451        1.859       23.310       18.555       12.986      543.364      344.284      168.629        0.350        0.053       77.082       12.995        0.028      334.108        3.861      860.019
12/02/2014  08:54:00      -38.547      -21.251       -5.559       34.107       12.980       10.690     1163.309      168.473      114.278        0.171        0.072       44.017        9.502        0.047      334.165        3.959      860.035
12/02/2014  08:55:00      -42.498      -25.121        1.887       33.587       19.831       13.881     1128.088      393.288      192.680        0.208        0.086       49.367       14.651        0.088      334.233        4.072      860.037
12/02/2014  08:56:00      -17.784      -14.585        7.008       18.904       17.907       14.453      357.357      320.657      208.887        0.073        0.044       23.000       12.681        0.304      334.225        4.059      860.053
12/02/2014  08:57:00      -12.968      -24.300        6.743       17.902       19.926       13.249      320.496      397.029      175.544        0.085        0.045       27.544       11.627        0.178      334.263        4.121      860.093
12/02/2014  08:58:00      -13.625      -36.920       10.171       27.198       35.960       15.251      739.746     1293.144      232.603        0.196        0.113       39.354       15.711        0.159      334.301        4.183      860.113
12/02/2014  08:59:00      -50.333      -67.996       10.006       33.679       29.031       20.447     1134.267      842.819      418.078        0.483        0.120       84.598       20.438        0.058      334.241        4.084      860.161
12/02/2014  09:00:00      -19.263      -21.367       20.999       19.471       40.656       19.619      379.109     1652.895      384.914        0.184        0.121       28.768       20.639        0.515      334.423        4.386      860.252
12/02/2014  09:01:00      -30.136       -7.747        3.205       33.157       35.658       25.343     1099.377     1271.482      642.254        0.200        0.151       31.116       12.136        0.152      334.370        4.301      860.327
12/02/2014  09:02:00      -43.288      -77.611        1.000       36.545       35.092       19.631     1335.505     1231.470      385.363        0.542        0.148       88.867       13.746        0.024      334.427        4.395      860.379
12/02/2014  09:03:00        9.260        0.890       29.524       32.096       39.280       20.995     1030.140     1542.946      440.770        0.199        0.151        9.303       22.933        6.077      334.448        4.428      860.415
12/02/2014  09:04:00       11.508       -5.930       29.320       42.835       54.922       34.063     1834.849     3016.421     1160.278        0.352        0.301       12.947       33.687        6.770      334.353        4.271      860.451
12/02/2014  09:05:00      -22.896      -30.564       10.123       41.601       36.863       24.525     1730.606     1358.845      601.486        0.263        0.185       38.189       16.911        0.196      334.386        4.324      860.468
12/02/2014  09:06:00      -14.337      -28.775       12.857       21.615       35.284       24.205      467.200     1244.932      585.864        0.175        0.115       32.149        8.109        0.064      334.451        4.433      860.474
12/02/2014  09:07:00      124.839     -171.404      -34.095       63.779       77.894       44.512     4067.783     6067.542     1981.324        2.912        0.606      212.047       33.853        0.025      334.293        4.166      860.468
12/02/2014  09:08:00       65.079     -112.154       27.503       73.120      107.099       50.570     5346.490    11470.234     2557.304        1.847        0.969      129.668       57.613        0.197      334.302        4.184      860.456
12/02/2014  09:09:00       77.809     -112.211      -14.128       84.659       56.387       49.751     7167.145     3179.544     2475.184        1.583        0.641      136.549       46.143        0.114      334.243        4.086      860.442
12/02/2014  09:10:00      -12.686      -81.519       27.846       42.515       41.803       41.405     1807.512     1747.481     1714.361        0.642        0.263       82.500       20.683        0.063      334.310        4.198      860.453
12/02/2014  09:11:00       65.890      -70.183       -3.726       60.802       76.739       49.767     3696.924     5888.826     2476.739        1.067        0.603       96.266       50.660        0.277      334.179        3.981      860.480
12/02/2014  09:12:00        4.043      -28.677       31.974       42.200       58.914       34.220     1780.874     3470.905     1171.039        0.414        0.321       28.961       34.596        1.427      334.270        4.132      860.486
12/02/2014  09:13:00      -39.245       11.802        5.840       38.856       30.299       20.073     1509.752      918.051      402.922        0.227        0.142       40.981       17.169        0.176      334.377        4.311      860.461
12/02/2014  09:14:00        7.222      -30.741        5.313       26.887       41.249       19.314      722.897     1701.507      373.029        0.191        0.140       31.577       15.902        0.254      334.371        4.300      860.456
12/02/2014  09:15:00      -28.461      -21.356       -1.815       36.664       29.620       19.856     1344.228      877.361      394.266        0.194        0.131       35.582       14.657        0.170      334.382        4.321      860.480
12/02/2014  09:16:00     -106.606      -23.148        3.559       55.137       56.517       29.770     3040.135     3194.197      886.225        0.952        0.356      109.090       33.498        0.094      334.121        3.884      860.459
12/02/2014  09:17:00      -71.241      -19.262        3.431       55.603       31.098       21.965     3091.693      967.056      482.440        0.500        0.227       73.799       21.295        0.083      334.146        3.926      860.428
12/02/2014  09:18:00      -35.969      -29.003        2.288       27.690       25.594       14.408      766.754      655.072      207.585        0.188        0.081       46.206       14.702        0.101      334.198        4.013      860.431
12/02/2014  09:19:00      -42.701      -33.481       -0.400       23.373       17.393       21.219      546.290      302.531      450.253        0.212        0.065       54.262       15.525        0.082      334.204        4.022      860.453
12/02/2014  09:20:00      -35.721        5.350        9.360       30.547       31.408       17.615      933.124      986.458      310.304        0.181        0.111       36.120       17.068        0.223      334.214        4.038      860.444
12/02/2014  09:21:00        4.849       28.726       16.269       29.898       17.287       18.150      893.910      298.825      329.420        0.132        0.076       29.133       13.950        0.229      334.215        4.040      860.448
12/02/2014  09:22:00       30.171       48.474        1.731       21.032       21.055       17.946      442.361      443.333      322.048        0.224        0.060       57.097        8.651        0.023      334.232        4.069      860.478
12/02/2014  09:23:00       48.959       40.882       -1.908       28.493       21.145       20.137      811.878      447.127      405.504        0.287        0.083       63.784       13.503        0.045      334.224        4.058      860.445
12/02/2014  09:24:00       21.220       27.729        0.548       32.503       21.576       18.170     1056.430      465.535      330.159        0.154        0.093       34.917       16.260        0.217      334.224        4.054      860.375
12/02/2014  09:25:00       56.026       36.388       18.142       29.568       32.728       23.525      874.275     1071.135      553.412        0.364        0.125       66.805       10.921        0.027      334.190        3.998      860.328
12/02/2014  09:26:00       57.458       45.661       12.954       36.896       28.732       27.084     1361.311      825.516      733.550        0.424        0.146       73.392       18.858        0.066      334.135        3.907      860.266
12/02/2014  09:27:00       76.432       59.932        1.289       39.981       28.979       23.535     1598.462      839.779      553.886        0.621        0.150       97.128       10.523        0.012      334.056        3.776      860.236
12/02/2014  09:28:00       82.833       49.140        7.829       40.531       36.210       23.874     1642.760     1311.194      569.991        0.643        0.176       96.312       14.411        0.022      334.145        3.925      860.270
12/02/2014  09:29:00      125.823       82.063       30.579       31.519       21.641       30.111      993.440      468.315      906.688        1.293        0.118      150.219       15.778        0.011      334.098        3.847      860.345
12/02/2014  09:30:00       46.231       74.488       57.679       53.498       39.002       29.090     2861.989     1521.118      846.212        0.812        0.261       87.668       28.647        0.107      334.198        4.013      860.400
12/02/2014  09:31:00       38.827       75.793       69.181       44.554       33.056       30.838     1985.087     1092.680      950.999        0.803        0.201       85.159       30.129        0.125      334.153        3.937      860.406
12/02/2014  09:32:00       77.011       52.344       21.368       42.771       30.154       22.466     1829.319      909.279      504.701        0.618        0.162       93.116       10.168        0.012      334.091        3.834      860.336
12/02/2014  09:33:00      103.121       80.350        5.077       46.301       35.173       36.857     2143.814     1237.139     1358.432        1.093        0.237      130.729       23.149        0.031      333.992        3.671      860.233
12/02/2014  09:34:00      132.643       94.126       18.364       37.974       34.489       25.743     1442.002     1189.476      662.727        1.504        0.165      162.647       21.189        0.017      334.012        3.704      860.245
12/02/2014  09:35:00      144.296       77.716       18.782       43.611       38.457       34.155     1901.907     1478.961     1166.598        1.588        0.227      163.893       12.258        0.006      334.032        3.737      860.294
12/02/2014  09:36:00       56.360       63.626       63.206       45.481       35.282       33.105     2068.551     1244.812     1095.926        0.781        0.220       84.998       27.414        0.104      334.183        3.987      860.337
12/02/2014  09:37:00       54.594       32.415       72.293       64.327       44.575       40.072     4137.996     1986.972     1605.793        0.849        0.387       63.492       41.181        0.421      334.135        3.908      860.389
12/02/2014  09:38:00       92.409       21.582       43.098       80.280       56.921       44.665     6444.885     3239.978     1994.964        1.127        0.584       94.896       53.665        0.320      334.120        3.882      860.436
12/02/2014  09:39:00       30.462       71.447       87.536       48.999       46.496       43.241     2400.897     2161.904     1869.811        1.006        0.322       77.670       39.780        0.262      334.080        3.816      860.442
12/02/2014  09:40:00        9.725       17.134       33.964       28.902       41.645       27.281      835.334     1734.277      744.227        0.243        0.166       19.701       27.634        1.967      334.016        3.710      860.356
12/02/2014  09:41:00       -1.785      -38.199       13.506       15.313       22.388       14.961      234.503      501.202      223.825        0.130        0.048       38.241       14.932        0.152      334.105        3.861      860.279
12/02/2014  09:42:00       53.974       43.333        3.525       17.868       20.752       17.606      319.274      430.657      309.957        0.293        0.053       69.217       12.658        0.033      334.007        3.695      860.295
12/02/2014  09:43:00       74.180       32.781        4.830       13.961       19.364       20.062      194.899      374.976      402.491        0.379        0.049       81.100       11.771        0.021      334.048        3.766      860.314
12/02/2014  09:44:00       82.918       60.944       34.823       34.105       15.557       30.696     1163.124      242.034      942.216        0.707        0.117      102.905       23.239        0.051      334.071        3.802      860.327
12/02/2014  09:45:00       89.843       61.850       22.701       28.330       31.834       27.207      802.594     1013.374      740.214        0.748        0.128      109.075        7.693        0.005      334.101        3.852      860.366
12/02/2014  09:46:00       59.351       74.685       67.205       53.624       52.312       42.947     2875.573     2736.530     1844.440        1.054        0.373       95.396       30.914        0.105      334.121        3.885      860.417
12/02/2014  09:47:00      109.113      100.143       69.669       52.161       33.907       33.502     2720.733     1149.657     1122.382        1.589        0.250      148.103       31.313        0.045      334.093        3.837      860.434
12/02/2014  09:48:00       94.187       53.766       27.483       37.752       44.125       29.133     1425.237     1947.028      848.756        0.837        0.211      108.452       18.517        0.029      334.006        3.693      860.391
12/02/2014  09:49:00       78.446       58.300       51.345       42.321       31.375       27.304     1791.106      984.404      745.503        0.785        0.176       97.738       19.769        0.041      334.068        3.798      860.369
12/02/2014  09:50:00       34.925       55.885       56.883       32.796       32.761       20.050     1075.582     1073.300      401.984        0.506        0.128       65.901       13.232        0.040      334.229        4.064      860.415
12/02/2014  09:51:00       12.882       23.042       49.925       23.234       38.072       29.669      539.797     1449.494      880.273        0.303        0.143       26.398       28.815        1.191      334.314        4.205      860.459
12/02/2014  09:52:00       44.681        0.315       31.778       34.189       24.942       23.602     1168.872      622.097      557.033        0.268        0.117       44.682       14.693        0.108      334.244        4.089      860.427
12/02/2014  09:53:00       22.544       40.664       -3.708       27.363       43.581       16.748      748.754     1899.295      280.504        0.255        0.146       46.495       16.972        0.133      334.124        3.890      860.351
12/02/2014  09:54:00       20.788       78.242       -9.843       27.300       37.058       24.671      745.302     1373.304      608.680        0.469        0.136       80.957       19.938        0.061      334.052        3.767      860.320
12/02/2014  09:55:00       40.802       61.426       -0.253       41.026       28.093       20.962     1683.099      789.230      439.419        0.417        0.146       73.743       13.935        0.036      334.054        3.773      860.373
12/02/2014  09:56:00       17.407       32.813       36.279       31.828       37.262       34.873     1013.048     1388.444     1216.132        0.316        0.181       37.144       31.295        0.710      334.180        3.982      860.436
12/02/2014  09:57:00       21.124       54.354       56.121       33.366       29.063       19.234     1113.283      844.632      369.955        0.444        0.116       58.315       15.081        0.067      334.229        4.064      860.440
12/02/2014  09:58:00        5.068       35.945       48.804       19.590       30.838       17.937      383.767      950.991      321.721        0.268        0.083       36.301       16.164        0.198      334.299        4.182      860.352
12/02/2014  09:59:00       70.100       15.922        6.416       35.703       32.733       23.279     1274.679     1071.420      541.932        0.405        0.144       71.885       17.827        0.061      334.240        4.082      860.315
12/02/2014  10:00:00       96.227       37.563       25.749       34.759       29.585       28.688     1208.213      875.288      822.976        0.712        0.145      103.299       22.438        0.047      334.125        3.890      860.348
12/02/2014  10:01:00       48.031       50.154       39.640       29.640       30.316       26.952      878.512      919.063      726.399        0.446        0.126       69.444       20.390        0.086      334.164        3.956      860.364
12/02/2014  10:02:00        7.079       26.133       53.545       28.087       29.581       17.063      788.861      875.018      291.135        0.278        0.098       27.075       12.824        0.224      334.354        4.272      860.377
12/02/2014  10:03:00       -8.592       37.382       60.086       30.177       44.890       36.614      910.633     2015.120     1340.574        0.467        0.213       38.357       31.772        0.686      334.325        4.224      860.418
12/02/2014  10:04:00       38.471      -32.140       28.812       38.837       64.898       33.643     1508.303     4211.807     1131.861        0.510        0.343       50.130       38.332        0.585      334.268        4.130      860.444
12/02/2014  10:05:00       71.120       82.972       69.660       55.345       32.138       30.155     3063.104     1032.825      909.307        1.090        0.250      109.281       31.876        0.085      334.185        3.992      860.440
12/02/2014  10:06:00      115.486       80.463       55.815       47.784       41.531       41.237     2283.299     1724.797     1700.511        1.432        0.285      140.752       24.632        0.031      334.160        3.948      860.426
12/02/2014  10:07:00       83.758       71.232       60.034       45.264       40.994       39.898     2048.820     1680.536     1591.872        1.051        0.266      109.952       25.425        0.053      334.203        4.020      860.431
12/02/2014  10:08:00       77.259       79.048       80.081       67.075       43.902       47.539     4499.078     1927.377     2259.911        1.366        0.434      110.533       51.341        0.216      334.143        3.921      860.464
12/02/2014  10:09:00      106.835       82.595       66.747       57.035       51.134       44.789     3252.974     2614.641     2006.097        1.528        0.394      135.039       27.036        0.040      334.132        3.901      860.520
12/02/2014  10:10:00       78.993       48.688       42.741       54.917       47.533       43.424     3015.930     2259.362     1885.619        0.880        0.358       92.793       33.819        0.133      334.168        3.962      860.533
12/02/2014  10:11:00      109.692       93.624       65.069       65.483       44.132       40.655     4287.988     1947.600     1652.809        1.646        0.394      144.215       40.220        0.078      334.119        3.879      860.506
12/02/2014  10:12:00       72.563       76.399       72.203       47.605       42.467       42.316     2266.255     1803.428     1790.602        1.109        0.293      105.367       30.226        0.082      334.220        4.050      860.465
12/02/2014  10:13:00       86.890       74.388       47.161       52.888       27.873       31.373     2797.142      776.898      984.265        0.993        0.228      114.383       26.394        0.053      334.101        3.850      860.392
12/02/2014  10:14:00       84.799       46.165       29.573       23.709       22.023       28.893      562.107      485.007      834.794        0.604        0.094       96.551       14.075        0.021      334.100        3.851      860.340
12/02/2014  10:15:00       53.998       52.007       50.813       35.657       35.276       38.338     1271.450     1244.425     1469.832        0.609        0.199       74.970       28.513        0.145      334.157        3.944      860.344
12/02/2014  10:16:00       95.139       66.298       50.840       54.409       49.564       48.226     2960.304     2456.593     2325.735        1.189        0.387      115.961       39.091        0.114      334.117        3.876      860.353
12/02/2014  10:17:00      116.485       60.652       27.253       43.861       46.737       35.785     1923.791     2184.367     1280.572        1.169        0.269      131.330       21.102        0.026      334.079        3.815      860.290
12/02/2014  10:18:00       83.988       41.953       47.045       45.219       28.274       34.305     2044.799      799.423     1176.812        0.752        0.201       93.883       25.378        0.073      334.096        3.843      860.204
12/02/2014  10:19:00       71.456       53.697       30.215       48.176       27.903       22.826     2320.926      778.577      521.049        0.626        0.181       89.383       18.898        0.045      334.188        3.997      860.200
12/02/2014  10:20:00       71.132       35.619        4.733       50.209       37.343       32.814     2520.926     1394.516     1076.764        0.567        0.250       79.552       23.213        0.085      334.085        3.823      860.249
12/02/2014  10:21:00       36.487       71.301       -5.112       32.681       52.207       26.390     1068.025     2725.571      696.442        0.546        0.225       80.095       28.731        0.129      334.025        3.726      860.147
12/02/2014  10:22:00       21.619      145.713      -28.605       16.564       45.638       22.081      274.380     2082.822      487.560        1.268        0.142      147.308       26.216        0.032      333.998        3.681      859.982
12/02/2014  10:23:00       35.402       56.179       -2.146       31.889       31.601       25.368     1016.919      998.618      643.522        0.354        0.133       66.403       22.372        0.114      334.090        3.833      859.986
12/02/2014  10:24:00      -37.119      119.967      -13.492       43.658       51.806       30.814     1906.044     2683.815      949.503        1.074        0.277      125.578       24.054        0.037      334.255        4.108      859.933
12/02/2014  10:25:00      -69.449      197.023      -23.534       36.212       42.321       29.356     1311.337     1791.091      861.765        2.408        0.198      208.905       21.320        0.010      334.126        3.890      859.790
12/02/2014  10:26:00      -18.856      112.223       -9.760       48.124       55.259       26.402     2315.907     3053.607      697.052        0.955        0.303      113.796       23.382        0.042      334.171        3.968      859.828
12/02/2014  10:27:00       89.487       87.161       39.074       59.055       55.970       63.890     3487.524     3132.616     4081.920        1.391        0.535      124.920       49.277        0.156      334.174        3.971      860.070
12/02/2014  10:28:00      105.179      114.922       69.261       74.198       48.822       55.696     5505.378     2383.595     3102.091        2.003        0.550      155.787       51.827        0.111      334.184        3.988      860.328
12/02/2014  10:29:00       94.364       48.998       47.489       54.553       51.436       47.840     2976.020     2645.647     2288.696        1.073        0.396      106.327       34.658        0.106      334.160        3.951      860.339
12/02/2014  10:30:00       81.301       63.432       12.637       36.357       23.047       26.380     1321.820      531.154      695.903        0.667        0.127      103.119       10.942        0.011      334.116        3.877      860.127
12/02/2014  10:31:00      160.618       96.802       16.308       53.968       40.912       41.080     2912.551     1673.771     1687.606        2.085        0.314      187.533       19.150        0.010      334.054        3.771      860.046
12/02/2014  10:32:00      134.692      123.251       66.732       83.965       39.619       47.918     7050.052     1569.696     2296.123        2.435        0.546      182.572       45.351        0.062      334.195        4.004      860.121
12/02/2014  10:33:00      111.892       89.971       55.880       97.392       44.165       64.686     9485.153     1950.556     4184.319        1.968        0.781      143.577       69.109        0.232      334.185        3.989      860.135
12/02/2014  10:34:00      134.524       46.748       12.868       55.020       41.290       39.099     3027.174     1704.824     1528.697        1.335        0.313      142.416       29.875        0.044      334.138        3.913      860.085
12/02/2014  10:35:00       47.616       24.754       26.596       25.855       32.440       29.241      668.499     1052.378      855.028        0.308        0.129       53.666       26.146        0.237      334.189        3.997      860.018
12/02/2014  10:36:00      130.617       80.711       39.724       50.356       31.328       40.054     2535.720      981.456     1604.349        1.514        0.256      153.542       33.157        0.047      334.125        3.890      860.028
12/02/2014  10:37:00      154.840       73.435       20.816       40.656       36.917       29.947     1652.916     1362.872      896.838        1.686        0.196      171.371       22.601        0.017      334.084        3.824      860.002
12/02/2014  10:38:00      161.940       94.974       23.757       36.127       32.307       36.417     1305.182     1043.752     1326.218        1.974        0.184      187.736       14.604        0.006      334.101        3.849      859.967
12/02/2014  10:39:00      150.645       67.545       38.770       60.458       40.663       40.211     3655.126     1653.515     1616.925        1.784        0.346      165.095       39.623        0.058      334.137        3.910      859.970
12/02/2014  10:40:00      172.627       56.987       20.038       65.177       42.212       42.296     4248.094     1781.888     1788.958        2.063        0.391      181.790       31.444        0.030      334.110        3.865      859.935
12/02/2014  10:41:00       91.170       49.930       15.932       44.360       43.851       37.290     1967.769     1922.926     1390.569        0.817        0.264      103.947       26.273        0.064      334.192        4.003      859.868
12/02/2014  10:42:00       90.894       68.816        6.916       43.259       29.510       35.161     1871.331      870.862     1236.302        0.851        0.199      114.006       14.794        0.017      334.181        3.984      859.867
12/02/2014  10:43:00       27.601       28.242       30.963       38.404       30.225       29.465     1474.874      913.554      868.209        0.289        0.163       39.489       27.469        0.484      334.305        4.191      859.895
12/02/2014  10:44:00       26.280       -6.686        8.621       24.650       20.116       13.670      607.621      404.667      186.870        0.100        0.060       27.118       13.243        0.238      334.302        4.186      859.845
12/02/2014  10:45:00        3.533       -9.553       24.024       17.786       23.114       16.708      316.357      534.265      279.172        0.091        0.056       10.185       10.351        1.033      334.488        4.494      859.778
12/02/2014  10:46:00       28.601       17.013       19.796       32.139       26.624       18.532     1032.905      708.829      343.451        0.179        0.104       33.279       17.645        0.281      334.389        4.332      859.736
12/02/2014  10:47:00       14.446       13.944       41.887       29.346       28.766       23.044      861.208      827.499      531.008        0.219        0.111       20.079       20.175        1.010      334.329        4.230      859.715
12/02/2014  10:48:00       47.624       -8.205       38.628       38.772       25.236       27.335     1503.233      636.865      747.210        0.336        0.144       48.326       27.049        0.313      334.255        4.107      859.700
12/02/2014  10:49:00       24.345      -15.398       17.493       36.100       12.649       12.826     1303.243      160.002      164.506        0.138        0.081       28.806        8.685        0.091      334.268        4.129      859.659
12/02/2014  10:50:00      -23.599       19.669       -5.170       12.773       11.926        8.931      163.154      142.237       79.757        0.068        0.019       30.720        4.598        0.022      334.209        4.034      859.606
12/02/2014  10:51:00        8.136       -5.340        8.190       24.487       18.510       12.311      599.598      342.627      151.550        0.063        0.055        9.732       11.580        1.416      334.381        4.317      859.614
12/02/2014  10:52:00        7.730       33.840       59.444       33.025       45.080       23.708     1090.647     2032.175      562.060        0.421        0.184       34.712       26.220        0.571      334.432        4.401      859.650
12/02/2014  10:53:00       14.145      -21.430       28.147       21.561       36.803       23.561      464.871     1354.430      555.120        0.191        0.119       25.677       22.008        0.735      334.507        4.526      859.615
12/02/2014  10:54:00       34.638      -44.859       14.496       43.131       65.795       36.348     1860.270     4328.925     1321.175        0.546        0.376       56.675       41.412        0.534      334.480        4.482      859.636
12/02/2014  10:55:00       24.929       -1.594       67.309       38.116       58.620       33.578     1452.810     3436.346     1127.498        0.558        0.301       24.980       22.690        0.825      334.510        4.528      859.775
12/02/2014  10:56:00       35.032       26.327       78.680       51.491       70.439       48.419     2651.322     4961.669     2344.368        0.903        0.498       43.822       47.466        1.173      334.381        4.317      859.806
12/02/2014  10:57:00       81.754      -66.669        6.604       62.700       71.103       41.818     3931.291     5055.634     1748.743        1.095        0.537      105.491       52.029        0.243      334.369        4.296      859.762
12/02/2014  10:58:00       40.080        0.242       46.659       50.599       52.430       46.979     2560.257     2748.901     2207.029        0.565        0.376       40.081       34.174        0.727      334.437        4.409      859.707
12/02/2014  10:59:00       36.850       50.851       70.871       46.654       43.753       28.436     2176.596     1914.309      808.609        0.693        0.245       62.799       26.391        0.177      334.390        4.332      859.631
12/02/2014  11:00:00       23.992        7.650       44.798       31.334       38.329       35.484      981.798     1469.135     1259.134        0.317        0.186       25.182       29.045        1.330      334.491        4.498      859.564
12/02/2014  11:01:00       33.090      -15.233       41.305       33.475       56.158       35.638     1120.561     3153.729     1270.090        0.429        0.277       36.428       31.429        0.744      334.446        4.424      859.511
12/02/2014  11:02:00       10.034      -27.331       22.509       27.031       51.310       25.105      730.656     2632.682      630.263        0.267        0.200       29.114       14.734        0.256      334.413        4.371      859.466
12/02/2014  11:03:00       65.782       66.663       56.177       38.651       30.331       27.390     1493.898      919.981      750.229        0.754        0.158       93.655       21.709        0.054      334.383        4.320      859.413
12/02/2014  11:04:00       36.940       34.794        5.576       36.609       28.710       27.631     1340.249      824.275      763.449        0.277        0.146       50.747       16.385        0.104      334.325        4.226      859.354
12/02/2014  11:05:00       86.844       46.779       14.797       32.367       31.908       25.541     1047.632     1018.143      652.364        0.633        0.136       98.641       11.818        0.014      334.327        4.227      859.375
12/02/2014  11:06:00       98.404       61.690       12.975       34.146       34.243       27.485     1165.966     1172.576      755.425        0.837        0.155      116.142       12.125        0.011      334.316        4.209      859.454
12/02/2014  11:07:00       41.806       61.608      -11.646       49.384       49.645       24.402     2438.812     2464.607      595.481        0.559        0.275       74.453       26.773        0.129      334.297        4.177      859.476
12/02/2014  11:08:00       38.555       46.911        3.024       42.961       32.232       22.583     1845.644     1038.883      509.996        0.354        0.170       60.721       20.652        0.116      334.274        4.139      859.459
12/02/2014  11:09:00        8.140       85.805      -13.092       27.658       28.825       13.522      764.988      830.897      182.855        0.469        0.089       86.190        8.340        0.009      334.313        4.204      859.382
12/02/2014  11:10:00       20.594       36.113       -4.091       20.907       20.825       21.399      437.120      433.672      457.914        0.154        0.066       41.573        9.542        0.053      334.408        4.361      859.346
12/02/2014  11:11:00       28.990       28.798        2.686       15.426       18.190       20.360      237.958      330.881      414.515        0.133        0.049       40.862       11.291        0.076      334.353        4.270      859.377
12/02/2014  11:12:00       18.481       23.503        3.557       19.516       16.036       16.914      380.874      257.141      286.069        0.092        0.046       29.899       10.595        0.126      334.400        4.349      859.390
12/02/2014  11:13:00       21.973       58.211        8.255       20.392       33.361       18.924      415.827     1112.968      358.102        0.291        0.094       62.220       14.020        0.051      334.393        4.336      859.378
12/02/2014  11:14:00        7.128       11.949       16.109       17.514       17.845       16.574      306.724      318.445      274.689        0.068        0.045       13.914       13.505        0.942      334.518        4.545      859.350
12/02/2014  11:15:00        2.865       16.930       16.769        9.376       15.393        9.954       87.905      236.931       99.081        0.050        0.021       17.171        4.336        0.064      334.563        4.619      859.318
12/02/2014  11:16:00       -5.291       67.484       -9.425       21.461       29.922        9.916      460.584      895.339       98.331        0.306        0.073       67.691        9.631        0.020      334.397        4.343      859.270
12/02/2014  11:17:00        1.453       57.874        0.024       22.341       33.384       25.004      499.103     1114.466      625.214        0.279        0.112       57.893       26.211        0.205      334.461        4.450      859.229
12/02/2014  11:18:00      -18.212      120.864      -14.373       15.061       31.850       16.282      226.825     1014.409      265.103        0.833        0.075      122.228       13.139        0.012      334.369        4.297      859.188
12/02/2014  11:19:00       71.770       54.611        7.341       55.048       40.689       27.154     3030.296     1655.601      737.358        0.680        0.271       90.184       21.942        0.059      334.482        4.483      859.132
12/02/2014  11:20:00       50.814       38.800       -1.926       46.246       23.777       20.039     2138.706      565.323      401.549        0.360        0.155       63.934       10.989        0.030      334.503        4.519      859.088
12/02/2014  11:21:00      123.105       57.996        1.103       43.183       31.604       27.368     1864.771      998.803      748.993        1.107        0.181      136.082        8.999        0.004      334.497        4.509      859.027
12/02/2014  11:22:00      116.561       86.512       -1.717       32.863       33.282       31.186     1079.959     1107.692      972.563        1.212        0.158      145.158       20.204        0.019      334.423        4.386      858.996
12/02/2014  11:23:00       61.008       72.453       -8.198       45.932       36.353       27.149     2109.728     1321.507      737.092        0.660        0.208       94.718       25.074        0.070      334.431        4.400      858.975
12/02/2014  11:24:00        0.680       93.098      -16.343       16.082       32.506        8.730      258.618     1056.671       76.217        0.516        0.070       93.101        5.159        0.003      334.373        4.303      858.942
12/02/2014  11:25:00       25.999       66.348       -0.178       29.092       27.799       22.951      846.361      772.772      526.754        0.361        0.107       71.260       17.654        0.061      334.531        4.565      858.911
12/02/2014  11:26:00       52.772       47.002       -4.505       26.470       27.217       19.170      700.661      740.753      367.493        0.341        0.090       70.668       16.000        0.051      334.516        4.539      858.853
12/02/2014  11:27:00       41.855       77.926      -11.004       33.874       33.901       26.454     1147.469     1149.310      699.830        0.547        0.150       88.455       24.353        0.076      334.523        4.552      858.811
12/02/2014  11:28:00        3.055      137.691      -15.043       27.883       57.247       21.125      777.454     3277.267      446.245        1.185        0.225      137.724       19.238        0.020      334.524        4.553      858.792
12/02/2014  11:29:00       22.011       70.324       -3.602       26.298       47.876       28.899      691.598     2292.065      835.146        0.463        0.191       73.688       26.664        0.131      334.605        4.687      858.786
12/02/2014  11:30:00       29.032       62.530        4.450       26.310       32.297       30.733      692.239     1043.067      944.533        0.373        0.134       68.941       25.076        0.132      334.607        4.690      858.784
12/02/2014  11:31:00       31.535       59.016       -3.087       29.467       38.332       21.576      868.304     1469.325      465.519        0.364        0.140       66.913       21.079        0.099      334.532        4.567      858.766
12/02/2014  11:32:00       37.880      108.920      -10.891       26.254       41.425       31.888      689.255     1716.066     1016.841        0.842        0.171      115.319       30.520        0.070      334.514        4.536      858.763
12/02/2014  11:33:00      -18.083      123.165      -11.711       22.259       29.460       17.708      495.459      867.907      313.574        0.866        0.084      124.486       15.342        0.015      334.538        4.577      858.765
12/02/2014  11:34:00       13.108      101.408       -1.857       37.245       34.519       26.624     1387.196     1191.528      708.811        0.687        0.164      102.251       19.388        0.036      334.701        4.847      858.750
12/02/2014  11:35:00       89.390       57.077       -2.874       28.147       26.878       23.413      792.262      722.448      548.168        0.666        0.103      106.058       17.110        0.026      334.587        4.658      858.738
12/02/2014  11:36:00       23.312       22.540       -2.230       35.371       20.954       23.229     1251.086      439.085      539.601        0.164        0.111       32.427       15.825        0.238      334.711        4.864      858.690
12/02/2014  11:37:00       44.856       23.846        4.861       31.043       34.044       24.522      963.641     1159.017      601.306        0.266        0.136       50.800       22.027        0.188      334.814        5.035      858.618
12/02/2014  11:38:00       29.516       45.728        8.858       25.302       30.318       23.820      640.207      919.174      567.412        0.258        0.106       54.427       19.359        0.127      334.761        4.948      858.564
12/02/2014  11:39:00       74.774       31.420        8.156       36.290       22.313       22.786     1316.976      497.851      519.203        0.449        0.117       81.107       14.895        0.034      334.766        4.956      858.514
12/02/2014  11:40:00       32.342       47.129        1.530       28.970       49.293       31.578      839.270     2429.813      997.170        0.377        0.213       57.159       28.589        0.250      334.782        4.982      858.472
12/02/2014  11:41:00       47.492       12.463       16.045       35.415       30.447       25.774     1254.223      926.994      664.288        0.276        0.142       49.100       20.583        0.176      334.889        5.159      858.438
12/02/2014  11:42:00       22.499      139.575      -20.068       26.313       44.209       25.533      692.349     1954.469      651.950        1.184        0.165      141.376       20.821        0.022      334.681        4.813      858.409
12/02/2014  11:43:00       46.604      115.132      -16.047       30.092       46.167       25.581      905.555     2131.423      654.383        0.969        0.185      124.207       27.785        0.050      334.709        4.861      858.351
12/02/2014  11:44:00       43.454       50.443        3.623       41.380       34.441       29.648     1712.267     1186.185      878.980        0.411        0.189       66.579       20.293        0.093      334.782        4.982      858.287
12/02/2014  11:45:00        7.772      103.283      -13.802       35.996       79.125       22.420     1295.718     6260.705      502.673        0.949        0.403      103.575       27.445        0.070      334.739        4.909      858.218
12/02/2014  11:46:00       28.170      166.889      -20.596       43.349       75.968       39.488     1879.097     5771.197     1559.329        1.914        0.460      169.250       41.072        0.059      334.719        4.875      858.145
12/02/2014  11:47:00       18.088      148.944      -25.820       38.837       83.998       38.252     1508.309     7055.622     1463.213        1.660        0.501      150.038       46.308        0.095      334.663        4.783      858.074
12/02/2014  11:48:00      -16.608      169.043      -25.386       36.032       37.746       19.946     1298.331     1424.730      397.838        1.631        0.156      169.857       13.910        0.007      334.783        4.982      858.019
12/02/2014  11:49:00       28.644       76.307        0.383       29.474       72.489       31.719      868.739     5254.594     1006.070        0.688        0.356       81.506       39.891        0.240      334.786        4.989      857.970
12/02/2014  11:50:00       46.477       52.797        3.696       32.535       40.220       29.706     1058.534     1617.640      882.459        0.426        0.178       70.339       20.187        0.082      334.798        5.008      857.921
12/02/2014  11:51:00       36.857       36.750        8.605       42.682       27.762       20.462     1821.721      770.702      418.705        0.290        0.151       52.048        8.897        0.029      334.802        5.015      857.893
12/02/2014  11:52:00       67.798       46.742        0.835       46.774       35.365       30.286     2187.847     1250.686      917.216        0.557        0.218       82.349       23.434        0.081      334.818        5.042      857.868
12/02/2014  11:53:00       21.292       45.350       -1.399       33.825       49.221       25.178     1144.104     2422.670      633.909        0.336        0.210       50.099       28.342        0.320      334.848        5.091      857.845
12/02/2014  11:54:00       32.427      141.264      -23.317       29.280       38.039       21.333      857.290     1446.928      455.092        1.215        0.138      144.938       22.036        0.023      334.789        4.992      857.829
12/02/2014  11:55:00       38.780      107.561      -10.214       31.509       46.062       31.033      992.823     2121.679      963.034        0.863        0.204      114.338       22.041        0.037      334.862        5.115      857.817
12/02/2014  11:56:00       43.605       97.026      -16.500       44.723       45.181       28.064     2000.178     2041.354      787.605        0.821        0.241      106.374       21.996        0.043      334.807        5.023      857.811
12/02/2014  11:57:00       26.805       62.647       -2.542       30.663       42.131       29.165      940.246     1775.007      850.588        0.411        0.178       68.140       26.230        0.148      334.822        5.049      857.797
12/02/2014  11:58:00       -7.718      120.879      -21.237       15.862       25.748       11.552      251.614      662.935      133.459        0.808        0.052      121.125       10.537        0.008      334.753        4.934      857.781
12/02/2014  11:59:00       26.279       28.924        6.925       27.684       31.742       19.363      766.427     1007.578      374.920        0.186        0.107       39.079       18.480        0.224      334.904        5.183      857.784
12/02/2014  12:00:00       -4.152      120.617      -15.652       29.024       34.511       19.262      842.386     1190.997      371.009        0.861        0.120      120.688       16.589        0.019      334.892        5.164      857.796
12/02/2014  12:01:00       38.082       68.614       -0.122       42.993       31.301       24.973     1848.418      979.783      623.658        0.480        0.173       78.473       25.310        0.104      334.946        5.255      857.820
12/02/2014  12:02:00       55.556       62.205      -11.571       20.153       21.580       17.314      406.149      465.717      299.769        0.413        0.059       83.402       13.277        0.025      335.017        5.372      857.840
12/02/2014  12:03:00       29.988       31.424       25.848       35.094       17.522       23.196     1231.582      307.015      538.040        0.232        0.104       43.437       21.447        0.244      335.084        5.484      857.850
12/02/2014  12:04:00      119.774       58.189       14.490       32.307       35.640       27.129     1043.717     1270.196      735.973        1.050        0.152      133.160       18.809        0.020      334.968        5.292      857.836
12/02/2014  12:05:00      137.703       70.038        9.540       46.512       38.823       31.983     2163.412     1507.241     1022.934        1.433        0.235      154.491       20.218        0.017      334.934        5.235      857.819
12/02/2014  12:06:00      147.976       98.168       15.909       36.010       36.362       33.088     1296.716     1322.208     1094.810        1.775        0.186      177.578       11.582        0.004      334.966        5.287      857.826
12/02/2014  12:07:00       94.923       39.595       15.878       41.507       32.930       29.147     1722.858     1084.384      849.531        0.724        0.183      102.850       19.805        0.037      335.073        5.467      857.850
12/02/2014  12:08:00       87.085       43.490       11.567       52.870       38.606       31.239     2795.242     1490.392      975.889        0.743        0.263       97.341       12.986        0.018      335.075        5.470      857.874
12/02/2014  12:09:00       84.630       35.607       12.072       50.237       29.580       29.537     2523.715      874.991      872.430        0.642        0.214       91.816       26.954        0.086      335.072        5.465      857.870
12/02/2014  12:10:00      129.585       87.651       21.016       38.847       39.779       34.276     1509.072     1582.396     1174.853        1.459        0.213      156.444       17.424        0.012      335.050        5.427      857.858
12/02/2014  12:11:00      140.630      106.941       10.021       56.087       38.933       33.421     3145.729     1515.748     1116.984        1.854        0.289      176.673       19.098        0.012      335.024        5.384      857.842
12/02/2014  12:12:00      104.165       60.304        4.944       55.544       59.104       29.774     3085.145     3493.239      886.500        1.099        0.373      120.362        2.540        0.000      335.112        5.531      857.833
12/02/2014  12:13:00      112.703       74.892       13.152       43.432       36.283       35.876     1886.301     1316.465     1287.102        1.149        0.224      135.318       23.860        0.031      335.178        5.639      857.831
12/02/2014  12:14:00      116.553       72.842       20.726       52.111       40.590       40.892     2715.570     1647.580     1672.138        1.268        0.302      137.443       31.014        0.051      335.178        5.639      857.832
12/02/2014  12:15:00      163.734       92.961        8.468       48.998       39.692       37.622     2400.828     1575.429     1415.449        2.046        0.270      188.283       25.407        0.018      335.076        5.470      857.840
12/02/2014  12:16:00      126.251       77.614       20.700       46.611       40.320       40.052     2172.613     1625.729     1604.162        1.390        0.270      148.200       14.865        0.010      335.114        5.533      857.861
12/02/2014  12:17:00      166.502       95.841        1.434       58.890       56.517       36.518     3468.076     3194.194     1333.579        2.245        0.400      192.116       29.423        0.023      335.084        5.483      857.904
12/02/2014  12:18:00      133.642       78.828        9.368       54.156       55.248       37.923     2932.884     3052.288     1438.190        1.579        0.371      155.158       15.950        0.011      335.081        5.480      857.942
12/02/2014  12:19:00      142.175       58.689       28.086       71.107       45.777       44.566     5056.171     2095.565     1986.100        1.679        0.457      153.812       29.611        0.037      335.089        5.491      857.952
12/02/2014  12:20:00      124.585       73.272       19.184       73.385       61.986       42.623     5385.386     3842.304     1816.747        1.615        0.552      144.535       26.512        0.034      335.056        5.437      857.912
12/02/2014  12:21:00      142.402       77.021       23.193       47.170       36.962       33.048     2225.037     1366.191     1092.190        1.572        0.234      161.897       23.530        0.021      335.078        5.475      857.879
12/02/2014  12:22:00      203.691      128.260       37.316       67.274       50.086       42.193     4525.845     2508.592     1780.214        3.407        0.441      240.709       17.682        0.005      335.085        5.483      857.860
12/02/2014  12:23:00      136.038       85.663       12.577       69.876       58.542       43.108     4882.721     3427.178     1858.324        1.808        0.508      160.763       39.620        0.061      335.079        5.475      857.853
12/02/2014  12:24:00       64.651       34.177        3.761       54.933       39.884       25.147     3017.649     1590.740      632.347        0.530        0.262       73.129       17.492        0.057      335.118        5.541      857.877
12/02/2014  12:25:00       89.847       54.075        7.762       51.029       50.207       29.314     2603.975     2520.754      859.286        0.852        0.299      104.865       22.297        0.045      335.142        5.579      857.914
12/02/2014  12:26:00       91.040       86.152        7.650       61.580       37.101       33.117     3792.130     1376.496     1096.722        1.102        0.313      125.341       27.789        0.049      335.139        5.573      857.947
12/02/2014  12:27:00      108.204       91.120       14.665       68.691       52.508       35.206     4718.499     2757.043     1239.482        1.447        0.436      141.460       28.160        0.040      335.107        5.522      857.968
12/02/2014  12:28:00       69.989       45.832        9.286       30.477       28.984       26.440      928.859      840.063      699.055        0.478        0.123       83.660       10.462        0.016      335.118        5.543      857.977
12/02/2014  12:29:00       55.592       10.503      -11.492       30.490       32.166       19.326      929.617     1034.655      373.506        0.283        0.117       56.575       13.897        0.060      335.143        5.582      858.009
12/02/2014  12:30:00       51.353       -0.795       11.498       24.133       26.366       21.229      582.388      695.144      450.663        0.225        0.086       51.359       17.808        0.120      335.162        5.611      858.032
12/02/2014  12:31:00       16.599        4.999       12.775       27.611       20.011       15.464      762.351      400.424      239.132        0.093        0.070       17.335       14.019        0.654      335.186        5.651      858.061
12/02/2014  12:32:00        2.567        8.582       22.669       18.694       21.532       26.696      349.464      463.622      712.687        0.106        0.076        8.957       13.288        2.201      335.249        5.756      858.086
12/02/2014  12:33:00       22.226       47.516       56.558       26.201       30.254       25.469      686.514      915.292      648.690        0.410        0.113       52.457       18.502        0.124      335.268        5.789      858.126
12/02/2014  12:34:00       25.567       17.816       11.291       14.162       12.132       11.358      200.566      147.197      128.996        0.079        0.024       31.162        7.286        0.055      335.209        5.688      858.153
12/02/2014  12:35:00       15.954       49.100        2.943       13.406       18.323       13.448      179.732      335.720      180.851        0.169        0.035       51.627       11.936        0.053      335.179        5.639      858.158
12/02/2014  12:36:00        8.413       38.831       -4.881       14.385       13.986       10.532      206.940      195.606      110.916        0.106        0.026       39.732        9.796        0.061      335.210        5.689      858.153
12/02/2014  12:37:00       22.684        9.147        4.279       20.953       17.360        9.981      439.011      301.380       99.630        0.073        0.042       24.459        5.608        0.053      335.215        5.699      858.123
12/02/2014  12:38:00        1.145        3.980       10.632       10.189        6.199        7.356      103.812       38.432       54.117        0.016        0.010        4.142        5.655        1.864      335.257        5.769      858.115
12/02/2014  12:39:00       23.164       19.344       12.374       18.736       16.033       11.083      351.044      257.054      122.839        0.090        0.037       30.179        8.479        0.079      335.248        5.754      858.123
12/02/2014  12:40:00       31.965       18.174       20.292       13.739       15.190       10.320      188.758      230.730      106.500        0.114        0.026       36.770        8.979        0.060      335.241        5.741      858.132
12/02/2014  12:41:00       26.778       14.110       -0.190       13.080       12.300       13.509      171.099      151.283      182.485        0.071        0.025       30.269        8.800        0.085      335.244        5.745      858.105
12/02/2014  12:42:00       31.199        2.543       -7.043       15.718       20.995       15.161      247.048      440.810      229.859        0.097        0.046       31.302        9.090        0.084      335.281        5.808      858.055
12/02/2014  12:43:00       20.522       32.510        5.234       15.319       15.273       15.204      234.682      233.258      231.154        0.110        0.035       38.445       11.490        0.089      335.272        5.795      857.993
12/02/2014  12:44:00       18.763       16.590        6.190       11.100       12.103       10.196      123.219      146.489      103.961        0.052        0.019       25.045        5.718        0.052      335.226        5.717      857.949
12/02/2014  12:45:00       50.288       17.711        0.611       17.380       20.612       13.308      302.065      424.871      177.108        0.187        0.045       53.316        9.763        0.034      335.225        5.716      857.935
12/02/2014  12:46:00       32.609       27.011       24.581       18.003       13.936       10.562      324.123      194.215      111.563        0.151        0.031       42.343        6.968        0.027      335.244        5.752      857.937
12/02/2014  12:47:00       50.455       29.459        0.208        9.262        5.361        6.354       85.781       28.742       40.371        0.178        0.008       58.426        4.609        0.006      335.221        5.710      857.944
12/02/2014  12:48:00       43.799       33.342       18.088       15.819        9.385       11.300      250.238       88.083      127.696        0.191        0.023       55.046        8.775        0.025      335.235        5.733      857.948
12/02/2014  12:49:00       72.143       32.832        8.800       17.828       13.036       12.989      317.846      169.945      168.726        0.351        0.033       79.263        5.638        0.005      335.227        5.719      857.950
12/02/2014  12:50:00       35.465       31.358        0.940       19.746       15.145       13.785      389.924      229.367      190.034        0.153        0.040       47.340        6.823        0.021      335.212        5.696      857.940
12/02/2014  12:51:00       50.919       25.574        1.201       19.282       17.251       17.080      371.791      297.609      291.738        0.210        0.048       56.980       11.657        0.042      335.217        5.702      857.909
12/02/2014  12:52:00       25.267       40.729      -10.487       29.154       17.447       18.848      849.970      304.393      355.253        0.196        0.075       47.930       16.410        0.117      335.226        5.716      857.885
12/02/2014  12:53:00       46.663       55.024        1.627       19.979       23.676       22.739      399.176      560.568      517.067        0.334        0.074       72.147       14.435        0.040      335.181        5.642      857.867
12/02/2014  12:54:00       39.178       37.212       -0.167       20.912       23.164       16.137      437.294      536.565      260.392        0.208        0.062       54.034       11.240        0.043      335.174        5.632      857.844
12/02/2014  12:55:00       37.812       41.509       -5.025       23.946       21.501       18.670      573.431      462.279      348.584        0.228        0.069       56.150       14.944        0.071      335.175        5.634      857.802
12/02/2014  12:56:00       13.100       71.307       -4.175       20.955       26.945       15.282      439.119      726.033      233.547        0.334        0.070       72.501       13.424        0.034      335.161        5.611      857.758
12/02/2014  12:57:00        9.931       49.483        2.812       18.863       39.763       19.047      355.811     1581.111      362.779        0.243        0.115       50.469       21.128        0.175      335.196        5.666      857.707
12/02/2014  12:58:00       12.683       16.048        5.081       19.084       31.847       15.225      364.217     1014.255      231.807        0.103        0.081       20.455       15.673        0.587      335.220        5.708      857.637
12/02/2014  12:59:00       16.969       29.334       -0.281       31.451       22.503       12.892      989.172      506.390      166.207        0.140        0.083       33.888        4.536        0.018      335.175        5.633      857.555
12/02/2014  13:00:00       25.361       67.551      -10.163       25.554       27.727       16.552      653.002      768.777      273.985        0.350        0.085       72.155       14.881        0.043      335.139        5.576      857.510
12/02/2014  13:01:00       15.660       27.657        9.387       16.997       26.093       19.498      288.885      680.851      380.167        0.122        0.067       31.783       17.429        0.301      335.172        5.628      857.474
12/02/2014  13:02:00       55.689       31.818        7.340       32.349       21.864       20.093     1046.468      478.013      403.710        0.305        0.096       64.138       14.049        0.048      335.184        5.649      857.458
12/02/2014  13:03:00       51.292       43.312        4.459       28.046       24.124       13.599      786.564      581.982      184.946        0.304        0.078       67.133       13.185        0.039      335.166        5.618      857.435
12/02/2014  13:04:00       43.654       31.791       -0.639       33.315       22.139       12.744     1109.878      490.155      162.408        0.234        0.088       54.004        7.463        0.019      335.177        5.638      857.406
12/02/2014  13:05:00       72.366       51.640       -5.020       30.591       21.709       18.050      935.787      471.294      325.796        0.483        0.087       88.902        4.330        0.002      335.176        5.635      857.397
12/02/2014  13:06:00       70.688       18.447       -6.224       23.883       16.133       16.268      570.414      260.258      264.642        0.324        0.055       73.056       10.863        0.022      335.172        5.629      857.373
12/02/2014  13:07:00       59.104       23.006       -0.122       18.572       19.262       13.670      344.909      371.015      186.870        0.246        0.045       63.424        8.696        0.019      335.181        5.646      857.304
12/02/2014  13:08:00       27.868       40.281       -2.407       20.001       19.113       14.724      400.026      365.297      216.810        0.169        0.049       48.981       15.220        0.097      335.160        5.608      857.225
12/02/2014  13:09:00       22.715       42.896       -0.422       16.808       20.908       14.637      282.493      437.153      214.246        0.164        0.047       48.539       14.409        0.088      335.179        5.642      857.158
12/02/2014  13:10:00       16.730       41.879        3.803       23.426       22.712       21.355      548.772      515.842      456.043        0.178        0.076       45.097       17.263        0.147      335.187        5.653      857.110
12/02/2014  13:11:00       37.531       69.158       -3.511       22.921       24.780       19.447      525.364      614.067      378.178        0.386        0.076       78.686       15.858        0.041      335.163        5.614      857.061
12/02/2014  13:12:00       52.267       66.574       -6.369       43.641       32.001       28.809     1904.497     1024.038      829.934        0.548        0.188       84.640       27.030        0.102      335.165        5.618      857.019
12/02/2014  13:13:00       58.787       45.576        8.608       34.704       22.028       19.363     1204.344      485.225      374.910        0.384        0.103       74.384       11.585        0.024      335.132        5.565      857.006
12/02/2014  13:14:00       60.879       50.983       -0.913       26.297       18.598       14.771      691.530      345.894      218.190        0.378        0.063       79.407        9.082        0.013      335.127        5.555      857.031
12/02/2014  13:15:00       33.230       15.109        1.801       27.804       26.046       12.940      773.038      678.380      167.452        0.148        0.081       36.503       12.928        0.125      335.204        5.683      857.041
12/02/2014  13:16:00       45.448       62.986       -2.047       22.905       31.335       26.504      524.646      981.902      702.470        0.412        0.110       77.671       18.840        0.059      335.134        5.565      857.004
12/02/2014  13:17:00       73.638       60.536        7.531       33.898       30.259       29.260     1149.100      915.594      856.154        0.603        0.146       95.326       19.993        0.044      335.139        5.576      856.966
12/02/2014  13:18:00       93.863       63.682       22.072       23.948       29.638       27.483      573.491      878.436      755.317        0.778        0.110      113.427       10.981        0.009      335.152        5.596      856.955
12/02/2014  13:19:00       77.920       45.805       20.754       36.304       24.234       22.647     1317.982      587.306      512.892        0.551        0.121       90.386       23.759        0.069      335.189        5.657      856.917
12/02/2014  13:20:00       98.103       23.312       33.104       53.107       42.384       46.683     2820.377     1796.443     2179.339        0.903        0.340      100.835       31.436        0.097      335.215        5.698      856.815
12/02/2014  13:21:00       87.471       38.768       40.899       32.935       38.666       26.970     1084.700     1495.082      727.354        0.707        0.165       95.677       19.255        0.040      335.154        5.599      856.706
12/02/2014  13:22:00       65.740       26.225       15.321       49.117       34.054       30.860     2412.519     1159.696      952.355        0.488        0.226       70.777       17.202        0.059      335.203        5.680      856.599
12/02/2014  13:23:00      116.545       80.120        7.614       50.172       41.571       28.032     2517.207     1728.129      785.772        1.254        0.252      141.429       21.267        0.023      335.177        5.636      856.524
12/02/2014  13:24:00       66.201       61.026       -5.762       40.244       34.437       27.052     1619.577     1185.937      731.788        0.584        0.177       90.037       22.814        0.064      335.196        5.668      856.487
12/02/2014  13:25:00      106.315       76.965       17.538       63.186       38.648       28.998     3992.419     1493.701      840.909        1.193        0.316      131.249       21.034        0.026      335.212        5.695      856.485
12/02/2014  13:26:00       79.369       69.699       10.536       68.778       50.545       44.521     4730.394     2554.819     1982.090        1.027        0.463      105.629       33.877        0.103      335.192        5.660      856.520
12/02/2014  13:27:00      144.925       65.923       17.288       65.533       46.326       45.470     4294.546     2146.066     2067.489        1.708        0.425      159.214       36.261        0.052      335.159        5.607      856.554
12/02/2014  13:28:00      139.971       63.872       29.019       40.742       34.593       32.058     1659.939     1196.685     1027.693        1.420        0.194      153.856       19.946        0.017      335.143        5.581      856.536
12/02/2014  13:29:00       83.559       24.861       26.169       51.917       36.965       32.638     2695.402     1366.420     1065.225        0.671        0.256       87.179       26.211        0.090      335.146        5.586      856.483
12/02/2014  13:30:00       49.296       25.477       36.689       30.244       29.864       18.458      914.700      891.857      340.694        0.329        0.107       55.491       15.558        0.079      335.175        5.636      856.474
12/02/2014  13:31:00       24.578       66.875       67.486       33.510       37.706       26.389     1122.908     1421.735      696.376        0.644        0.162       71.248       23.792        0.112      335.231        5.727      856.500
12/02/2014  13:32:00       26.592       42.921       37.465       36.130       22.093       23.541     1305.401      488.098      554.195        0.315        0.117       50.491       16.270        0.104      335.240        5.740      856.514
12/02/2014  13:33:00      116.766       70.939       21.968       55.239       39.453       40.791     3051.316     1556.543     1663.929        1.271        0.314      136.626       21.296        0.024      335.164        5.615      856.481
12/02/2014  13:34:00      109.328       71.169       41.855       50.129       35.994       36.222     2512.949     1295.541     1312.006        1.194        0.256      130.452       25.453        0.038      335.172        5.630      856.431
12/02/2014  13:35:00       81.543       60.729       42.694       63.910       47.798       42.053     4084.450     2284.696     1768.458        1.015        0.407      101.672       34.124        0.113      335.154        5.600      856.374
12/02/2014  13:36:00       89.540       11.344        6.734       56.502       37.749       36.000     3192.494     1424.972     1295.980        0.705        0.296       90.256       20.082        0.050      335.129        5.558      856.298
12/02/2014  13:37:00       80.944       42.064       11.099       43.124       45.445       31.136     1859.639     2065.223      969.453        0.667        0.245       91.221        7.119        0.006      335.116        5.537      856.195
12/02/2014  13:38:00      101.596       51.396       17.637       25.728       25.300       26.072      661.923      640.111      679.751        0.763        0.099      113.856       12.341        0.012      335.111        5.528      856.086
12/02/2014  13:39:00      108.234       59.014       16.602       43.107       35.945       34.773     1858.232     1292.042     1209.133        0.992        0.218      123.277       19.747        0.026      335.115        5.536      855.996
12/02/2014  13:40:00      122.990       68.264       13.712       28.192       24.011       22.383      794.811      576.545      500.993        1.092        0.094      140.665       15.410        0.012      335.097        5.506      855.950
12/02/2014  13:41:00       81.400       53.059       31.732       46.043       32.361       27.977     2120.001     1047.253      782.709        0.720        0.197       97.166       25.561        0.069      335.132        5.563      855.922
12/02/2014  13:42:00      109.358       40.830        3.013       38.263       24.212       20.466     1464.055      586.237      418.864        0.805        0.123      116.731       18.350        0.025      335.121        5.546      855.892
12/02/2014  13:43:00       96.514       66.132       16.425       37.210       33.865       26.709     1384.614     1146.850      713.359        0.860        0.162      116.997       18.904        0.026      335.165        5.617      855.867
12/02/2014  13:44:00       72.082       52.537        2.546       24.362       27.267       15.485      593.517      743.495      239.775        0.477        0.079       89.196        8.644        0.009      335.165        5.619      855.871
12/02/2014  13:45:00       44.911       41.619       26.381       24.168       30.280       20.375      584.087      916.877      415.123        0.318        0.096       61.230       15.270        0.062      335.212        5.694      855.900
12/02/2014  13:46:00       85.806       45.871       19.213       30.098       25.671       19.910      905.911      658.993      396.391        0.590        0.098       97.298        5.703        0.003      335.184        5.648      855.916
12/02/2014  13:47:00       51.304       28.294       14.983       25.136       22.428       20.659      631.804      502.997      426.798        0.261        0.078       58.589       15.498        0.070      335.217        5.704      855.922
12/02/2014  13:48:00        8.682        1.826       20.922       34.969       25.886       15.838     1222.860      670.069      250.828        0.133        0.107        8.872        7.035        0.629      335.245        5.750      855.923
12/02/2014  13:49:00       59.971       25.165       14.437       32.892       20.227       24.084     1081.889      409.122      580.024        0.325        0.104       65.036       12.690        0.038      335.247        5.753      855.954
12/02/2014  13:50:00       42.846        8.864       20.130       29.161       21.618       21.827      850.375      467.344      476.423        0.206        0.090       43.753       14.784        0.114      335.277        5.802      856.019
12/02/2014  13:51:00       51.476       42.180       21.710       24.602       13.275       17.340      605.270      176.225      300.661        0.299        0.054       66.551       12.064        0.033      335.257        5.768      856.132
12/02/2014  13:52:00       57.478       31.628       26.086       40.030       22.012       27.578     1602.385      484.549      760.531        0.392        0.142       65.605       11.522        0.031      335.309        5.856      856.263
12/02/2014  13:53:00       50.468       58.648       56.338       57.990       32.318       29.391     3362.895     1044.474      863.844        0.721        0.264       77.373       35.180        0.207      335.344        5.914      856.337
12/02/2014  13:54:00       30.889       52.104       67.824       51.349       45.012       26.860     2636.742     2026.108      721.486        0.683        0.269       60.572       22.009        0.132      335.433        6.061      856.345
12/02/2014  13:55:00       90.073       90.974       50.616       46.981       26.974       37.020     2207.244      727.607     1370.462        1.163        0.215      128.021       31.770        0.062      335.303        5.846      856.296
12/02/2014  13:56:00       81.025       67.947       26.507       32.490       28.197       32.738     1055.621      795.078     1071.750        0.740        0.146      105.745       10.461        0.010      335.325        5.882      856.230
12/02/2014  13:57:00      109.352       46.463       16.757       49.894       42.051       25.955     2489.459     1768.318      673.664        0.966        0.247      118.813       26.827        0.051      335.250        5.757      856.199
12/02/2014  13:58:00      103.270       59.041       -1.584       26.817       27.612       22.726      719.129      762.417      516.481        0.808        0.100      118.956       14.506        0.015      335.225        5.714      856.215
12/02/2014  13:59:00       71.047        8.714       23.497       48.686       23.692       28.293     2370.288      561.293      800.487        0.470        0.187       71.579       29.656        0.172      335.251        5.758      856.226
12/02/2014  14:00:00      100.186       37.973       13.230       39.549       35.110       24.941     1564.140     1232.708      622.054        0.754        0.171      107.141       21.004        0.038      335.235        5.732      856.200
12/02/2014  14:01:00       45.960       17.499       36.892       29.212       25.839       24.944      853.369      667.672      622.224        0.296        0.107       49.179       19.482        0.157      335.257        5.771      856.155
12/02/2014  14:02:00       80.698       55.182       11.360       58.272       35.003       26.854     3395.652     1225.197      721.158        0.751        0.267       97.761       21.394        0.048      335.236        5.736      856.104
12/02/2014  14:03:00       76.393       53.199       11.888       49.210       33.648       26.978     2421.628     1132.174      727.816        0.654        0.214       93.091       13.914        0.022      335.233        5.729      856.039
12/02/2014  14:04:00      110.873       92.255       12.872       44.258       29.610       34.354     1958.727      876.780     1180.212        1.249        0.201      144.236       17.644        0.015      335.233        5.728      855.965
12/02/2014  14:05:00      124.016       95.515       13.126       50.157       31.251       29.055     2515.683      976.635      844.203        1.451        0.217      156.534       15.937        0.010      335.196        5.667      855.900
12/02/2014  14:06:00      103.811       55.263       11.832       57.060       36.903       34.283     3255.897     1361.863     1175.355        0.988        0.290      117.604       19.660        0.028      335.189        5.655      855.897
12/02/2014  14:07:00       99.132       51.134        7.520       43.281       25.698       26.544     1873.285      660.377      704.596        0.787        0.162      111.543       16.877        0.023      335.208        5.687      855.989
12/02/2014  14:08:00      120.710       43.928       10.484       46.559       27.332       28.929     2167.774      747.051      836.905        1.018        0.188      128.454       17.204        0.018      335.217        5.703      856.130
12/02/2014  14:09:00      110.377       62.173       23.684       30.921       23.234       26.522      956.110      539.830      703.429        0.940        0.110      126.683       20.985        0.027      335.217        5.702      856.260
12/02/2014  14:10:00       67.463       45.681       47.042       37.046       32.247       41.179     1372.425     1039.843     1695.704        0.648        0.205       81.474       19.316        0.056      335.217        5.703      856.357
12/02/2014  14:11:00       93.361       44.207       12.880       46.702       23.912       28.356     2181.030      571.763      804.068        0.720        0.178      103.298       22.982        0.049      335.184        5.648      856.424
12/02/2014  14:12:00       62.292       46.139       41.556       32.868       26.154       27.603     1080.333      684.024      761.918        0.513        0.126       77.518       20.851        0.072      335.221        5.711      856.459
12/02/2014  14:13:00       82.668       18.522       13.084       49.329       34.378       28.918     2433.313     1181.857      836.256        0.590        0.223       84.718       21.799        0.066      335.252        5.763      856.446
12/02/2014  14:14:00       82.740       69.093       59.136       45.677       30.561       28.175     2086.432      933.971      793.838        0.946        0.191      107.794       19.129        0.031      335.257        5.771      856.400
12/02/2014  14:15:00      100.828       74.870       54.749       44.084       32.303       30.661     1943.404     1043.484      940.102        1.135        0.196      125.586       28.737        0.052      335.273        5.795      856.368
12/02/2014  14:16:00       85.530       95.431       74.750       55.862       38.816       38.456     3120.617     1506.705     1478.872        1.406        0.305      128.150       32.656        0.065      335.233        5.731      856.342
12/02/2014  14:17:00       91.155       84.824       83.168       49.970       48.978       44.465     2497.030     2398.839     1977.145        1.465        0.344      124.517       34.062        0.075      335.188        5.656      856.282
12/02/2014  14:18:00       90.936       66.330       48.138       38.046       40.292       35.712     1447.477     1623.412     1275.336        0.967        0.217      112.556       21.763        0.037      335.202        5.678      856.219
12/02/2014  14:19:00       56.068       55.687       45.013       49.576       39.839       24.204     2457.754     1587.167      585.831        0.645        0.232       79.023       26.103        0.109      335.164        5.616      856.148
12/02/2014  14:20:00       68.735       58.057       55.509       53.415       39.189       40.551     2853.162     1535.801     1644.416        0.860        0.302       89.973       29.389        0.107      335.201        5.675      856.040
12/02/2014  14:21:00       77.394       72.491       74.625       45.446       41.711       36.180     2065.298     1739.827     1308.964        1.096        0.256      106.042       21.945        0.043      335.175        5.632      855.921
12/02/2014  14:22:00      101.403       80.480       60.740       39.698       44.053       35.341     1575.913     1940.666     1249.006        1.261        0.238      129.459       28.531        0.049      335.125        5.554      855.826
12/02/2014  14:23:00      101.875       74.066       60.999       40.800       41.602       35.851     1664.660     1730.738     1285.288        1.213        0.234      125.954       26.799        0.045      335.151        5.595      855.764
12/02/2014  14:24:00       95.793       66.488       34.626       36.840       30.661       22.447     1357.161      940.111      503.890        0.880        0.140      116.606       20.520        0.031      335.163        5.614      855.740
12/02/2014  14:25:00       95.695       47.458       34.956       34.182       33.100       28.616     1168.384     1095.587      818.863        0.786        0.154      106.817       13.023        0.015      335.150        5.594      855.748
12/02/2014  14:26:00      110.946       51.050       22.046       38.643       36.928       28.969     1493.303     1363.651      839.198        0.955        0.185      122.127       21.065        0.030      335.193        5.664      855.817
12/02/2014  14:27:00       77.456       87.378       66.499       55.200       51.038       48.891     3047.056     2604.900     2390.340        1.305        0.402      116.766       43.279        0.137      335.258        5.772      855.904
12/02/2014  14:28:00      145.834       44.062       34.842       79.753       50.181       44.075     6360.607     2518.179     1942.625        1.762        0.541      152.345       42.932        0.079      335.195        5.666      855.912
12/02/2014  14:29:00       18.729       26.103       46.528       57.925       38.489       32.627     3355.341     1481.398     1064.490        0.455        0.295       32.127       24.752        0.594      335.259        5.772      855.828
12/02/2014  14:30:00      102.898       41.197       30.725       48.731       52.323       27.753     2374.671     2737.668      770.245        0.955        0.294      110.839       21.228        0.037      335.198        5.672      855.730
12/02/2014  14:31:00       94.954       26.441       36.036       51.765       42.315       41.157     2679.589     1790.531     1693.937        0.859        0.308       98.567       25.017        0.064      335.159        5.607      855.702
12/02/2014  14:32:00      179.711       56.728       22.944       57.262       59.316       53.592     3278.883     3518.413     2872.136        2.285        0.483      188.452       28.940        0.024      335.140        5.574      855.800
12/02/2014  14:33:00       54.064      -17.628       28.367       54.148       83.855       39.731     2932.015     7031.642     1578.541        0.779        0.577       56.865       49.440        0.756      335.221        5.710      855.954
12/02/2014  14:34:00       44.983      -57.748       28.145       42.124       68.189       48.591     1774.465     4649.778     2361.084        0.747        0.439       73.200       47.202        0.416      335.301        5.843      856.033
12/02/2014  14:35:00       65.695      -83.043        7.556       71.789      106.133       61.151     5153.713    11264.211     3739.431        1.571        1.008      105.887       69.805        0.435      335.245        5.750      856.015
12/02/2014  14:36:00      146.894     -226.023      -34.063       57.611       46.061       29.691     3318.975     2121.634      881.571        4.007        0.316      269.563       19.986        0.005      335.176        5.631      855.964
12/02/2014  14:37:00      126.130     -192.870      -33.614       60.339       43.190       24.921     3640.739     1865.366      621.079        3.018        0.306      230.450       11.030        0.002      335.136        5.566      855.961
12/02/2014  14:38:00      132.325     -144.537      -20.025       59.851       48.594       32.848     3582.198     2361.402     1079.010        2.291        0.351      195.961       27.394        0.020      335.183        5.646      856.002
12/02/2014  14:39:00       73.733      -87.289       41.838       87.810       99.214       62.903     7710.545     9843.495     3956.764        1.815        1.076      114.263       77.490        0.460      335.178        5.637      856.070
12/02/2014  14:40:00        6.802       -5.272       44.957       32.884       44.866       35.893     1081.375     2012.966     1288.337        0.324        0.219        8.606       20.057        5.432      335.224        5.713      856.132
12/02/2014  14:41:00      -18.926       -8.311       61.556       24.065       63.153       24.205      579.120     3988.330      585.899        0.468        0.258       20.670       26.215        1.608      335.243        5.746      856.130
12/02/2014  14:42:00       -8.048       18.678       58.128       27.258       47.778       24.783      742.983     2282.772      614.184        0.372        0.182       20.338       29.356        2.083      335.256        5.767      856.102
12/02/2014  14:43:00       -6.791      -30.997       34.732       45.249       63.947       49.951     2047.462     4089.170     2495.086        0.542        0.432       31.732       45.757        2.079      335.240        5.742      856.067
12/02/2014  14:44:00      108.844     -122.968       -7.302       90.844       75.970       50.590     8252.587     5771.459     2559.362        2.180        0.829      164.220       54.878        0.112      335.103        5.514      856.071
12/02/2014  14:45:00       42.025      -75.182       12.105       44.914       63.956       49.573     2017.226     4090.384     2457.486        0.806        0.428       86.131       47.507        0.304      335.163        5.614      856.090
12/02/2014  14:46:00       16.445        0.536       50.434       53.963       57.807       47.466     2911.978     3341.695     2253.025        0.566        0.425       16.454       48.218        8.588      335.071        5.462      856.095
12/02/2014  14:47:00       41.319      -25.882       39.078       31.317       52.279       32.660      980.779     2733.044     1066.661        0.434        0.239       48.756       26.811        0.302      335.130        5.560      856.081
12/02/2014  14:48:00        8.331      -24.978       38.425       48.138       59.554       38.294     2317.253     3546.623     1466.417        0.475        0.367       26.331       30.370        1.330      335.137        5.571      856.072
12/02/2014  14:49:00       21.309      -46.211       17.660       48.660       55.590       49.110     2367.782     3090.288     2411.823        0.538        0.393       50.888       32.988        0.420      335.082        5.480      856.090
12/02/2014  14:50:00      -14.070      -62.980        8.322       55.119       45.542       38.767     3038.115     2074.052     1502.862        0.542        0.331       64.533       32.359        0.251      335.188        5.655      856.129
12/02/2014  14:51:00      -24.048      -17.653        9.937       26.486       33.559       18.327      701.517     1126.174      335.886        0.158        0.108       29.832       20.500        0.472      335.285        5.816      856.152
12/02/2014  14:52:00      -53.277      -45.021        8.303       39.202       35.008       28.826     1536.807     1225.583      830.925        0.426        0.180       69.751       17.816        0.065      335.207        5.688      856.163
12/02/2014  14:53:00      -37.833      -38.991        7.204       51.315       31.027       31.231     2633.210      962.686      975.355        0.379        0.229       54.328       17.808        0.107      335.248        5.755      856.181
12/02/2014  14:54:00      -46.117      -57.560       -8.627       54.677       46.500       28.065     2989.540     2162.209      787.660        0.573        0.297       73.756       18.592        0.064      335.216        5.701      856.206
12/02/2014  14:55:00       10.628      -74.079       -4.663       37.286       57.135       24.657     1390.261     3264.420      607.956        0.544        0.263       74.837       23.601        0.099      335.292        5.827      856.210
12/02/2014  14:56:00       -9.936      -10.201       25.873       22.830       26.378       29.223      521.198      695.783      853.956        0.147        0.104       14.240       17.862        1.573      335.282        5.812      856.180
12/02/2014  14:57:00       -4.078       -3.071       14.055       23.405       18.239       16.201      547.803      332.669      262.487        0.068        0.057        5.105       12.405        5.905      335.223        5.712      856.124
12/02/2014  14:58:00      -12.520       -5.368        8.323       34.319       19.206       14.642     1177.814      368.880      214.396        0.101        0.088       13.622       13.605        0.998      335.193        5.662      856.054
12/02/2014  14:59:00      -23.033      -27.439       -2.148       49.935       29.552       20.421     2493.491      873.325      417.027        0.254        0.189       35.825       18.300        0.261      335.193        5.663      856.008
12/02/2014  15:00:00       15.487       34.589       54.939       32.370       36.753       36.782     1047.802     1350.795     1352.931        0.410        0.188       37.898       17.809        0.221      335.159        5.608      856.017
12/02/2014  15:01:00       22.594       14.130       52.432       40.144       49.949       51.402     1611.509     2494.948     2642.188        0.510        0.337       26.648       43.691        2.688      335.096        5.505      856.062
12/02/2014  15:02:00       50.521       12.571       59.517       51.821       48.725       42.380     2685.422     2374.126     1796.075        0.655        0.343       52.061       36.452        0.490      335.083        5.483      856.111
12/02/2014  15:03:00      131.972     -129.660       12.992      100.562      136.373       53.511    10112.723    18597.548     2863.390        3.298        1.579      185.010       78.223        0.179      334.980        5.309      856.161
12/02/2014  15:04:00       62.941       45.451       62.397       59.649       46.927       65.225     3558.054     2202.160     4254.309        0.997        0.501       77.637       43.081        0.308      334.914        5.199      856.245
12/02/2014  15:05:00      -35.854       11.340        6.219       55.381       36.675       22.633     3067.068     1345.041      512.252        0.319        0.246       37.604       12.247        0.106      334.968        5.290      856.278
12/02/2014  15:06:00      -14.177      -14.952        0.621       64.369       26.832       19.997     4143.331      719.953      399.883        0.284        0.263       20.604       15.633        0.576      334.981        5.313      856.276
12/02/2014  15:07:00        2.477      -10.370       13.613       20.504       31.432       13.268      420.419      987.942      176.035        0.094        0.079       10.662        9.298        0.761      334.975        5.304      856.230
12/02/2014  15:08:00        0.726        1.567       18.495       18.450       16.249       17.443      340.418      264.039      304.263        0.063        0.045        1.727       10.322       35.730      334.943        5.248      856.173
12/02/2014  15:09:00      -15.291      -34.573       35.589       36.422       49.286       39.149     1326.529     2429.134     1532.671        0.399        0.264       37.803       34.587        0.837      335.024        5.383      856.134
12/02/2014  15:10:00       59.601      -25.091       19.773       46.648       73.220       40.381     2176.036     5361.220     1630.664        0.687        0.458       64.667       51.189        0.627      334.939        5.243      856.117
12/02/2014  15:11:00        8.772      -14.401       24.862       24.073       45.398       26.827      579.525     2060.952      719.690        0.213        0.168       16.862       30.225        3.213      334.971        5.297      856.099
12/02/2014  15:12:00       12.473      -20.989       23.282       29.608       43.248       18.986      876.616     1870.396      360.469        0.212        0.155       24.416       20.502        0.705      334.955        5.269      856.066
12/02/2014  15:13:00       47.788      -43.103        4.581       52.823       43.714       35.964     2790.260     1910.889     1293.421        0.508        0.300       64.355       28.859        0.201      334.908        5.191      856.029
12/02/2014  15:14:00       23.237      -21.005       13.881       45.878       47.460       30.984     2104.752     2252.466      959.978        0.324        0.266       31.323       24.765        0.625      334.860        5.110      855.993
12/02/2014  15:15:00      -19.630        0.752       19.987       24.135       21.663       15.296      582.480      469.286      233.977        0.104        0.064       19.645       10.336        0.277      334.905        5.185      855.961
12/02/2014  15:16:00       35.545      -35.880       22.483       71.578       98.490       48.827     5123.437     9700.306     2384.123        1.013        0.860       50.505       63.159        1.564      334.881        5.146      855.932
12/02/2014  15:17:00       95.780     -163.572       -1.617       58.230       68.407       43.910     3390.698     4679.477     1928.092        2.296        0.500      189.551       44.796        0.056      334.925        5.218      855.899
12/02/2014  15:18:00       81.095     -112.722      -10.755       55.786       90.495       38.110     3112.051     8189.394     1452.356        1.607        0.638      138.862       50.969        0.135      334.890        5.162      855.854
12/02/2014  15:19:00       64.567       76.281       67.178       54.645       53.673       50.479     2986.053     2880.844     2548.166        1.146        0.421       99.938       47.500        0.226      334.779        4.975      855.805
12/02/2014  15:20:00       63.276       28.205       25.810       53.220       29.791       29.444     2832.347      887.485      866.972        0.503        0.229       69.277       28.334        0.167      334.732        4.900      855.782
12/02/2014  15:21:00       19.343      -80.058       -1.514       28.618       64.593       26.249      818.977     4172.274      689.019        0.623        0.284       82.361       32.413        0.155      334.873        5.134      855.803
12/02/2014  15:22:00       -2.338      -53.174       -0.829       64.910       32.589       31.048     4213.280     1062.048      963.954        0.454        0.312       53.225       16.328        0.094      334.930        5.227      855.799
12/02/2014  15:23:00       29.226     -139.265       -4.217       61.109       77.660       35.853     3734.330     6031.001     1285.409        1.566        0.553      142.299       36.790        0.067      334.885        5.152      855.794
12/02/2014  15:24:00       42.271     -106.218       -5.691       58.873       60.806       34.323     3466.057     3697.418     1178.050        1.072        0.417      114.320       26.697        0.055      335.006        5.354      855.776
12/02/2014  15:25:00       36.160       -1.068       24.178       38.075       49.875       36.768     1449.697     2487.518     1351.850        0.359        0.264       36.176       31.250        0.746      334.830        5.061      855.783
12/02/2014  15:26:00       14.610       -5.848       43.663       26.960       41.323       24.309      726.850     1707.552      590.916        0.259        0.151       15.736       23.010        2.138      334.768        4.959      855.790
12/02/2014  15:27:00       62.793       43.501       34.026       42.931       27.749       25.253     1843.045      769.993      637.731        0.512        0.163       76.389       10.480        0.019      334.689        4.827      855.798
12/02/2014  15:28:00      -14.909      -15.825        5.966       39.884       40.534       18.360     1590.700     1642.976      337.081        0.204        0.179       21.742       12.486        0.330      334.705        4.854      855.789
12/02/2014  15:29:00        4.002      -46.252       -8.140       17.190       28.798       20.771      295.492      829.312      431.450        0.189        0.078       46.425       17.637        0.144      334.750        4.930      855.775
12/02/2014  15:30:00       82.562      -80.162      -14.430       60.706       66.575       37.063     3685.231     4432.285     1373.667        1.147        0.475      115.076       46.086        0.160      334.685        4.818      855.757
12/02/2014  15:31:00       14.743       45.486       79.879       50.970       58.044       56.286     2597.935     3369.151     3168.137        0.890        0.457       47.816       58.897        1.517      334.638        4.741      855.741
12/02/2014  15:32:00       80.199       46.284       50.664       86.769       75.885       46.066     7528.946     5758.563     2122.060        1.327        0.770       92.596       39.140        0.179      334.570        4.627      855.727
12/02/2014  15:33:00       81.983       74.245       78.281       76.668       51.786       43.516     5878.016     2681.753     1893.663        1.441        0.523      110.605       34.329        0.096      334.541        4.578      855.694
12/02/2014  15:34:00       43.755       55.060       73.532       53.139       58.600       42.844     2823.805     3433.936     1835.639        0.922        0.405       70.329       34.845        0.245      334.589        4.661      855.659
12/02/2014  15:35:00       41.242       -7.021       22.901       56.100       53.261       48.267     3147.218     2836.693     2329.746        0.529        0.416       41.835       40.587        0.941      334.566        4.620      855.635
12/02/2014  15:36:00      167.399     -135.653       31.619      132.849      175.103       86.198    17648.869    30661.206     7430.019        5.157        2.787      215.463      114.340        0.282      334.528        4.556      855.591
12/02/2014  15:37:00       96.930       12.933       86.173       78.426       89.671       63.590     6150.631     8040.883     4043.738        1.761        0.912       97.789       63.644        0.424      334.540        4.578      855.579
12/02/2014  15:38:00       35.549       61.943      112.087       72.358       93.989       69.525     5235.676     8833.900     4833.752        1.828        0.945       71.419       74.198        1.079      334.578        4.641      855.554
12/02/2014  15:39:00       16.472       77.109       98.780       50.108       66.824       51.675     2510.837     4465.474     2670.301        1.281        0.482       78.849       49.101        0.388      334.600        4.679      855.538
12/02/2014  15:40:00       91.559     -131.168        5.250       79.713      100.777       60.343     6354.168    10155.942     3641.248        2.288        1.008      159.963       70.595        0.195      334.547        4.588      855.522
12/02/2014  15:41:00      142.734     -187.313      -27.456       46.793       48.984       30.211     2189.586     2399.453      912.686        3.086        0.275      235.497       19.512        0.007      334.550        4.591      855.522
12/02/2014  15:42:00       62.597      -35.981       32.238       70.251      107.764       52.824     4935.191    11613.018     2790.399        1.279        0.967       72.202       70.852        0.963      334.517        4.540      855.557
12/02/2014  15:43:00      219.680     -226.626      -58.318       63.533       81.556       46.348     4036.379     6651.404     2148.172        5.793        0.642      315.624       37.913        0.014      334.498        4.506      855.536
12/02/2014  15:44:00       44.434      -16.505       51.782       66.889       69.379       35.647     4474.155     4813.446     1270.697        0.774        0.528       47.401       40.620        0.734      334.515        4.539      855.524
12/02/2014  15:45:00       20.519      -24.301       29.411       55.959       54.712       34.261     3131.417     2993.450     1173.810        0.459        0.365       31.806       32.861        1.067      334.524        4.552      855.478
12/02/2014  15:46:00       68.850     -118.314       15.414       90.124       89.554       44.862     8122.307     8019.835     2012.642        1.856        0.908      136.889       59.926        0.192      334.574        4.634      855.438
12/02/2014  15:47:00      123.929     -113.327        6.312       93.469      106.567       62.991     8736.544    11356.497     3967.896        2.615        1.203      167.933       79.662        0.225      334.496        4.504      855.428
12/02/2014  15:48:00       25.137      -48.713       34.388       44.895       77.161       48.506     2015.601     5953.819     2352.816        0.725        0.516       54.817       49.187        0.805      334.550        4.596      855.435
12/02/2014  15:49:00       54.327      -40.668       14.640       61.966       85.734       54.568     3839.796     7350.256     2977.713        0.949        0.708       67.863       62.508        0.848      334.502        4.517      855.451
12/02/2014  15:50:00       55.768      -47.350       21.911       62.564       64.654       46.758     3914.219     4180.189     2186.333        0.805        0.514       73.158       49.544        0.459      334.487        4.492      855.467
12/02/2014  15:51:00       37.340      -83.632        1.791       42.056       46.837       27.784     1768.733     2193.737      771.926        0.656        0.237       91.589       28.875        0.099      334.585        4.654      855.466
12/02/2014  15:52:00       56.180      -65.377      -10.110       29.669       41.347       22.379      880.260     1709.577      500.826        0.531        0.155       86.199       17.016        0.039      334.523        4.551      855.468
12/02/2014  15:53:00       19.870      -15.438       17.860       26.883       47.371       23.830      722.682     2244.027      567.856        0.224        0.177       25.162       18.677        0.551      334.533        4.567      855.474
12/02/2014  15:54:00        9.632      -45.148       18.850       31.646       61.514       33.233     1001.446     3783.951     1104.432        0.419        0.294       46.164       37.091        0.646      334.561        4.616      855.495
12/02/2014  15:55:00       35.948       33.055       68.802       56.507       80.616       53.986     3193.030     6498.962     2914.491        0.986        0.630       48.835       53.117        1.183      334.526        4.555      855.504
12/02/2014  15:56:00       73.809      -77.994       -2.711       58.420       76.020       55.904     3412.925     5778.991     3125.300        1.193        0.616      107.382       52.357        0.238      334.507        4.525      855.532
12/02/2014  15:57:00       32.316      -37.038       44.314       56.090       70.810       56.232     3146.052     5014.116     3162.029        0.785        0.566       49.154       46.049        0.878      334.464        4.456      855.530
12/02/2014  15:58:00       28.911      -31.518       40.510       37.989       63.923       38.666     1443.202     4086.114     1495.038        0.525        0.351       42.769       41.470        0.940      334.440        4.414      855.535
12/02/2014  15:59:00      -11.079      -27.835       31.730       24.626       69.428       37.366      606.456     4820.287     1396.226        0.436        0.341       29.959       41.257        1.896      334.502        4.517      855.538
12/02/2014  16:00:00       16.422      -22.851       50.730       50.947       65.956       44.699     2595.576     4350.141     1998.030        0.615        0.447       28.140       42.697        2.302      334.530        4.565      855.539
12/02/2014  16:01:00       -8.762       -8.837       50.252       23.746       48.310       32.823      563.857     2333.850     1077.372        0.333        0.199       12.444       32.589        6.858      334.548        4.592      855.569
12/02/2014  16:02:00       66.019      -47.453       22.182       62.502       48.310       40.098     3906.532     2333.823     1607.838        0.747        0.392       81.304       29.750        0.134      334.516        4.541      855.603
12/02/2014  16:03:00       34.290      -37.255       18.117       43.469       50.251       34.711     1889.527     2525.171     1204.874        0.425        0.281       50.633       25.718        0.258      334.482        4.485      855.602
12/02/2014  16:04:00       -4.576      -60.882       10.505       26.429       48.348       34.160      698.491     2337.570     1166.913        0.402        0.210       61.054       29.541        0.234      334.509        4.529      855.614
12/02/2014  16:05:00      -11.111        0.798       41.029       21.383       45.177       24.876      457.224     2040.993      618.796        0.246        0.156       11.139       23.722        4.535      334.450        4.429      855.660
12/02/2014  16:06:00      -16.345       19.581       38.903       29.640       26.550       17.739      878.520      704.927      314.665        0.203        0.095       25.507       10.487        0.169      334.368        4.294      855.712
12/02/2014  16:07:00      -25.626        2.645       25.549       35.202       42.690       26.894     1239.188     1822.441      723.285        0.255        0.189       25.762       23.053        0.801      334.358        4.279      855.733
12/02/2014  16:08:00       32.317      -30.618       30.752       46.039       67.790       38.733     2119.574     4595.435     1500.276        0.557        0.411       44.518       45.701        1.054      334.377        4.312      855.714
12/02/2014  16:09:00      -11.078       -5.126       17.956       16.963       39.758       32.138      287.753     1580.676     1032.837        0.169        0.145       12.207       31.716        6.751      334.387        4.328      855.695
12/02/2014  16:10:00       15.508      -54.148        1.965       49.416       61.057       34.466     2441.943     3728.001     1187.897        0.527        0.368       56.325       35.103        0.388      334.359        4.280      855.711
12/02/2014  16:11:00       -1.692      -73.624        8.402       62.221       76.966       39.140     3871.431     5923.709     1531.950        0.841        0.566       73.643       34.685        0.222      334.376        4.308      855.749
12/02/2014  16:12:00       20.278      -73.618        0.384       42.968       40.305       33.782     1846.280     1624.484     1141.254        0.522        0.231       76.359       26.545        0.121      334.451        4.431      855.785
12/02/2014  16:13:00       16.759      -18.642       30.937       42.132       59.717       41.408     1775.119     3566.179     1714.598        0.432        0.353       25.067       36.786        2.153      334.344        4.255      855.813
12/02/2014  16:14:00       -4.414      -29.512       17.581       30.656       35.883       19.415      939.772     1287.590      376.935        0.190        0.130       29.841       11.939        0.160      334.347        4.261      855.827
12/02/2014  16:15:00       33.182      -28.050       11.955       33.069       42.495       29.548     1093.590     1805.788      873.071        0.290        0.189       43.449       25.921        0.356      334.262        4.120      855.833
12/02/2014  16:16:00       28.150      -40.797       16.471       55.862       41.732       31.696     3120.563     1741.551     1004.622        0.430        0.293       49.566       26.646        0.289      334.209        4.030      855.860
12/02/2014  16:17:00       -4.135      -19.944       10.000       45.679       54.688       33.822     2086.569     2990.796     1143.902        0.337        0.311       20.368       14.402        0.500      334.215        4.041      855.881
12/02/2014  16:18:00      -13.993      -14.333       22.207       27.417       33.958       23.536      751.682     1153.133      553.943        0.168        0.123       20.031       23.618        1.390      334.267        4.128      855.902
12/02/2014  16:19:00       -3.822       -2.147       22.388       21.842       32.298       15.716      477.078     1043.188      246.988        0.114        0.088        4.384       11.779        7.220      334.305        4.192      855.927
12/02/2014  16:20:00      -32.795     -111.943      -14.692       57.861       44.499       30.553     3347.910     1980.140      933.458        1.004        0.313      116.648       21.404        0.034      334.269        4.131      855.939
12/02/2014  16:21:00      -39.462      -33.006       19.660       50.468       49.503       27.273     2546.973     2450.545      743.843        0.439        0.287       51.446       32.301        0.394      334.196        4.009      855.938
12/02/2014  16:22:00      -24.024        4.535        6.048       34.881       26.406       17.391     1216.662      697.287      302.439        0.142        0.111       24.448        8.627        0.125      334.214        4.039      855.917
12/02/2014  16:23:00      -34.835      -23.270       -6.232       22.431       32.203       23.243      503.169     1037.023      540.246        0.194        0.104       41.892       18.023        0.185      334.171        3.968      855.908
12/02/2014  16:24:00       -8.478        4.698        0.115       38.219       27.599       19.737     1460.676      761.700      389.553        0.135        0.131        9.692       14.389        2.204      334.185        3.991      855.897
12/02/2014  16:25:00      -13.229       -1.607        7.254       30.220       19.357       14.990      913.235      374.698      224.707        0.087        0.076       13.327       13.617        1.044      334.199        4.015      855.874
12/02/2014  16:26:00      -70.729      -38.722        1.663       65.393       33.398       20.229     4276.292     1115.431      409.229        0.615        0.290       80.635       22.309        0.077      334.175        3.974      855.867
12/02/2014  16:27:00     -136.050      -80.465       -4.135       53.845       40.397       30.542     2899.329     1631.895      932.785        1.523        0.273      158.064       22.429        0.020      333.972        3.635      855.887
12/02/2014  16:28:00     -188.724     -120.385        4.702       74.628       59.057       44.473     5569.336     3487.726     1977.839        3.058        0.552      223.851       43.213        0.037      333.844        3.421      855.938
12/02/2014  16:29:00     -182.593      -97.530        1.055       76.279       64.873       40.209     5818.538     4208.535     1616.778        2.725        0.582      207.008       40.276        0.038      333.879        3.481      855.998
12/02/2014  16:30:00     -155.916      -80.404        5.208       74.886       69.418       40.573     5607.893     4818.900     1646.138        2.143        0.604      175.427       40.685        0.054      333.875        3.475      856.016
12/02/2014  16:31:00      -92.976      -72.873       -7.144       71.027       55.365       42.719     5044.809     3065.230     1824.884        1.197        0.497      118.131       38.049        0.104      333.860        3.452      856.015
12/02/2014  16:32:00      -92.109     -128.687        1.775       71.906       80.071       39.176     5170.490     6411.391     1534.729        1.908        0.656      158.254       32.101        0.041      333.889        3.497      855.999
12/02/2014  16:33:00     -124.853      -65.875       -5.016       35.093       45.682       24.211     1231.529     2086.816      586.173        1.193        0.195      141.166       19.922        0.020      333.885        3.494      855.985
12/02/2014  16:34:00      -76.991      -96.349      -16.576       39.770       35.840       22.711     1581.630     1284.528      515.803        0.943        0.169      123.332        9.070        0.005      333.897        3.513      855.983
12/02/2014  16:35:00     -102.356      -87.274        7.075       79.218       49.232       30.457     6275.453     2423.779      927.658        1.388        0.481      134.512       40.881        0.092      333.858        3.448      855.984
12/02/2014  16:36:00     -120.778      -78.111       10.563       54.313       36.187       31.263     2949.948     1309.467      977.352        1.302        0.262      143.835       32.361        0.051      333.858        3.448      855.987
12/02/2014  16:37:00     -131.814      -77.357       10.727       58.355       48.561       30.904     3405.317     2358.143      955.066        1.509        0.336      152.836       27.621        0.033      333.824        3.391      856.010
12/02/2014  16:38:00     -170.273     -114.224        2.561       59.900       64.565       33.836     3588.026     4168.579     1144.853        2.547        0.445      205.036       34.724        0.029      333.804        3.356      856.019
12/02/2014  16:39:00     -124.758     -120.762       -0.397       64.590       61.541       33.752     4171.846     3787.239     1139.188        1.962        0.455      173.632       26.561        0.023      333.780        3.319      856.023
12/02/2014  16:40:00     -147.779     -101.192       -6.460       49.425       42.987       29.429     2442.814     1847.897      866.079        1.864        0.258      179.105       24.514        0.019      333.755        3.276      856.021
12/02/2014  16:41:00     -141.349      -74.287       -5.878       70.146       44.754       31.325     4920.439     2002.934      981.248        1.672        0.395      159.681       29.934        0.035      333.751        3.268      856.020
12/02/2014  16:42:00     -129.941      -59.630       -4.393       45.783       36.467       24.764     2096.115     1329.840      613.276        1.225        0.202      142.969       23.657        0.027      333.802        3.355      856.014
12/02/2014  16:43:00      -97.362      -39.695        7.425       74.781       51.931       26.693     5592.207     2696.828      712.502        1.005        0.450      105.143       35.896        0.117      333.852        3.440      856.004
12/02/2014  16:44:00     -108.386      -33.809        2.776       76.196       45.300       26.383     5805.789     2052.128      696.054        1.072        0.428      113.536       34.351        0.092      333.779        3.316      855.994
12/02/2014  16:45:00     -113.933      -80.416       -7.115       59.688       46.992       33.115     3562.673     2208.246     1096.636        1.318        0.343      139.454       28.966        0.043      333.766        3.297      855.981
12/02/2014  16:46:00     -132.450      -69.691       -1.652       65.125       53.711       26.028     4241.261     2884.820      677.450        1.510        0.390      149.666       37.319        0.062      333.740        3.252      855.944
12/02/2014  16:47:00     -117.283     -108.038       -5.222       42.537       37.677       20.254     1809.432     1419.572      410.233        1.455        0.182      159.460        5.076        0.001      333.708        3.201      855.906
12/02/2014  16:48:00     -103.693      -10.062       -8.919       47.472       36.675       17.283     2253.564     1345.038      298.697        0.741        0.195      104.180       22.265        0.046      333.713        3.208      855.855
12/02/2014  16:49:00      -53.436       13.557       -5.082       37.898       27.343       23.504     1436.289      747.615      552.457        0.290        0.137       55.129       25.709        0.217      333.713        3.209      855.798
12/02/2014  16:50:00        8.953        9.068       14.386       16.489       30.644       22.431      271.872      939.060      503.146        0.104        0.086       12.743       18.583        2.127      333.816        3.379      855.738
12/02/2014  16:51:00        3.529       31.368       53.847       23.574       36.154       22.584      555.739     1307.098      510.026        0.313        0.119       31.566       20.372        0.417      333.835        3.411      855.680
12/02/2014  16:52:00        4.916       46.399       70.289       23.905       31.312       19.734      571.463      980.461      389.411        0.453        0.097       46.658       16.448        0.124      333.802        3.357      855.623
12/02/2014  16:53:00        2.412        9.646       45.781       18.530       31.249       17.220      343.350      976.516      296.517        0.191        0.081        9.943       15.641        2.474      333.831        3.404      855.596
12/02/2014  16:54:00       21.555        5.163       29.530       25.126       20.200       18.500      631.336      408.037      342.241        0.137        0.069       22.165       14.443        0.425      333.807        3.365      855.595
12/02/2014  16:55:00       13.346      -11.080       18.936       19.789       28.646       24.240      391.600      820.599      587.573        0.123        0.090       17.346       21.182        1.491      333.878        3.482      855.615
12/02/2014  16:56:00       27.662      -64.992       -8.191       26.509       38.318       18.778      702.731     1468.268      352.609        0.379        0.126       70.633       18.085        0.066      333.902        3.522      855.640
12/02/2014  16:57:00       34.323      -49.535      -15.483       22.960       32.713       14.572      527.183     1070.117      212.346        0.284        0.090       60.265        5.950        0.010      333.842        3.424      855.666
12/02/2014  16:58:00       -7.074       11.304       -8.905       37.997       27.096       20.165     1443.797      734.201      406.624        0.142        0.129       13.335       19.118        2.055      333.865        3.462      855.673
12/02/2014  16:59:00      -62.543       -0.098        2.383       32.892       37.419       20.503     1081.859     1400.179      420.362        0.341        0.145       62.543       17.723        0.080      333.806        3.363      855.683
12/02/2014  17:00:00      -60.634      -32.401        4.950       52.963       43.231       22.344     2805.056     1868.889      499.243        0.496        0.259       68.748       22.872        0.111      333.872        3.473      855.697
12/02/2014  17:01:00      -88.098      -58.358       -0.482       50.239       30.016       21.970     2523.967      900.931      482.698        0.754        0.195      105.674       17.343        0.027      333.850        3.435      855.699
12/02/2014  17:02:00      -73.010      -53.638        0.616       27.971       37.178       21.418      782.353     1382.226      458.750        0.542        0.131       90.595       20.816        0.053      333.776        3.311      855.677
12/02/2014  17:03:00     -143.582      -19.682      -14.123       43.200       26.006       21.935     1866.247      676.305      481.144        1.211        0.151      144.924       22.103        0.023      333.792        3.338      855.648
12/02/2014  17:04:00     -111.311      -50.398      -10.584       55.203       42.127       26.205     3047.408     1774.650      686.723        1.027        0.275      122.188       30.116        0.061      333.815        3.376      855.614
12/02/2014  17:05:00     -124.552        2.299      -16.083       36.252       42.444       26.469     1314.180     1801.516      700.607        0.980        0.191      124.573       20.123        0.026      333.742        3.256      855.577
12/02/2014  17:06:00     -115.095      -35.092       -4.324       64.578       32.110       32.145     4170.331     1031.069     1033.310        1.036        0.312      120.326       38.884        0.104      333.649        3.100      855.542
12/02/2014  17:07:00      -44.960      -12.816       -5.840       35.079       18.042       15.296     1230.509      325.496      233.983        0.200        0.089       46.751       17.359        0.138      333.679        3.152      855.491
12/02/2014  17:08:00      -30.611       39.039        0.493       28.601       32.539       13.793      818.012     1058.791      190.259        0.226        0.103       49.610       10.339        0.043      333.743        3.258      855.469
12/02/2014  17:09:00      -61.778       29.080      -16.587       22.880       20.377       11.723      523.485      415.225      137.438        0.301        0.054       68.280        9.120        0.018      333.570        2.971      855.508
12/02/2014  17:10:00        3.561       -7.615        7.001       24.316       36.662       23.142      591.276     1344.110      535.554        0.129        0.124        8.406       18.676        4.936      333.680        3.154      855.579
12/02/2014  17:11:00      -44.983      -41.255        4.412       40.148       28.318       20.359     1611.862      801.885      414.483        0.329        0.141       61.036       21.412        0.123      333.763        3.290      855.644
12/02/2014  17:12:00      -41.345      -23.733       14.396       60.223       40.829       35.306     3626.783     1666.999     1246.525        0.451        0.327       47.673       31.183        0.428      333.666        3.130      855.683
12/02/2014  17:13:00     -139.203      -47.222       -7.682       34.588       40.462       25.628     1196.327     1637.138      656.805        1.258        0.175      146.995       19.440        0.017      333.553        2.943      855.735
12/02/2014  17:14:00     -159.018      -16.427       -5.913       45.489       30.992       25.829     2069.209      960.508      667.120        1.464        0.185      159.864       24.439        0.023      333.498        2.852      855.794
12/02/2014  17:15:00     -130.875      -31.049       -7.389       64.230       42.185       25.839     4125.507     1779.608      667.668        1.236        0.329      134.508       26.524        0.039      333.510        2.870      855.834
12/02/2014  17:16:00     -106.326      -27.864        0.239       52.590       50.700       32.077     2765.726     2570.463     1028.910        0.922        0.318      109.916       24.892        0.051      333.537        2.915      855.848
12/02/2014  17:17:00      -25.472      -32.962        9.701       37.364       36.805       20.453     1396.069     1354.597      418.315        0.250        0.158       41.657       20.896        0.252      333.485        2.830      855.857
12/02/2014  17:18:00      -98.341      -32.005        0.718       64.758       51.168       27.420     4193.569     2618.205      751.842        0.913        0.378      103.418       32.251        0.097      333.456        2.782      855.857
12/02/2014  17:19:00     -164.066      -14.787       -9.372       51.916       56.100       27.598     2695.293     3147.217      761.672        1.691        0.330      164.731       21.191        0.017      333.350        2.607      855.859
12/02/2014  17:20:00     -174.438      -23.410       -9.869       70.415       41.242       35.400     4958.305     1700.889     1253.138        1.949        0.396      176.002       40.080        0.052      333.372        2.642      855.863
12/02/2014  17:21:00     -199.352      -93.413       -3.202       65.449       55.958       32.267     4283.629     3131.334     1041.175        2.847        0.423      220.152       31.997        0.021      333.328        2.569      855.870
12/02/2014  17:22:00     -208.382      -80.503       -5.479       59.763       41.246       31.705     3571.560     1701.249     1005.227        2.810        0.314      223.392       30.633        0.019      333.309        2.538      855.875
12/02/2014  17:23:00     -179.189      -56.723      -14.631       39.881       62.752       23.022     1590.528     3937.784      530.003        2.080        0.303      187.952       19.995        0.011      333.328        2.569      855.878
12/02/2014  17:24:00     -180.324      -73.948       -1.500       58.529       50.384       29.805     3425.632     2538.581      888.355        2.242        0.343      194.898       27.616        0.020      333.315        2.547      855.897
12/02/2014  17:25:00     -198.097      -63.138       -8.177       53.670       41.878       30.496     2880.492     1753.796      930.014        2.443        0.278      207.916       28.907        0.019      333.289        2.503      855.929
12/02/2014  17:26:00     -186.903      -61.990       -4.237       64.733       45.359       25.629     4190.339     2057.435      656.845        2.285        0.345      196.915       29.383        0.022      333.300        2.523      855.945
12/02/2014  17:27:00     -153.423       -7.509       -8.379       64.658       37.153       29.779     4180.660     1380.332      886.771        1.506        0.322      153.606       31.259        0.041      333.297        2.518      855.924
12/02/2014  17:28:00     -205.725      -20.898      -13.468       42.544       42.285       26.226     1809.983     1787.985      687.790        2.361        0.214      206.784       24.157        0.014      333.272        2.477      855.898
12/02/2014  17:29:00     -167.281      -45.885       -8.397       35.175       33.835       20.385     1237.247     1144.799      415.554        1.648        0.140      173.460       18.581        0.011      333.270        2.475      855.889
12/02/2014  17:30:00      -79.359      -46.798       -3.663       45.851       31.726       17.150     2102.331     1006.515      294.114        0.595        0.170       92.130       14.425        0.025      333.322        2.561      855.901
12/02/2014  17:31:00     -145.194      -39.123      -10.478       50.431       35.585       23.311     2543.249     1266.314      543.385        1.354        0.218      150.373       19.377        0.017      333.272        2.478      855.912
12/02/2014  17:32:00     -129.756      -42.105      -11.390       24.937       22.956       18.469      621.853      526.979      341.110        1.011        0.074      136.416       14.063        0.011      333.297        2.518      855.925
12/02/2014  17:33:00      -85.144      -56.953        2.303       33.142       28.411       22.272     1098.424      807.169      496.033        0.645        0.120      102.436       17.258        0.028      333.375        2.649      855.920
12/02/2014  17:34:00      -93.133      -31.844        1.373       40.993       44.894       22.916     1680.405     2015.477      525.121        0.695        0.211       98.426       22.738        0.053      333.363        2.628      855.907
12/02/2014  17:35:00     -132.405      -26.305       -7.847       47.495       34.850       28.136     2255.779     1214.556      791.625        1.127        0.213      134.993       27.230        0.041      333.273        2.480      855.908
12/02/2014  17:36:00     -146.577      -12.240       -7.809       61.197       35.609       28.182     3745.033     1268.008      794.212        1.375        0.290      147.087       28.394        0.037      333.289        2.505      855.930
12/02/2014  17:37:00     -152.226      -32.590      -10.312       46.143       32.784       23.221     2129.160     1074.782      539.236        1.404        0.187      155.675       20.742        0.018      333.236        2.416      855.957
12/02/2014  17:38:00     -153.459      -44.579       -8.440       43.663       30.267       18.666     1906.483      916.095      348.433        1.439        0.159      159.803       19.898        0.016      333.271        2.477      855.964
12/02/2014  17:39:00     -131.342      -12.754      -15.900       29.060       29.808       17.943      844.495      888.488      321.967        0.986        0.103      131.960       14.264        0.012      333.259        2.457      855.961
12/02/2014  17:40:00      -82.991      -17.596       -2.815       36.158       30.943       20.693     1307.410      957.445      428.202        0.495        0.135       84.836       16.948        0.040      333.314        2.548      855.945
12/02/2014  17:41:00      -74.046      -23.006       -9.563       33.300       37.429       15.604     1108.893     1400.918      243.489        0.443        0.138       77.538       16.954        0.048      333.321        2.556      855.914
12/02/2014  17:42:00     -109.484      -31.304       -8.558       26.890       37.729       13.564      723.073     1423.487      183.994        0.768        0.117      113.871       12.673        0.012      333.381        2.660      855.890
12/02/2014  17:43:00      -97.729      -14.769      -12.465       18.621       36.088       19.835      346.740     1302.309      393.425        0.598        0.102       98.838       18.404        0.035      333.423        2.725      855.874
12/02/2014  17:44:00      -85.160      -38.792       -9.529       37.388       28.314       18.201     1397.852      801.707      331.280        0.569        0.127       93.579       10.011        0.011      333.387        2.668      855.882
12/02/2014  17:45:00     -128.975      -73.739       -8.114       37.544       37.475       20.546     1409.566     1404.342      422.127        1.269        0.162      148.566       15.226        0.011      333.311        2.542      855.902
12/02/2014  17:46:00     -172.859      -58.083      -17.731       30.341       25.399       18.451      920.560      645.106      340.453        1.774        0.095      182.356       16.380        0.008      333.192        2.344      855.925
12/02/2014  17:47:00     -111.607      -32.493       14.173       41.267       52.335       35.001     1702.996     2738.959     1225.068        0.969        0.283      116.241       33.943        0.085      333.226        2.401      855.931
12/02/2014  17:48:00     -102.171      -28.520       -7.931       41.299       35.071       22.369     1705.602     1229.990      500.354        0.737        0.172      106.077       24.972        0.055      333.244        2.430      855.912
12/02/2014  17:49:00      -86.045      -40.226       -5.503       49.131       44.740       22.016     2413.811     2001.676      484.715        0.698        0.245       94.984       23.555        0.061      333.202        2.361      855.886
12/02/2014  17:50:00      -74.405      -37.656       -2.835       25.471       47.349       23.550      648.771     2241.925      554.598        0.520        0.172       83.392       27.356        0.108      332.280        0.841      855.845
12/02/2014  17:51:00      -73.150       28.107       -7.137       32.193       41.261       25.847     1036.421     1702.497      668.078        0.480        0.170       78.364       24.333        0.096      331.982        0.349      855.766
12/02/2014  17:52:00      -40.306       40.012       -0.631       35.337       75.333       35.308     1248.671     5674.991     1246.668        0.570        0.409       56.794       47.072        0.687      332.143        0.616      855.675
12/02/2014  17:53:00      -36.325       77.905       -6.390       45.429       75.304       41.756     2063.789     5670.708     1743.572        0.845        0.474       85.957       54.990        0.409      333.171        2.311      855.655
12/02/2014  17:54:00      -77.004       65.856      -15.665       18.328       50.120       18.537      335.922     2511.990      343.615        0.685        0.160      101.324       16.711        0.027      333.288        2.504      855.693
12/02/2014  17:55:00     -103.773      -24.357       -8.317       23.142       27.044       20.129      535.566      731.382      405.159        0.655        0.084      106.593       11.668        0.012      333.360        2.625      855.750
12/02/2014  17:56:00     -109.402      -25.981       -6.581       29.868       39.391       18.339      892.111     1551.687      336.331        0.773        0.139      112.444       12.720        0.013      333.313        2.545      855.779
12/02/2014  17:57:00     -106.352       -9.378      -16.108       22.792       24.795       17.591      519.493      614.790      309.458        0.655        0.072      106.764       14.225        0.018      333.261        2.458      855.742
12/02/2014  17:58:00     -111.379      -11.328       -7.972       29.674       26.887       19.136      880.546      722.891      366.186        0.728        0.098      111.954       16.057        0.021      333.215        2.384      855.671
12/02/2014  17:59:00      -76.638       13.986      -12.420       27.355       31.831       13.950      748.304     1013.210      194.601        0.409        0.098       77.904       12.545        0.026      333.204        2.364      855.567
12/02/2014  18:00:00      -54.434       23.382       -1.287       26.012       16.439       15.548      676.618      270.226      241.746        0.235        0.059       59.244       15.629        0.070      333.195        2.350      855.459
12/02/2014  18:01:00      -20.770       98.924       -7.057       28.456       39.072       23.109      809.748     1526.658      534.043        0.657        0.144      101.081       18.394        0.033      333.402        2.692      855.362
12/02/2014  18:02:00        9.471      133.370      -19.618       16.949       20.611       15.646      287.279      424.795      244.808        0.961        0.048      133.706        9.615        0.005      333.190        2.342      855.256
12/02/2014  18:03:00       20.669      133.519      -23.468       32.369       39.821       23.074     1047.753     1585.721      532.398        1.098        0.158      135.110       23.144        0.029      333.175        2.318      855.187
12/02/2014  18:04:00        2.100      101.113       -8.300       44.371       54.575       31.803     1968.813     2978.386     1011.451        0.813        0.298      101.135       33.983        0.113      333.127        2.240      855.177
12/02/2014  18:05:00       -8.717       32.968       17.573       38.220       82.748       48.687     1460.804     6847.218     2370.427        0.607        0.534       34.101       59.507        3.045      333.149        2.277      855.227
12/02/2014  18:06:00      -40.951      -11.564       -5.226       28.961       17.629       19.809      838.727      310.794      392.408        0.169        0.077       42.553       19.182        0.203      333.338        2.587      855.293
12/02/2014  18:07:00     -100.423       -6.436      -10.982       21.629       18.185       14.579      467.828      330.694      212.539        0.563        0.051      100.629       12.605        0.016      333.302        2.527      855.305
12/02/2014  18:08:00     -119.435       26.622      -14.152       18.809       15.814       11.617      353.761      250.095      134.964        0.796        0.037      122.366        9.807        0.006      333.177        2.322      855.294
12/02/2014  18:09:00      -80.650       14.665       -9.276       26.068       18.628       14.858      679.528      346.984      220.760        0.403        0.062       81.972       10.265        0.016      333.211        2.376      855.329
12/02/2014  18:10:00      -72.813       -4.310      -11.491       21.630       12.706       10.618      467.873      161.440      112.750        0.310        0.037       72.940       10.599        0.021      333.269        2.472      855.399
12/02/2014  18:11:00      -77.734      -28.468      -11.510       47.045       34.716       19.677     2213.250     1205.172      387.184        0.539        0.190       82.783       11.766        0.020      333.327        2.570      855.457
12/02/2014  18:12:00     -109.694      -53.367       -7.831       42.132       30.257       24.649     1775.120      915.505      607.560        0.912        0.165      121.987       17.626        0.021      333.273        2.480      855.472
12/02/2014  18:13:00     -179.805      -52.645       -8.845       30.423       32.926       18.556      925.538     1084.094      344.314        1.877        0.118      187.353       11.773        0.004      333.139        2.258      855.472
12/02/2014  18:14:00     -135.714      -40.260       -3.818       40.023       35.545       23.197     1601.840     1263.424      538.088        1.173        0.170      141.560       20.803        0.022      333.145        2.268      855.443
12/02/2014  18:15:00     -106.594      -28.677      -11.633       48.299       49.830       24.204     2332.765     2483.050      585.817        0.886        0.270      110.384       25.273        0.052      333.145        2.269      855.410
12/02/2014  18:16:00      -78.038      -12.240       -7.013       35.548       49.960       22.128     1263.650     2496.015      489.669        0.527        0.212       78.992       21.955        0.077      333.211        2.377      855.383
12/02/2014  18:17:00      -58.646      -34.132       -9.726       61.348       33.364       27.352     3763.584     1113.159      748.140        0.516        0.281       67.855       30.443        0.201      333.252        2.445      855.377
12/02/2014  18:18:00      -72.133       12.699       -6.670       32.173       19.164       19.758     1035.073      367.277      390.371        0.360        0.090       73.242       19.456        0.071      333.253        2.445      855.372
12/02/2014  18:19:00      -93.360      -23.775       -7.436       34.107       23.847       21.333     1163.275      568.697      455.116        0.576        0.109       96.339       20.932        0.047      333.306        2.534      855.387
12/02/2014  18:20:00      -49.781      -31.935       -8.945       51.029       27.922       22.297     2603.987      779.635      497.149        0.373        0.194       59.143       25.116        0.180      333.275        2.481      855.421
12/02/2014  18:21:00      -94.599      -45.738        1.741       63.670       38.497       24.977     4053.837     1482.010      623.833        0.860        0.308      105.076       33.219        0.100      333.244        2.430      855.462
12/02/2014  18:22:00     -137.085      -49.583      -14.256       20.361       22.407       17.321      414.569      502.058      300.031        1.134        0.061      145.776        9.589        0.004      333.268        2.473      855.481
12/02/2014  18:23:00     -142.895      -48.947      -13.396       41.125       33.516       17.845     1691.230     1123.301      318.450        1.306        0.157      151.046       10.722        0.005      333.213        2.381      855.471
12/02/2014  18:24:00     -146.783       -4.252      -25.281       36.301       22.029       17.812     1317.730      485.297      317.262        1.216        0.106      146.844       18.334        0.016      333.142        2.262      855.476
12/02/2014  18:25:00     -100.388      -13.360       -8.901       32.498       28.340       22.353     1056.117      803.183      499.666        0.635        0.118      101.273       22.109        0.048      333.125        2.236      855.503
12/02/2014  18:26:00      -53.237       -4.815      -11.821       25.276       22.404       13.398      638.880      501.921      179.501        0.216        0.066       53.454       13.070        0.060      333.187        2.337      855.492
12/02/2014  18:27:00      -63.020       16.155       -6.928       29.104       25.874       20.184      847.071      669.472      407.387        0.310        0.096       65.057       21.305        0.107      333.255        2.449      855.462
12/02/2014  18:28:00     -114.518       -1.638      -17.500       22.490       39.777       13.856      505.784     1582.234      191.992        0.785        0.114      114.530        4.754        0.002      333.351        2.608      855.489
12/02/2014  18:29:00      -91.945       -6.372       -5.859       25.047       23.009       16.378      627.374      529.410      268.234        0.498        0.071       92.166        8.773        0.009      333.337        2.587      855.552
12/02/2014  18:30:00     -141.394      -45.253      -12.376       34.255       40.894       20.784     1173.434     1672.299      431.990        1.273        0.164      148.459       18.332        0.015      333.272        2.478      855.588
12/02/2014  18:31:00      -96.292      -20.342       -4.804       41.152       32.412       20.535     1693.520     1050.533      421.678        0.644        0.158       98.417       21.744        0.049      333.287        2.502      855.571
12/02/2014  18:32:00      -99.419       38.545      -13.512       26.152       18.550       12.609      683.905      344.111      158.988        0.637        0.059      106.630       11.207        0.011      333.287        2.500      855.534
12/02/2014  18:33:00      -82.069       40.712      -13.596       30.611       17.908       19.799      937.031      320.710      392.008        0.511        0.082       91.612       13.019        0.020      333.312        2.546      855.465
12/02/2014  18:34:00      -68.840       65.158      -17.426       30.765       30.267       20.675      946.493      916.109      427.470        0.579        0.115       94.787       20.893        0.049      333.403        2.696      855.400
12/02/2014  18:35:00      -77.132       80.520      -23.710       17.077       19.913       13.512      291.635      396.537      182.567        0.693        0.044      111.502        7.492        0.005      333.395        2.682      855.408
12/02/2014  18:36:00      -68.298       39.063      -10.584       15.475       31.243       16.951      239.468      976.137      287.333        0.390        0.075       78.680       15.293        0.038      333.471        2.807      855.494
12/02/2014  18:37:00      -73.980      -22.572       -7.712       19.088       24.741       13.780      364.368      612.135      189.889        0.360        0.058       77.347        7.290        0.009      333.482        2.824      855.561
12/02/2014  18:38:00     -102.706       -1.472      -11.739       25.253       27.025       14.352      637.715      730.349      205.974        0.613        0.079      102.716        7.563        0.005      333.466        2.797      855.563
12/02/2014  18:39:00     -106.245       13.251      -12.366       22.698       20.345       16.966      515.193      413.923      287.849        0.642        0.061      107.068        9.481        0.008      333.457        2.783      855.539
12/02/2014  18:40:00     -120.789       -5.203      -23.883       19.684       15.294       11.411      387.442      233.910      130.210        0.797        0.038      120.901        6.436        0.003      333.470        2.804      855.538
12/02/2014  18:41:00      -74.744      -46.727      -11.934       31.062       25.975       19.528      964.818      674.690      381.350        0.497        0.101       88.148       15.145        0.030      333.499        2.854      855.565
12/02/2014  18:42:00      -89.515      -48.778      -11.188       12.989       17.261       10.049      168.701      297.951      100.991        0.554        0.028      101.942        8.421        0.007      333.477        2.814      855.574
12/02/2014  18:43:00     -102.113      -19.455       -8.551       24.460       25.914       13.056      598.278      671.541      170.469        0.616        0.072      103.950       12.472        0.014      333.489        2.835      855.554
12/02/2014  18:44:00      -99.272      -17.943       -7.244       43.736       25.428       15.625     1912.824      646.605      244.144        0.652        0.140      100.880       14.565        0.021      333.495        2.846      855.544
12/02/2014  18:45:00      -57.775      -18.842        1.060       31.581       28.382       21.197      997.354      805.523      449.307        0.297        0.113       60.770       21.473        0.125      333.545        2.929      855.529
12/02/2014  18:46:00      -86.160       14.625       -9.990       31.167       20.204       18.474      971.405      408.183      341.272        0.473        0.086       87.392       17.304        0.039      333.509        2.869      855.483
12/02/2014  18:47:00      -99.583       30.010       -9.176       28.767       26.415       17.337      827.538      697.728      300.577        0.636        0.091      104.006       13.566        0.017      333.453        2.776      855.432
12/02/2014  18:48:00     -103.648       36.168       -7.346       29.107       17.897       17.364      847.219      320.285      301.504        0.679        0.073      109.777        9.065        0.007      333.454        2.778      855.431
12/02/2014  18:49:00      -77.872       11.658       -7.622       25.366       18.915       12.306      643.452      357.787      151.432        0.371        0.058       78.740       10.126        0.017      333.528        2.903      855.452
12/02/2014  18:50:00      -84.895      -15.564       -4.056       32.719       16.947       14.991     1070.536      287.204      224.729        0.452        0.079       86.310       14.669        0.029      333.533        2.909      855.437
12/02/2014  18:51:00      -71.936        4.716       -6.116       29.080       35.562       18.500      845.639     1264.621      342.258        0.384        0.123       72.090       13.389        0.034      333.576        2.982      855.414
12/02/2014  18:52:00      -61.582       35.723      -15.781       16.466       24.694       10.169      271.137      609.791      103.410        0.315        0.049       71.193       10.624        0.022      333.573        2.976      855.428
12/02/2014  18:53:00      -58.434      -28.095       -6.145       27.180       32.817       13.089      738.735     1076.971      171.325        0.311        0.099       64.837        6.270        0.009      333.631        3.074      855.476
12/02/2014  18:54:00      -55.515      -48.131        4.949       37.794       28.960       20.191     1428.408      838.663      407.680        0.405        0.134       73.475       13.758        0.035      333.615        3.046      855.531
12/02/2014  18:55:00     -101.254      -55.435       -2.806       53.611       35.098       22.898     2874.091     1231.901      524.307        0.898        0.232      115.436       24.874        0.046      333.495        2.846      855.571
12/02/2014  18:56:00     -132.399      -41.459        2.410       42.559       37.702       21.414     1811.306     1421.422      458.552        1.147        0.185      138.738       21.464        0.024      333.498        2.851      855.569
12/02/2014  18:57:00     -135.982      -75.449       -8.232       52.712       28.196       21.871     2778.582      795.028      478.319        1.415        0.203      155.512       17.674        0.013      333.453        2.777      855.553
12/02/2014  18:58:00     -135.892      -24.578       -3.143       35.003       28.837       19.617     1225.203      831.591      384.829        1.076        0.122      138.097       17.496        0.016      333.496        2.847      855.545
12/02/2014  18:59:00     -111.147      -55.411       -0.961       55.039       36.514       22.998     3029.311     1333.302      528.888        1.016        0.245      124.194       18.075        0.021      333.540        2.920      855.551
12/02/2014  19:00:00      -81.439      -61.780        3.960       50.113       42.002       31.644     2511.338     1764.202     1001.328        0.787        0.264      102.221       29.585        0.084      333.561        2.958      855.559
12/02/2014  19:01:00     -121.150     -113.428        5.113       45.937       45.433       34.471     2110.251     2064.161     1188.272        1.646        0.268      165.961       30.081        0.033      333.513        2.876      855.597
12/02/2014  19:02:00     -145.543     -107.292        5.259       68.794       60.533       40.859     4732.569     3664.284     1669.467        2.139        0.503      180.816       35.580        0.039      333.493        2.841      855.663
12/02/2014  19:03:00     -180.139     -145.800       -3.545       65.526       58.640       34.265     4293.707     3438.681     1174.095        3.131        0.445      231.749       31.917        0.019      333.451        2.770      855.691
12/02/2014  19:04:00     -161.204     -106.319      -14.163       57.373       58.865       26.195     3291.675     3465.032      686.167        2.247        0.372      193.107       23.864        0.015      333.450        2.770      855.706
12/02/2014  19:05:00      -97.641      -67.925       -4.331       53.597       34.968       26.227     2872.644     1222.795      687.881        0.947        0.239      118.943       26.628        0.050      333.489        2.837      855.667
12/02/2014  19:06:00      -65.337      -43.853       -2.204       27.820       38.123       18.069      773.962     1453.400      326.507        0.437        0.128       78.689       15.742        0.040      333.509        2.870      855.605
12/02/2014  19:07:00      -51.326      -26.714       -0.867       37.283       22.369       19.503     1390.044      500.372      380.348        0.281        0.114       57.862       22.933        0.157      333.525        2.897      855.576
12/02/2014  19:08:00      -35.246      -46.515        4.020       43.192       26.382       20.526     1865.543      696.018      421.314        0.320        0.149       58.360       21.772        0.139      333.608        3.035      855.573
12/02/2014  19:09:00      -79.089      -93.381       -8.362       51.741       25.231       25.366     2677.132      636.589      643.455        0.950        0.198      122.373       21.949        0.032      333.500        2.855      855.556
12/02/2014  19:10:00      -76.971      -61.245      -14.527       25.291       19.115       17.669      639.648      365.370      312.210        0.560        0.066       98.364        8.118        0.007      333.482        2.823      855.495
12/02/2014  19:11:00      -32.830      -36.828       -3.253       20.705       12.007        9.449      428.708      144.169       89.278        0.155        0.033       49.336        8.810        0.032      333.460        2.789      855.460
12/02/2014  19:12:00      -17.187      -24.711        4.219       28.348       14.361       13.861      803.603      206.234      192.120        0.106        0.060       30.100       15.084        0.251      333.581        2.991      855.492
12/02/2014  19:13:00      -18.362      -18.755        9.602       18.513       16.645        9.832      342.750      277.072       96.676        0.075        0.036       26.247        4.715        0.032      333.640        3.087      855.583
12/02/2014  19:14:00      -58.264      -52.071        2.867       48.798       31.105       23.517     2381.290      967.503      553.068        0.501        0.195       78.141       28.644        0.134      333.568        2.966      855.669
12/02/2014  19:15:00     -104.142     -112.537       -6.800       38.564       32.389       21.654     1487.146     1049.031      468.902        1.328        0.150      153.330       17.337        0.013      333.521        2.889      855.703
12/02/2014  19:16:00      -98.728      -80.173       -6.124       44.386       35.080       28.295     1970.092     1230.621      800.635        1.011        0.200      127.180       25.038        0.039      333.481        2.822      855.698
12/02/2014  19:17:00      -91.548      -95.996       -7.594       57.127       41.250       32.211     3263.456     1701.591     1037.560        1.183        0.300      132.651       29.542        0.050      333.497        2.851      855.673
12/02/2014  19:18:00     -141.240     -132.112       -7.154       46.075       50.697       27.651     2122.913     2570.145      764.589        2.145        0.273      193.397       28.573        0.022      333.349        2.603      855.675
12/02/2014  19:19:00     -132.613     -130.711       -8.249       53.322       48.611       30.344     2843.242     2363.023      920.768        2.043        0.306      186.203       27.438        0.022      333.368        2.635      855.676
12/02/2014  19:20:00     -110.640     -110.871       -2.954       35.899       44.512       23.796     1288.747     1981.321      566.261        1.419        0.192      156.632       20.582        0.017      333.363        2.628      855.660
12/02/2014  19:21:00      -98.655      -78.828       -5.822       42.506       37.511       23.849     1806.751     1407.054      568.797        0.988        0.189      126.281       24.933        0.039      333.373        2.645      855.620
12/02/2014  19:22:00      -97.122      -89.177       -7.810       32.548       38.402       21.519     1059.355     1474.699      463.077        1.022        0.150      131.853       23.821        0.033      333.337        2.586      855.577
12/02/2014  19:23:00      -82.857      -26.381       -1.095       47.466       21.364       20.000     2253.049      456.432      399.981        0.534        0.155       86.955       24.971        0.082      333.344        2.599      855.555
12/02/2014  19:24:00      -66.525       10.695        3.935       39.290       26.832       21.854     1543.716      719.935      477.594        0.365        0.137       67.380       16.726        0.062      333.358        2.621      855.532
12/02/2014  19:25:00      -85.216       -6.846       -9.163       21.063       20.101       13.653      443.652      404.064      186.417        0.421        0.052       85.491       10.699        0.016      333.368        2.638      855.496
12/02/2014  19:26:00      -54.073      -22.008      -10.327       13.699       12.602       11.274      187.675      158.802      127.111        0.199        0.024       58.380        8.857        0.023      333.427        2.736      855.482
12/02/2014  19:27:00      -49.385        4.779       -7.424       17.340       13.261        7.811      300.665      175.845       61.015        0.153        0.027       49.615        7.338        0.022      333.408        2.701      855.527
12/02/2014  19:28:00      -47.790       -1.954      -10.918       21.315       16.041       11.280      454.333      257.298      127.233        0.162        0.042       47.830       10.354        0.047      333.374        2.648      855.589
12/02/2014  19:29:00      -42.665      -18.299       -1.490       16.115       17.490       13.336      259.684      305.884      177.844        0.145        0.037       46.424       10.371        0.050      333.444        2.763      855.653
12/02/2014  19:30:00      -47.738      -37.755       -8.712       19.196       25.539       14.238      368.469      652.235      202.723        0.250        0.061       60.864       13.282        0.048      333.491        2.839      855.688
12/02/2014  19:31:00      -40.954      -39.265        1.703       21.348       21.693       15.191      455.742      470.593      230.759        0.219        0.058       56.735       12.122        0.046      333.513        2.876      855.687
12/02/2014  19:32:00      -92.832      -31.571       -7.438       25.165       13.756       10.405      633.295      189.215      108.262        0.530        0.047       98.053        6.411        0.004      333.511        2.872      855.630
12/02/2014  19:33:00      -77.296      -21.469       -4.597       37.753       13.778       13.538     1425.269      189.824      183.265        0.413        0.090       80.223       18.775        0.055      333.505        2.864      855.576
12/02/2014  19:34:00      -59.677        4.113       -6.403       16.635       13.747       11.112      276.739      188.988      123.478        0.210        0.029       59.819        9.411        0.025      333.505        2.864      855.545
12/02/2014  19:35:00      -80.581       12.481       -7.332       22.471       13.811       12.936      504.955      190.742      167.348        0.378        0.043       81.542       13.407        0.027      333.456        2.781      855.513
12/02/2014  19:36:00      -79.466       -8.365      -11.775       21.457       12.641       11.757      460.387      159.792      138.219        0.364        0.038       79.905       11.841        0.022      333.492        2.840      855.494
12/02/2014  19:37:00      -81.556      -21.610       -8.351       23.665       12.594       15.592      560.031      158.602      243.097        0.407        0.048       84.371       16.067        0.036      333.539        2.921      855.510
12/02/2014  19:38:00      -56.327      -11.979       -0.307       29.212       14.397       11.389      853.349      207.281      129.713        0.225        0.060       57.586       10.654        0.034      333.559        2.954      855.551
12/02/2014  19:39:00      -16.847      -24.696       10.565       40.534       17.827       14.836     1642.971      317.790      220.095        0.159        0.109       29.895       17.326        0.336      333.649        3.103      855.575
12/02/2014  19:40:00       -9.278        6.675       12.015       11.926       12.223        8.178      142.223      149.394       66.876        0.032        0.018       11.430        6.659        0.339      333.626        3.065      855.550
12/02/2014  19:41:00        4.165       20.425       10.214        8.757       12.249        9.661       76.693      150.047       93.331        0.043        0.016       20.845        4.481        0.046      333.571        2.973      855.486
12/02/2014  19:42:00       44.680       31.237        3.083       15.733       16.249       13.623      247.529      264.026      185.579        0.184        0.035       54.517        7.966        0.021      333.580        2.988      855.424
12/02/2014  19:43:00       14.716       19.683        0.817       19.677       21.315        9.687      387.172      454.333       93.840        0.077        0.047       24.576       10.129        0.170      333.541        2.922      855.399
12/02/2014  19:44:00       -3.844      -27.094       -6.577        9.852       26.285        9.067       97.058      690.904       82.207        0.083        0.044       27.366        3.057        0.012      333.601        3.022      855.453
12/02/2014  19:45:00      -53.552      -31.801        9.483       41.316       19.491       21.035     1707.049      379.901      442.471        0.325        0.126       62.283       18.728        0.090      333.724        3.226      855.566
12/02/2014  19:46:00      -60.144      -72.678        0.792       50.697       45.137       30.486     2570.212     2037.376      929.393        0.722        0.277       94.337       20.660        0.048      333.656        3.115      855.641
12/02/2014  19:47:00     -117.659      -95.737      -10.444       25.918       35.544       15.328      671.736     1263.361      234.937        1.264        0.109      151.688       11.802        0.006      333.606        3.032      855.643
12/02/2014  19:48:00      -53.053      -75.700        2.239       36.438       29.983       17.125     1327.712      898.951      293.250        0.553        0.126       92.440       14.274        0.024      333.624        3.061      855.607
12/02/2014  19:49:00      -57.822      -38.503        3.295       33.508       23.455       17.595     1122.788      550.130      309.592        0.341        0.099       69.469       20.311        0.085      333.634        3.078      855.588
12/02/2014  19:50:00      -71.067      -43.588        4.493       28.903       17.099       20.440      835.400      292.363      417.801        0.426        0.077       83.369       17.708        0.045      333.702        3.189      855.570
12/02/2014  19:51:00      -53.181      -57.323        2.562       34.079       26.522       19.541     1161.381      703.413      381.849        0.418        0.112       78.193       17.507        0.050      333.687        3.166      855.545
12/02/2014  19:52:00      -59.512      -46.402        0.450       30.002       23.660       15.076      900.094      559.801      227.275        0.369        0.084       75.464       17.011        0.051      333.631        3.073      855.487
12/02/2014  19:53:00      -62.981      -35.658       -3.629       25.681       16.463       13.926      659.528      271.031      193.945        0.319        0.056       72.375       12.097        0.028      333.637        3.083      855.429
12/02/2014  19:54:00      -55.755      -19.269       -5.105       24.430       18.371       15.092      596.846      337.512      227.778        0.233        0.058       58.991       13.478        0.052      333.689        3.168      855.409
12/02/2014  19:55:00      -86.597       -0.218       -3.765       25.839       22.790       19.806      667.647      519.389      392.281        0.455        0.079       86.597       15.652        0.033      333.584        2.994      855.424
12/02/2014  19:56:00      -72.907      -41.293       -3.016       22.468       21.991       13.680      504.792      483.606      187.156        0.410        0.059       83.789       11.047        0.017      333.613        3.044      855.439
12/02/2014  19:57:00      -80.686      -34.230       -3.814       20.379       18.981       11.670      415.310      360.296      136.186        0.430        0.046       87.647        9.159        0.011      333.595        3.012      855.433
12/02/2014  19:58:00        0.274      -39.715        9.994       33.885       25.243       19.547     1148.224      637.216      382.070        0.192        0.108       39.716       10.636        0.072      333.664        3.127      855.433
12/02/2014  19:59:00       -7.651      -46.349       -6.229       14.497       15.706        6.883      210.156      246.691       47.382        0.137        0.025       46.976        4.657        0.010      333.684        3.160      855.423
12/02/2014  20:00:00        2.937        4.096        8.884       13.046       13.703       13.402      170.197      187.779      179.616        0.032        0.027        5.040        8.978        3.173      333.681        3.157      855.367
12/02/2014  20:01:00       39.389       26.995        0.150       18.410       16.365       17.164      338.924      267.815      294.597        0.159        0.045       47.752       13.370        0.078      333.611        3.039      855.309
12/02/2014  20:02:00       42.499       35.729       -6.225       15.991       10.318       11.079      255.708      106.467      122.750        0.180        0.024       55.522        7.414        0.018      333.555        2.944      855.298
12/02/2014  20:03:00        5.116        1.710       16.651       21.048       23.002       19.569      443.032      529.076      382.961        0.083        0.068        5.394       13.243        6.027      333.621        3.056      855.327
12/02/2014  20:04:00        4.812       -3.025       12.817       20.642       23.233       17.188      426.082      539.791      295.435        0.073        0.063        5.684        9.507        2.797      333.649        3.103      855.354
12/02/2014  20:05:00      -18.655       -5.124       -1.592       15.619       14.865       14.674      243.952      220.963      215.324        0.053        0.034       19.346        7.321        0.143      333.659        3.120      855.355
12/02/2014  20:06:00      -74.247       -1.643        4.095       40.825       32.175       15.957     1666.645     1035.256      254.627        0.424        0.148       74.266       13.920        0.035      333.584        2.994      855.372
12/02/2014  20:07:00     -111.892      -39.994       -0.900       35.671       30.125       21.687     1272.416      907.504      470.329        0.838        0.133      118.825       19.267        0.026      333.529        2.901      855.385
12/02/2014  20:08:00      -77.293       -3.348        0.946       41.530       29.381       21.525     1724.719      863.263      463.322        0.452        0.153       77.365       19.503        0.064      333.461        2.789      855.358
12/02/2014  20:09:00      -38.006        1.021        8.369       23.996       20.250       14.652      575.826      410.053      214.695        0.136        0.060       38.020       11.211        0.087      333.399        2.688      855.325
12/02/2014  20:10:00      -27.670        6.424       -0.731       14.294        8.016        6.859      204.317       64.263       47.052        0.056        0.016       28.406        3.144        0.012      333.388        2.670      855.331
12/02/2014  20:11:00      -36.861       -6.602       -5.656       17.045       12.167        6.241      290.547      148.032       38.945        0.096        0.024       37.447        7.689        0.042      333.489        2.837      855.387
12/02/2014  20:12:00      -41.774      -29.433       -2.525       31.945       12.941       12.166     1020.466      167.461      148.011        0.198        0.067       51.102       10.201        0.040      333.567        2.967      855.455
12/02/2014  20:13:00      -24.141      -43.957        3.895       23.695       20.504       13.825      561.463      420.433      191.117        0.185        0.059       50.150       12.248        0.060      333.565        2.964      855.475
12/02/2014  20:14:00      -10.954        1.701        4.930       15.498       15.973       12.406      240.183      255.148      153.919        0.040        0.032       11.085       12.927        1.360      333.554        2.946      855.430
12/02/2014  20:15:00       15.124       12.410       14.658       11.212        9.843       11.653      125.712       96.880      135.781        0.048        0.018       19.564        6.808        0.121      333.554        2.946      855.371
12/02/2014  20:16:00       -2.128       11.918       -0.082       13.497        7.699        8.313      182.162       59.270       69.109        0.023        0.016       12.107        7.903        0.426      333.529        2.904      855.387
12/02/2014  20:17:00      -46.565       -9.230       -5.559       11.837        7.629        6.945      140.110       58.200       48.234        0.127        0.012       47.471        2.696        0.003      333.591        3.007      855.449
12/02/2014  20:18:00      -73.427      -30.749       -1.894       21.307       16.633       10.845      453.995      276.669      117.620        0.359        0.042       79.605        6.112        0.006      333.596        3.013      855.496
12/02/2014  20:19:00      -25.192      -19.359        4.842       29.164       15.284       11.253      850.513      233.589      126.628        0.112        0.061       31.771        9.112        0.082      333.612        3.041      855.487
12/02/2014  20:20:00        0.813       -8.235       10.327       11.818       14.205        9.265      139.672      201.768       85.840        0.030        0.021        8.275        8.644        1.091      333.598        3.019      855.449
12/02/2014  20:21:00       34.889       15.189        5.611       19.703       11.648       19.242      388.224      135.671      370.253        0.119        0.045       38.052       15.923        0.175      333.574        2.977      855.441
12/02/2014  20:22:00       39.340       15.924       11.593       20.352       16.803       12.465      414.194      282.349      155.373        0.139        0.043       42.441        6.997        0.027      333.615        3.046      855.484
12/02/2014  20:23:00       -0.699       34.364       43.630       12.924       18.713       17.271      167.034      350.159      298.295        0.195        0.041       34.372       16.819        0.239      333.634        3.076      855.543
12/02/2014  20:24:00       -3.859       47.341       63.367       10.890       21.909       15.747      118.588      480.000      247.965        0.356        0.042       47.498       14.303        0.091      333.643        3.093      855.536
12/02/2014  20:25:00        5.226       42.971       53.301       21.716       33.983       23.099      471.570     1154.876      533.554        0.344        0.108       43.287       17.919        0.171      333.618        3.052      855.462
12/02/2014  20:26:00       67.760       42.704       19.882       38.446       30.904       20.438     1478.127      955.042      417.719        0.483        0.143       80.095       16.259        0.041      333.579        2.984      855.413
12/02/2014  20:27:00       76.091       28.747       11.852       19.949       22.297       18.149      397.967      497.169      329.387        0.399        0.061       81.340       13.419        0.027      333.570        2.970      855.423
12/02/2014  20:28:00       48.926       27.298       28.356       14.481       18.589       16.764      209.694      345.560      281.026        0.239        0.042       56.026       11.038        0.039      333.578        2.984      855.468
12/02/2014  20:29:00       38.368       43.251       35.678       19.529       18.646       19.290      381.386      347.673      372.111        0.286        0.055       57.817        6.811        0.014      333.630        3.070      855.530
12/02/2014  20:30:00       27.334       -6.679       18.437       28.159       33.400       23.545      792.933     1115.551      554.369        0.180        0.123       28.138       21.547        0.586      333.601        3.024      855.550
12/02/2014  20:31:00       30.435       -9.906       21.444       30.265       28.658       24.866      916.000      821.294      618.305        0.192        0.118       32.006       25.972        0.658      333.611        3.038      855.508
12/02/2014  20:32:00       39.282       56.095       49.532       37.438       31.851       23.197     1401.584     1014.461      538.084        0.505        0.148       68.482       21.461        0.098      333.561        2.957      855.477
12/02/2014  20:33:00       45.792       46.676       51.393       28.548       23.650       28.260      814.994      559.328      798.611        0.454        0.109       65.388       11.201        0.029      333.592        3.008      855.479
12/02/2014  20:34:00       16.980       40.353       33.877       39.201       29.976       29.266     1536.695      898.542      856.502        0.318        0.165       43.780       21.695        0.246      333.617        3.050      855.496
12/02/2014  20:35:00       38.940       39.715       26.755       17.751       15.951       11.904      315.085      254.432      141.710        0.226        0.036       55.621        6.424        0.013      333.577        2.983      855.501
12/02/2014  20:36:00       57.708       31.084       26.071       24.026        9.113       10.712      577.246       83.053      114.754        0.288        0.039       65.547       13.214        0.041      333.557        2.950      855.502
12/02/2014  20:37:00       76.577       40.916        5.958       20.027       13.740       11.199      401.080      188.790      125.419        0.414        0.036       86.823        3.550        0.002      333.566        2.964      855.480
12/02/2014  20:38:00      112.679       50.316       13.083       18.819       21.443       21.979      354.148      459.803      483.076        0.835        0.065      123.403        9.910        0.006      333.566        2.965      855.414
12/02/2014  20:39:00      106.805       53.225       18.129       29.485       25.195       21.860      869.352      634.793      477.864        0.828        0.099      119.333       13.031        0.012      333.586        2.997      855.374
12/02/2014  20:40:00       40.379       48.777       43.303       23.506       28.248       22.593      552.539      797.976      510.442        0.387        0.093       63.322       20.929        0.109      333.566        2.964      855.380
12/02/2014  20:41:00       40.710       43.883       46.024       18.121       14.304       15.057      328.378      204.605      226.712        0.323        0.038       59.858       10.217        0.029      333.594        3.010      855.386
12/02/2014  20:42:00       24.423       11.015       12.318       21.439       20.470       13.902      459.622      419.030      193.257        0.097        0.054       26.792       11.772        0.193      333.586        2.998      855.369
12/02/2014  20:43:00        8.672       20.969       26.570       15.289       17.837       16.575      233.752      318.170      274.729        0.102        0.041       22.692       12.925        0.324      333.568        2.967      855.380
12/02/2014  20:44:00       16.688      -35.955        4.318       19.059       28.650       19.877      363.250      820.795      395.098        0.158        0.079       39.638       16.031        0.164      333.669        3.135      855.447
12/02/2014  20:45:00       21.767      -41.532       -8.711       23.405       19.509       17.555      547.773      380.592      308.162        0.176        0.062       46.890        5.480        0.014      333.717        3.215      855.502
12/02/2014  20:46:00      -32.232      -15.987       -4.239       29.785       23.389       15.352      887.130      547.028      235.697        0.149        0.083       35.979       14.235        0.157      333.621        3.056      855.503
12/02/2014  20:47:00        3.998       40.150       17.841       13.162       21.815       14.578      173.239      475.901      212.518        0.140        0.043       40.349        9.133        0.051      333.548        2.937      855.443
12/02/2014  20:48:00       -4.202       -0.424       21.970       15.282       12.660       12.996      233.546      160.288      168.899        0.053        0.028        4.224       11.246        7.089      333.573        2.976      855.397
12/02/2014  20:49:00        4.894       -1.290        5.917       11.527        3.638        5.284      132.873       13.237       27.921        0.012        0.009        5.061        3.272        0.418      333.542        2.927      855.402
12/02/2014  20:50:00      -40.240        0.501        0.678       23.510       15.141       10.821      552.737      229.255      117.086        0.126        0.045       40.243       12.367        0.094      333.571        2.971      855.412
12/02/2014  20:51:00      -64.026      -12.315       -0.931       32.242       40.201       19.836     1039.574     1616.098      393.448        0.365        0.152       65.199       13.432        0.042      333.538        2.917      855.417
12/02/2014  20:52:00     -131.766      -45.796       -4.341       39.817       32.153       17.959     1585.359     1033.788      322.524        1.121        0.147      139.498       17.316        0.015      333.453        2.777      855.409
12/02/2014  20:53:00      -54.907       -5.278       -1.617       36.812       34.211       21.021     1355.150     1170.414      441.880        0.301        0.148       55.160       16.597        0.091      333.433        2.745      855.366
12/02/2014  20:54:00      -72.357       35.655       -5.756       28.965       21.803       18.757      838.977      475.357      351.824        0.410        0.083       80.665       14.365        0.032      333.306        2.534      855.324
12/02/2014  20:55:00      -73.970       27.277       -5.342       22.028       18.648       15.015      485.237      347.752      225.457        0.365        0.053       78.839       10.480        0.018      333.325        2.568      855.294
12/02/2014  20:56:00      -50.808        3.382       -6.973       11.961       10.190        8.896      143.061      103.839       79.143        0.148        0.016       50.920        5.653        0.012      333.355        2.618      855.305
12/02/2014  20:57:00      -11.319      -25.006        3.457       22.712       12.146        9.417      515.822      147.521       88.689        0.076        0.038       27.448        8.383        0.093      333.451        2.775      855.369
12/02/2014  20:58:00      -26.017      -16.375       10.634       36.509       14.659       14.487     1332.872      214.901      209.861        0.141        0.088       30.741       16.118        0.275      333.454        2.779      855.424
12/02/2014  20:59:00      -44.464       -4.434       -1.940       23.623       11.125        9.570      558.040      123.758       91.579        0.139        0.039       44.685        8.520        0.036      333.448        2.767      855.417
12/02/2014  21:00:00      -24.432       -6.904       -4.689       21.247       16.559        8.323      451.449      274.205       69.275        0.073        0.040       25.388        6.706        0.070      333.458        2.786      855.390
12/02/2014  21:01:00      -39.646        4.690       -5.590        6.624        6.819        4.764       43.875       46.493       22.692        0.087        0.006       39.922        3.758        0.009      333.403        2.694      855.340
12/02/2014  21:02:00       -7.088        6.738        2.989       11.617        5.788        6.319      134.950       33.499       39.932        0.016        0.010        9.780        5.773        0.348      333.397        2.683      855.283
12/02/2014  21:03:00        9.339       55.178       -5.168       14.433       27.293       11.926      208.309      744.928      142.235        0.213        0.055       55.963       14.851        0.070      333.473        2.811      855.244
12/02/2014  21:04:00       21.624       90.418      -14.863       15.491       17.509        7.548      239.978      306.573       56.969        0.473        0.030       92.968        7.390        0.006      333.426        2.733      855.265
12/02/2014  21:05:00       15.889       66.241      -10.510       12.210       21.866        8.668      149.079      478.121       75.136        0.273        0.035       68.120        6.293        0.009      333.396        2.685      855.306
12/02/2014  21:06:00        3.200       75.814      -15.495        5.344       10.741        5.096       28.555      115.375       25.969        0.308        0.008       75.882        2.446        0.001      333.418        2.719      855.318
12/02/2014  21:07:00        5.238       63.942      -11.953       10.739       14.787       10.628      115.316      218.666      112.945        0.235        0.022       64.157        8.039        0.016      333.398        2.686      855.320
12/02/2014  21:08:00       -2.640       55.576       -5.714       10.971        9.821        7.862      120.370       96.457       61.813        0.170        0.014       55.638        6.183        0.012      333.441        2.757      855.353
12/02/2014  21:09:00      -25.853       16.266       -7.852       19.221       22.090       12.307      369.454      487.953      151.464        0.100        0.050       30.544        9.613        0.099      333.428        2.736      855.395
12/02/2014  21:10:00      -36.688      -10.534       -3.545       11.760        8.994        6.389      138.301       80.896       40.820        0.086        0.013       38.171        5.412        0.020      333.406        2.699      855.447
12/02/2014  21:11:00      -39.510       -4.492       -4.902       16.336       15.572        9.048      266.856      242.481       81.874        0.110        0.030       39.765        6.327        0.025      333.386        2.666      855.459
12/02/2014  21:12:00      -30.268      -23.743       -2.360       20.724       20.633       11.275      429.486      425.715      127.124        0.123        0.049       38.469        9.154        0.057      333.372        2.644      855.445
12/02/2014  21:13:00       -5.306      -40.413       -8.159       19.083       13.406       15.487      364.155      179.710      239.852        0.126        0.039       40.760       10.039        0.061      333.444        2.761      855.463
12/02/2014  21:14:00      -10.402      -14.173       -8.511       14.782       23.695       11.852      218.506      561.460      140.476        0.065        0.046       17.580       13.175        0.562      333.470        2.807      855.493
12/02/2014  21:15:00      -18.675       14.041       12.969        6.630        9.739        9.257       43.954       94.839       85.684        0.047        0.011       23.365        4.152        0.032      333.434        2.744      855.491
12/02/2014  21:16:00      -15.652        9.738       17.550        9.909       10.492        5.354       98.198      110.080       28.660        0.044        0.012       18.434        3.601        0.038      333.444        2.762      855.502
12/02/2014  21:17:00       -7.547       14.728       35.626        9.883       21.243       15.801       97.667      451.281      249.686        0.117        0.040       16.549       15.302        0.855      333.496        2.847      855.508
12/02/2014  21:18:00        8.759       44.241       48.803       13.618       16.672       10.976      185.453      277.957      120.472        0.250        0.029       45.100        9.086        0.041      333.484        2.829      855.490
12/02/2014  21:19:00       -1.874       30.207       41.306       11.436       22.694       13.640      130.791      514.996      186.050        0.173        0.042       30.265       14.615        0.233      333.504        2.861      855.481
12/02/2014  21:20:00      -23.667      -26.387        0.115       21.021       11.204       12.501      441.892      125.528      156.273        0.099        0.036       35.446        7.518        0.045      333.534        2.912      855.512
12/02/2014  21:21:00      -36.954      -21.190        0.476       20.327       12.441       11.425      413.203      154.774      130.523        0.126        0.035       42.599       11.042        0.067      333.492        2.841      855.564
12/02/2014  21:22:00      -62.010      -15.741       -4.017       23.020       23.994       13.806      529.908      575.720      190.593        0.270        0.065       63.976        6.036        0.009      333.468        2.800      855.603
12/02/2014  21:23:00      -54.934      -45.077       -1.992       50.622       29.481       19.028     2562.563      869.108      362.051        0.442        0.190       71.061       16.839        0.056      333.530        2.906      855.591
12/02/2014  21:24:00      -65.821      -58.509       -0.154       37.328       25.690       20.015     1393.370      659.960      400.607        0.510        0.123       88.066       17.463        0.039      333.543        2.926      855.537
12/02/2014  21:25:00      -74.767      -53.739        0.679       32.428       22.079       16.693     1051.553      487.467      278.668        0.515        0.091       92.076       16.699        0.033      333.571        2.973      855.481
12/02/2014  21:26:00      -34.935      -17.326        5.814       34.737       20.203       15.190     1206.665      408.159      230.730        0.170        0.092       38.995       17.955        0.212      333.578        2.984      855.463
12/02/2014  21:27:00      -34.869      -29.196       -0.671       41.338       13.952       17.134     1708.824      194.654      293.580        0.213        0.110       45.478       21.547        0.224      333.556        2.949      855.513
12/02/2014  21:28:00      -20.424      -22.744       -4.478       34.961       14.024       14.721     1222.268      196.667      216.703        0.129        0.082       30.569       13.742        0.202      333.604        3.028      855.581
12/02/2014  21:29:00       -9.370       -4.696        7.412       18.156       14.197       12.647      329.623      201.553      159.947        0.043        0.035       10.481        9.627        0.844      333.635        3.079      855.622
12/02/2014  21:30:00      -14.270       11.768        2.575       20.857       11.367       13.114      435.029      129.203      171.980        0.054        0.037       18.497       14.173        0.587      333.598        3.017      855.621
12/02/2014  21:31:00       -5.838        4.256        9.051       14.866        9.190       10.589      220.986       84.450      112.123        0.028        0.021        7.224       11.144        2.380      333.588        3.000      855.583
12/02/2014  21:32:00      -22.630       20.461        6.656       31.456       24.802       18.546      989.452      615.117      343.947        0.146        0.097       30.509       22.495        0.544      333.560        2.954      855.549
12/02/2014  21:33:00      -79.383       21.372       -9.519       21.128       19.317       11.438      446.388      373.150      130.835        0.390        0.048       82.209        9.417        0.013      333.512        2.874      855.558
12/02/2014  21:34:00      -57.374       -8.357       -8.597       23.439       17.680        9.693      549.398      312.574       93.959        0.220        0.048       57.980        8.211        0.020      333.558        2.951      855.604
12/02/2014  21:35:00      -65.211      -14.881       -6.939       21.936       14.812       12.225      481.205      219.389      149.459        0.269        0.043       66.887       11.797        0.031      333.576        2.982      855.635
12/02/2014  21:36:00      -81.642      -17.912       -7.690       23.311       20.509       15.163      543.400      420.625      229.909        0.412        0.060       83.584       13.833        0.027      333.589        3.004      855.647
12/02/2014  21:37:00     -112.835      -26.837      -15.262       16.731       19.258       12.096      279.923      370.875      146.314        0.724        0.040      115.982        5.956        0.003      333.520        2.887      855.655
12/02/2014  21:38:00     -101.125      -44.994       -6.176       18.942       25.336       11.073      358.803      641.899      122.617        0.671        0.056      110.683        4.111        0.001      333.522        2.892      855.644
12/02/2014  21:39:00      -85.897       -1.289       -7.566       17.018       20.549       10.287      289.608      422.245      105.826        0.413        0.041       85.907        8.818        0.011      333.537        2.914      855.611
12/02/2014  21:40:00      -80.014        8.052       -5.200       20.692       15.554       11.659      428.174      241.938      135.925        0.365        0.040       80.418        7.973        0.010      333.455        2.779      855.559
12/02/2014  21:41:00      -65.980       25.391      -12.355       21.509       20.193       16.125      462.653      407.775      260.029        0.314        0.057       70.697       14.484        0.042      333.410        2.704      855.485
12/02/2014  21:42:00      -23.989       67.796       -2.715       25.971       40.248       13.918      674.510     1619.890      193.709        0.383        0.124       71.915       15.165        0.044      333.651        3.106      855.391
12/02/2014  21:43:00       12.827       88.939      -10.563       10.184       15.567       10.572      103.707      242.320      111.773        0.432        0.023       89.859        4.151        0.002      333.573        2.978      855.353
12/02/2014  21:44:00       14.071       23.984       -0.203       12.881       19.505       10.898      165.932      380.428      118.757        0.072        0.033       27.806        9.199        0.109      333.506        2.867      855.394
12/02/2014  21:45:00       42.966       28.800       10.072       16.417       11.088       11.971      269.534      122.940      143.315        0.166        0.027       51.726        8.823        0.029      333.525        2.896      855.379
12/02/2014  21:46:00      108.730       43.880       10.479       32.878       21.189       15.287     1080.934      448.994      233.703        0.781        0.088      117.250       15.899        0.018      333.528        2.901      855.341
12/02/2014  21:47:00      106.128       54.235       20.375       25.844       21.899       21.702      667.916      479.554      470.956        0.812        0.081      119.184       13.824        0.013      333.493        2.844      855.352
12/02/2014  21:48:00       47.708       32.171       16.708       17.008       12.445       13.205      289.281      154.878      174.373        0.210        0.031       57.542        6.724        0.014      333.474        2.813      855.398
12/02/2014  21:49:00        7.301        9.712       -1.466       13.623        8.691        6.377      185.598       75.525       40.671        0.023        0.015       12.150        3.428        0.080      333.469        2.805      855.424
12/02/2014  21:50:00        7.054       37.355       -5.470        8.270       17.024        8.178       68.387      289.813       66.887        0.095        0.021       38.015       10.464        0.076      333.501        2.859      855.426
12/02/2014  21:51:00       15.739       26.279        3.572       12.469       13.734        9.191      155.477      188.632       84.481        0.069        0.021       30.632        6.944        0.051      333.493        2.847      855.475
12/02/2014  21:52:00       46.793       25.253       -2.987       17.382       11.700        8.227      302.132      136.893       67.676        0.167        0.025       53.172        3.793        0.005      333.524        2.892      855.548
12/02/2014  21:53:00       34.706       27.107       13.699       23.453       14.483       18.723      550.064      209.753      350.562        0.162        0.056       44.038       15.767        0.128      333.549        2.935      855.617
12/02/2014  21:54:00       -1.523       17.745       20.211       11.418       10.042       14.004      130.378      100.833      196.116        0.058        0.021       17.810        7.464        0.176      333.564        2.960      855.665
12/02/2014  21:55:00       15.298       18.475       11.057       14.880        9.828       12.324      221.415       96.581      151.883        0.058        0.023       23.986        9.168        0.146      333.541        2.924      855.667
12/02/2014  21:56:00       19.756       36.448        0.616       11.113       12.848        9.859      123.502      165.064       97.204        0.105        0.019       41.458        7.822        0.036      333.514        2.877      855.643
12/02/2014  21:57:00       14.335       55.398       -7.298       10.365        9.993        5.192      107.430       99.860       26.959        0.178        0.012       57.223        4.333        0.006      333.505        2.863      855.626
12/02/2014  21:58:00       -3.705       61.281       -7.899        7.644        8.598        5.194       58.423       73.922       26.979        0.200        0.008       61.393        3.587        0.003      333.518        2.887      855.610
12/02/2014  21:59:00       -4.571       35.370        1.319       12.591       22.863        9.726      158.533      522.714       94.605        0.102        0.039       35.664       13.567        0.145      333.532        2.909      855.624
12/02/2014  22:00:00       -8.826        1.949        4.826        8.365        6.709        8.706       69.976       45.013       75.795        0.015        0.010        9.039        7.289        0.650      333.632        3.074      855.651
12/02/2014  22:01:00      -78.292       15.837       -5.341       32.613       14.596        9.181     1063.589      213.057       84.297        0.388        0.068       79.878       10.800        0.018      333.563        2.959      855.666
12/02/2014  22:02:00     -110.085      -13.016       -9.932       28.405       20.722       13.940      806.822      429.398      194.326        0.691        0.072      110.852       14.983        0.018      333.560        2.954      855.695
12/02/2014  22:03:00      -97.346        7.786       -9.615       33.261       33.573       17.926     1106.278     1127.123      321.329        0.609        0.128       97.657       16.874        0.030      333.531        2.905      855.706
12/02/2014  22:04:00     -115.664       32.197      -13.050       16.227       18.074       13.824      263.311      326.675      191.091        0.768        0.039      120.061        8.892        0.005      333.529        2.903      855.687
12/02/2014  22:05:00     -123.895       24.136      -11.560       20.675       18.755       14.827      427.448      351.747      219.849        0.853        0.050      126.224       10.549        0.007      333.517        2.882      855.649
12/02/2014  22:06:00     -145.742       45.783      -17.197       37.116       43.042       25.591     1377.611     1852.636      654.901        1.376        0.194      152.764       20.667        0.018      333.500        2.852      855.604
12/02/2014  22:07:00     -146.143       29.715      -16.731       38.634       32.626       23.922     1492.582     1064.471      572.276        1.282        0.156      149.134       12.643        0.007      333.451        2.773      855.565
12/02/2014  22:08:00     -112.531       11.079       -2.497       44.968       54.537       27.879     2022.122     2974.286      777.242        0.928        0.289      113.075       27.341        0.058      333.391        2.675      855.532
12/02/2014  22:09:00     -122.054       26.169      -18.418       50.256       32.516       23.400     2525.663     1057.318      547.564        1.003        0.207      124.828       26.074        0.044      333.450        2.770      855.494
12/02/2014  22:10:00     -115.826      -19.633      -13.372       44.626       27.736       23.131     1991.455      769.297      535.065        0.864        0.165      117.478       21.170        0.032      333.466        2.798      855.466
12/02/2014  22:11:00      -88.108      -22.512      -13.165       30.728       27.597       17.954      944.194      761.584      322.346        0.524        0.101       90.938       13.062        0.021      333.495        2.849      855.436
12/02/2014  22:12:00      -85.980       26.969       -8.061       37.867       44.077       22.508     1433.893     1942.783      506.620        0.603        0.194       90.110       21.235        0.056      333.542        2.922      855.393
12/02/2014  22:13:00      -60.819       94.672       -3.180       32.619       49.076       22.906     1063.972     2408.407      524.673        0.833        0.200      112.524       26.097        0.054      333.677        3.149      855.355
12/02/2014  22:14:00      -48.829      102.166      -13.596       46.066       20.154       18.485     2122.087      406.169      341.693        0.794        0.143      113.235       15.543        0.019      333.711        3.205      855.357
12/02/2014  22:15:00      -54.124       78.704      -12.355       33.706       36.423       21.954     1136.114     1326.610      481.964        0.611        0.147       95.518       24.022        0.063      333.723        3.226      855.395
12/02/2014  22:16:00      -68.769       54.916      -12.815       33.645       29.783       17.547     1131.972      887.027      307.892        0.512        0.116       88.005       14.311        0.026      333.683        3.158      855.402
12/02/2014  22:17:00      -78.120      121.090      -16.358       31.829       49.433       23.589     1013.082     2443.607      556.446        1.252        0.201      144.102       18.187        0.016      333.682        3.156      855.340
12/02/2014  22:18:00      -93.929       96.601      -15.345       42.270       44.097       27.797     1786.774     1944.528      772.667        1.145        0.225      134.738       24.881        0.034      333.692        3.174      855.271
12/02/2014  22:19:00      -56.384       62.920      -19.561       41.146       52.403       26.683     1692.998     2746.040      711.992        0.633        0.258       84.487       31.302        0.137      333.692        3.175      855.276
12/02/2014  22:20:00        9.763       17.463       11.530       25.987       30.314       24.097      675.305      918.909      580.676        0.135        0.109       20.007       18.316        0.838      333.745        3.261      855.388
12/02/2014  22:21:00      -77.687      -22.050       -3.656       36.865       40.710       19.361     1359.045     1657.341      374.864        0.496        0.170       80.756       13.631        0.028      333.762        3.290      855.505
12/02/2014  22:22:00     -108.732      -59.964       -3.823       47.416       38.221       25.704     2248.268     1460.845      660.699        0.990        0.218      124.171       29.532        0.057      333.735        3.244      855.561
12/02/2014  22:23:00     -103.791      -70.361        0.815       37.173       29.627       21.646     1381.846      877.787      468.552        0.923        0.136      125.392       17.761        0.020      333.702        3.192      855.547
12/02/2014  22:24:00      -53.223      -15.155       -6.235       35.193       26.291       20.228     1238.566      691.193      409.191        0.272        0.117       55.339       16.677        0.091      333.720        3.219      855.564
12/02/2014  22:25:00      -88.890      -54.822       -6.180       33.930       24.431       19.991     1151.268      596.888      399.621        0.655        0.107      104.436       17.214        0.027      333.680        3.152      855.621
12/02/2014  22:26:00      -54.344      -33.971       -0.531       46.026       26.332       17.053     2118.362      693.350      290.805        0.360        0.155       64.088       21.661        0.114      333.771        3.305      855.676
12/02/2014  22:27:00      -66.442      -26.203        2.146       39.252       30.382       19.623     1540.702      923.075      385.064        0.398        0.142       71.423       23.304        0.106      333.745        3.262      855.683
12/02/2014  22:28:00      -97.965      -37.409       -6.614       26.044       23.627       16.003      678.278      558.256      256.106        0.627        0.075      104.865       15.970        0.023      333.690        3.170      855.655
12/02/2014  22:29:00      -87.578        9.235       -6.189       25.213       19.552       14.922      635.674      382.277      222.670        0.452        0.062       88.063       15.348        0.030      333.680        3.155      855.623
12/02/2014  22:30:00      -71.381      -26.228       -1.037       22.135       27.648       16.689      489.941      764.403      278.522        0.366        0.077       76.047       13.945        0.034      333.707        3.198      855.637
12/02/2014  22:31:00      -54.631      -29.038        1.096       25.778       24.670       14.812      664.518      608.602      219.385        0.266        0.075       61.869       12.054        0.038      333.756        3.278      855.681
12/02/2014  22:32:00      -60.189      -45.487       -1.283       34.492       19.151       12.804     1189.713      366.766      163.950        0.371        0.086       75.444       12.396        0.027      333.765        3.294      855.756
12/02/2014  22:33:00      -65.073      -79.169        4.218       55.026       35.213       30.389     3027.810     1239.964      923.468        0.785        0.260      102.480       26.550        0.067      333.818        3.383      855.850
12/02/2014  22:34:00      -78.754     -104.397        5.245       57.801       56.716       34.700     3340.951     3216.695     1204.096        1.244        0.388      130.771       32.629        0.062      333.775        3.311      855.944
12/02/2014  22:35:00      -52.536      -36.621        1.323       32.854       24.674       23.914     1079.372      608.793      571.895        0.318        0.113       64.040       19.407        0.092      333.744        3.257      855.912
12/02/2014  22:36:00      -46.467        9.427       -5.053       27.869       32.556       11.352      776.653     1059.911      128.873        0.212        0.098       47.414       12.056        0.065      333.767        3.297      855.792
12/02/2014  22:37:00      -23.751        1.054       -0.582       10.305       10.725        8.364      106.195      115.025       69.953        0.043        0.015       23.774        7.436        0.098      333.752        3.272      855.773
12/02/2014  22:38:00      -35.825      -34.318       -2.760       25.333       19.737       12.062      641.746      389.532      145.495        0.182        0.059       49.610        7.491        0.023      333.852        3.438      855.877
12/02/2014  22:39:00      -28.279      -48.641        0.278       30.144       24.955       18.897      908.671      622.742      357.097        0.253        0.094       56.264       14.336        0.065      333.874        3.476      855.975
12/02/2014  22:40:00      -55.002      -47.034        7.964       45.854       44.665       22.354     2102.596     1994.980      499.690        0.495        0.230       72.370       25.163        0.121      333.823        3.390      856.020
12/02/2014  22:41:00      -62.607      -57.763       -0.652       51.351       27.486       26.588     2636.885      755.468      706.903        0.568        0.205       85.183       27.733        0.106      333.814        3.375      856.063
12/02/2014  22:42:00      -22.919      -24.724        6.129       39.928       33.020       26.019     1594.209     1090.343      677.007        0.227        0.168       33.713       21.782        0.417      333.815        3.378      856.105
12/02/2014  22:43:00      -36.670      -39.000       -9.590       37.266       32.398       19.425     1388.789     1049.620      377.315        0.289        0.141       53.532       12.402        0.054      333.872        3.474      856.153
12/02/2014  22:44:00       -5.343      -91.672      -12.640       47.275       44.008       27.887     2234.947     1936.747      777.665        0.677        0.247       91.828       22.446        0.060      333.925        3.559      856.189
12/02/2014  22:45:00      -23.684      -79.151       -1.381       31.096       33.150       29.654      966.984     1098.921      879.373        0.489        0.147       82.619       17.524        0.045      333.955        3.610      856.217
12/02/2014  22:46:00       -4.645      -57.862       -4.108       26.111       33.405       20.971      681.809     1115.924      439.778        0.281        0.112       58.049        9.467        0.027      333.978        3.649      856.247
12/02/2014  22:47:00       -1.609      -38.434       -6.138       35.286       29.756       27.091     1245.127      885.406      733.939        0.219        0.143       38.468       15.418        0.161      333.976        3.646      856.282
12/02/2014  22:48:00        4.949        4.293        8.042       22.832       34.853       17.045      521.303     1214.705      290.533        0.107        0.101        6.551       10.598        2.617      333.892        3.506      856.271
12/02/2014  22:49:00       24.177       13.794       21.618       19.733       11.931       16.683      389.395      142.359      278.311        0.103        0.041       27.836        8.637        0.096      333.849        3.433      856.220
12/02/2014  22:50:00       -4.449        8.771       14.070       23.248       21.747       18.378      540.482      472.944      337.746        0.082        0.068        9.835       13.788        1.965      333.807        3.363      856.135
12/02/2014  22:51:00       17.967       89.159       -5.499       28.088       45.812       20.868      788.930     2098.739      435.491        0.581        0.166       90.951       22.943        0.064      333.730        3.234      856.027
12/02/2014  22:52:00       82.780       66.733       -9.142       47.916       42.307       23.936     2295.948     1789.886      572.910        0.802        0.233      106.329       22.557        0.045      333.698        3.182      855.903
12/02/2014  22:53:00      105.065       53.834        6.190       38.616       32.828       25.168     1491.232     1077.670      633.404        0.859        0.160      118.054       15.525        0.017      333.656        3.114      855.781
12/02/2014  22:54:00      101.291       79.586        8.086       45.129       36.481       31.157     2036.660     1330.831      970.762        1.050        0.217      128.817       22.442        0.030      333.603        3.026      855.694
12/02/2014  22:55:00      126.726       81.260        9.696       54.081       42.964       26.208     2924.763     1845.944      686.838        1.411        0.273      150.542       25.756        0.029      333.559        2.952      855.656
12/02/2014  22:56:00      149.170       88.077       21.192       44.705       40.469       32.945     1998.505     1637.766     1085.392        1.759        0.236      173.232       21.136        0.015      333.520        2.887      855.649
12/02/2014  22:57:00      100.661       84.334       19.598       49.676       33.318       33.814     2467.711     1110.097     1143.378        1.117        0.236      131.320       30.382        0.054      333.524        2.895      855.617
12/02/2014  22:58:00      121.648       80.377        5.962       45.380       32.805       30.014     2059.316     1076.169      900.857        1.266        0.202      145.804       13.992        0.009      333.527        2.899      855.559
12/02/2014  22:59:00      123.574       76.833       15.601       45.072       37.051       31.483     2031.455     1372.757      991.167        1.291        0.220      145.512       10.349        0.005      333.534        2.911      855.512
12/02/2014  23:00:00       70.756       50.225       18.881       50.604       28.985       29.813     2560.796      840.143      888.841        0.609        0.214       86.769       22.542        0.067      333.537        2.917      855.477
12/02/2014  23:01:00       40.425       88.029       -9.421       41.094       55.741       31.934     1688.686     3107.028     1019.787        0.764        0.291       96.867       23.576        0.059      333.519        2.886      855.434
12/02/2014  23:02:00       37.302       77.222        2.623       44.604       57.552       33.831     1989.548     3312.188     1144.547        0.690        0.322       85.759       33.140        0.149      333.539        2.921      855.403
12/02/2014  23:03:00       29.626      108.448       -1.283       36.667       79.115       44.001     1344.490     6259.209     1936.114        1.109        0.477      112.422       48.765        0.188      333.548        2.935      855.376
12/02/2014  23:04:00       11.665      140.301      -14.718       30.854       33.301       26.675      951.999     1108.943      711.538        1.140        0.139      140.785       20.514        0.021      333.550        2.938      855.359
12/02/2014  23:05:00        8.038      120.598      -15.535       27.412       34.996       19.415      751.404     1224.708      376.951        0.860        0.118      120.865       15.985        0.017      333.560        2.957      855.417
12/02/2014  23:06:00       46.125       15.435        3.188       21.879       20.778       17.000      478.675      431.718      288.992        0.179        0.060       48.639       14.700        0.091      333.572        2.974      855.565
12/02/2014  23:07:00       35.950        4.266       -8.240       27.231       20.237       16.753      741.528      409.533      280.655        0.140        0.072       36.202        9.202        0.065      333.617        3.049      855.683
12/02/2014  23:08:00       10.331       34.191       43.191       35.617       45.089       43.460     1268.599     2033.045     1888.740        0.416        0.260       35.718       38.976        1.191      333.609        3.035      855.735
12/02/2014  23:09:00       41.058       -4.008       21.056       37.858       49.861       33.744     1433.238     2486.070     1138.652        0.360        0.253       41.253       33.300        0.652      333.652        3.106      855.725
12/02/2014  23:10:00        9.008       -6.654       23.406       23.014       42.152       25.800      529.661     1776.817      665.626        0.182        0.149       11.199       24.940        4.959      333.668        3.133      855.721
12/02/2014  23:11:00       23.578       14.923       29.239       19.907       29.354       17.013      396.305      861.684      289.439        0.159        0.077       27.903        5.510        0.039      333.639        3.086      855.742
12/02/2014  23:12:00       16.913       26.085       24.870       15.840       14.871       16.865      250.913      221.140      284.419        0.117        0.038       31.089        6.254        0.040      333.614        3.045      855.776
12/02/2014  23:13:00        4.944       17.193       22.226       16.864       17.275       19.645      284.402      298.427      385.924        0.089        0.048       17.889       13.573        0.576      333.646        3.097      855.817
12/02/2014  23:14:00       23.547       43.796       41.133       32.089       23.925       19.474     1029.681      572.407      379.255        0.307        0.099       49.724       15.191        0.093      333.593        3.010      855.836
12/02/2014  23:15:00        7.002       17.979       29.645       15.341       15.739       14.888      235.361      247.729      221.657        0.098        0.035       19.294       13.236        0.471      333.609        3.037      855.840
12/02/2014  23:16:00       18.428       37.301       23.753       24.677       13.727       23.763      608.972      188.437      564.671        0.183        0.068       41.605       20.821        0.250      333.638        3.083      855.846
12/02/2014  23:17:00       20.534       30.291       14.044       27.848       23.698       15.269      775.506      561.588      233.151        0.155        0.079       36.595       16.474        0.203      333.632        3.074      855.866
12/02/2014  23:18:00       10.863        9.186       12.211       26.427       21.124       16.602      698.400      446.228      275.623        0.089        0.071       14.227       10.762        0.572      333.642        3.092      855.922
12/02/2014  23:19:00       68.174     -101.224      -17.282       22.609       29.840       15.475      511.153      890.449      239.475        0.842        0.082      122.041       10.604        0.008      333.683        3.159      855.996
12/02/2014  23:20:00       39.989      -73.985       -5.631       24.760       26.215       16.303      613.070      687.221      265.781        0.434        0.078       84.100       14.099        0.028      333.727        3.232      856.051
12/02/2014  23:21:00        7.673      -50.901       -2.902       29.495       29.033       16.922      869.955      842.929      286.343        0.233        0.100       51.476       11.510        0.050      333.774        3.310      856.071
12/02/2014  23:22:00        6.254       -1.509        8.966       10.627        7.382        9.065      112.932       54.493       82.179        0.019        0.012        6.433        2.795        0.189      333.770        3.304      856.064
12/02/2014  23:23:00      -10.693        3.447        4.570        9.664        9.931        9.896       93.396       98.634       97.932        0.022        0.014       11.235        6.408        0.325      333.711        3.204      856.040
12/02/2014  23:24:00        2.764       14.749       36.519       14.859       28.919       18.332      220.799      836.324      336.049        0.148        0.070       15.006       19.736        1.730      333.744        3.258      856.039
12/02/2014  23:25:00       42.193      -47.094       19.041       48.621       49.687       44.302     2363.993     2468.836     1962.672        0.558        0.340       63.230       40.906        0.419      333.729        3.234      856.056
12/02/2014  23:26:00       -7.503      -61.849       22.526       32.140       32.361       25.428     1032.988     1047.216      646.575        0.356        0.136       62.302       17.998        0.083      333.787        3.331      856.125
12/02/2014  23:27:00        6.013      -44.094       -2.378       29.969       24.000       25.179      898.152      575.981      633.992        0.205        0.105       44.502       10.202        0.053      333.800        3.352      856.218
12/02/2014  23:28:00       -6.058      -21.958        2.376       33.173       23.078       18.744     1100.442      532.575      351.339        0.125        0.099       22.779        5.982        0.069      333.908        3.533      856.272
12/02/2014  23:29:00       -3.761       25.698       17.267       22.388       21.948       19.012      501.201      481.694      361.453        0.116        0.067       25.971       17.881        0.474      333.884        3.494      856.185
12/02/2014  23:30:00       18.431       45.561       63.566       52.005       31.168       27.416     2704.537      971.449      751.626        0.544        0.221       49.148       26.987        0.302      333.742        3.254      855.972
12/02/2014  23:31:00      135.348       93.927       17.329       31.850       34.029       32.259     1014.425     1158.003     1040.672        1.533        0.161      164.746       12.324        0.006      333.658        3.118      855.809
12/02/2014  23:32:00      124.374       64.042       12.319       37.113       27.585       31.943     1377.402      760.942     1020.376        1.144        0.158      139.894       12.212        0.008      333.641        3.089      855.763
12/02/2014  23:33:00       59.421       42.308        9.013       59.622       41.243       28.989     3554.787     1701.020      840.364        0.575        0.305       72.944       26.486        0.132      333.635        3.078      855.722
12/02/2014  23:34:00       58.222       54.314        5.747       42.161       33.238       28.637     1777.569     1104.797      820.103        0.504        0.185       79.623       23.284        0.086      333.611        3.040      855.660
12/02/2014  23:35:00       26.958       44.562       -0.128       37.354       26.407       27.380     1395.333      697.319      749.645        0.278        0.142       52.082       22.357        0.184      333.579        2.985      855.651
12/02/2014  23:36:00       21.497       29.783       -4.681       25.445       21.196       11.277      647.470      449.250      127.165        0.130        0.061       36.731       10.232        0.078      333.583        2.993      855.693
12/02/2014  23:37:00       17.091        1.799        0.025        8.784        7.701        6.816       77.155       59.305       46.459        0.024        0.009       17.185        5.591        0.106      333.573        2.976      855.750
12/02/2014  23:38:00       11.827       11.775       -4.485        8.245       11.463        4.530       67.986      131.390       20.523        0.026        0.011       16.689        5.609        0.113      333.583        2.990      855.802
12/02/2014  23:39:00        0.096       11.515       -0.110        7.538        7.188        6.544       56.827       51.670       42.830        0.014        0.008       11.515        5.689        0.244      333.580        2.988      855.802
12/02/2014  23:40:00       -8.707       17.525        3.537       14.152       19.593        7.098      200.286      383.899       50.387        0.051        0.032       19.569        4.192        0.046      333.592        3.009      855.748
12/02/2014  23:41:00       11.395       77.444       -2.043       20.906       34.129       16.219      437.052     1164.783      263.071        0.400        0.093       78.278       19.747        0.064      333.619        3.054      855.708
12/02/2014  23:42:00        2.837       80.444      -11.945        6.177       17.615        7.764       38.150      310.275       60.281        0.352        0.020       80.494        6.112        0.006      333.568        2.967      855.763
12/02/2014  23:43:00       16.783       30.223       -4.050        6.902       16.056       10.690       47.637      257.793      114.285        0.082        0.021       34.570       10.698        0.096      333.574        2.975      855.883
12/02/2014  23:44:00       19.940       22.403        3.024        4.264        8.598       10.998       18.182       73.932      120.954        0.056        0.011       29.992        8.224        0.075      333.578        2.980      855.950
12/02/2014  23:45:00       41.339       34.368       25.689       24.307        9.368       11.280      590.826       87.763      127.243        0.218        0.040       53.760        8.873        0.027      333.612        3.043      855.935
12/02/2014  23:46:00       61.785       45.262        7.577       15.991       13.517       12.231      255.701      182.713      149.600        0.326        0.029       76.590        9.739        0.016      333.603        3.025      855.872
12/02/2014  23:47:00       29.699       63.336      -11.248       21.314       18.495        9.040      454.269      342.050       81.721        0.295        0.044       69.953       11.084        0.025      333.581        2.989      855.787
12/02/2014  23:48:00       -0.757       54.638      -13.297        8.461       11.497        9.173       71.593      132.180       84.142        0.173        0.014       54.643        7.462        0.019      333.628        3.063      855.720
12/02/2014  23:49:00      -75.101        4.661       -5.266       26.480       23.099       13.093      701.210      533.576      171.431        0.355        0.070       75.245       11.876        0.025      333.651        3.107      855.669
12/02/2014  23:50:00     -113.403        6.442      -14.541       45.883       18.140       13.391     2105.278      329.064      179.320        0.786        0.131      113.586       12.459        0.012      333.588        3.002      855.636
12/02/2014  23:51:00     -139.824      -43.355       -3.516       38.739       35.393       25.592     1500.724     1252.645      654.956        1.242        0.170      146.391       18.369        0.016      333.620        3.053      855.640
12/02/2014  23:52:00     -143.306      -67.746       -1.114       58.203       53.194       33.519     3387.597     2829.619     1123.514        1.623        0.367      158.513       28.644        0.033      333.645        3.095      855.674
12/02/2014  23:53:00     -153.983      -52.406       -0.071       50.067       35.661       27.481     2506.681     1271.700      755.181        1.549        0.227      162.657       27.108        0.028      333.579        2.986      855.702
12/02/2014  23:54:00     -142.649      -29.186       -5.244       41.908       33.839       22.034     1756.280     1145.054      485.488        1.231        0.169      145.604       19.174        0.017      333.560        2.955      855.716
12/02/2014  23:55:00      -58.522      -21.983        9.130       37.862       29.191       17.790     1433.553      852.102      316.498        0.330        0.130       62.514       19.235        0.095      333.553        2.942      855.699
12/02/2014  23:56:00      -48.165      -17.562        2.149       23.518       20.802       11.427      553.098      432.723      130.568        0.187        0.056       51.267       10.221        0.040      333.607        3.032      855.667
12/02/2014  23:57:00      -68.645      -37.176       -0.769       27.107       32.121       20.213      734.808     1031.755      408.551        0.413        0.109       78.065       17.785        0.052      333.624        3.062      855.657
12/02/2014  23:58:00     -109.610      -61.488       -6.788       34.569       30.034       21.767     1195.026      902.068      473.784        0.921        0.129      125.679       11.929        0.009      333.678        3.150      855.692
12/02/2014  23:59:00     -113.945      -54.002      -10.711       32.767       28.491       16.094     1073.675      811.765      259.010        0.908        0.107      126.094       11.624        0.008      333.637        3.081      855.695
